<?xml version="1.0" encoding="UTF-8" standalone="no" ?>
<gpx xmlns="http://www.topografix.com/GPX/1/1" xmlns:xsi="http://www.w3.org/2001/XMLSchema-instance" xsi:schemaLocation="http://www.topografix.com/GPX/1/1 http://www.topografix.com/GPX/1/1/gpx.xsd" version="1.1" creator="VisuGPX - https://www.visugpx.com">
  <metadata>
    <name>Niederkorn au Lux Rando de Sept 2012 </name>
    <desc><![CDATA[Belle randonnée organisés par nos amis Luxembourgeois 
35 kms pour 560 m de dénivelé Positif]]></desc>
  </metadata>
  <trk>
    <name><![CDATA[NIEDERKORN07:59:52]]></name>
    <trkseg>
      <trkpt lat="49.53562" lon="5.89235">
        <ele>268.35</ele>
        <time>2012-09-22T12:25:10Z</time>
      </trkpt>
      <trkpt lat="49.53562" lon="5.89235">
        <ele>273.63</ele>
        <time>2012-09-22T12:25:12Z</time>
      </trkpt>
      <trkpt lat="49.53563" lon="5.89235">
        <ele>273.15</ele>
        <time>2012-09-22T12:25:13Z</time>
      </trkpt>
      <trkpt lat="49.53563" lon="5.89235">
        <ele>276.52</ele>
        <time>2012-09-22T12:25:14Z</time>
      </trkpt>
      <trkpt lat="49.53563" lon="5.89235">
        <ele>276.52</ele>
        <time>2012-09-22T12:25:15Z</time>
      </trkpt>
      <trkpt lat="49.53563" lon="5.89235">
        <ele>279.4</ele>
        <time>2012-09-22T12:25:18Z</time>
      </trkpt>
      <trkpt lat="49.53563" lon="5.89235">
        <ele>281.8</ele>
        <time>2012-09-22T12:25:20Z</time>
      </trkpt>
      <trkpt lat="49.53562" lon="5.89236">
        <ele>285.17</ele>
        <time>2012-09-22T12:25:22Z</time>
      </trkpt>
      <trkpt lat="49.53561" lon="5.89228">
        <ele>288.05</ele>
        <time>2012-09-22T12:25:26Z</time>
      </trkpt>
      <trkpt lat="49.53561" lon="5.89228">
        <ele>290.94</ele>
        <time>2012-09-22T12:25:27Z</time>
      </trkpt>
      <trkpt lat="49.53563" lon="5.89228">
        <ele>293.82</ele>
        <time>2012-09-22T12:25:33Z</time>
      </trkpt>
      <trkpt lat="49.53564" lon="5.89228">
        <ele>296.7</ele>
        <time>2012-09-22T12:25:37Z</time>
      </trkpt>
      <trkpt lat="49.53566" lon="5.89228">
        <ele>300.55</ele>
        <time>2012-09-22T12:25:43Z</time>
      </trkpt>
      <trkpt lat="49.53566" lon="5.89228">
        <ele>300.55</ele>
        <time>2012-09-22T12:25:44Z</time>
      </trkpt>
      <trkpt lat="49.53568" lon="5.89227">
        <ele>303.91</ele>
        <time>2012-09-22T12:25:53Z</time>
      </trkpt>
      <trkpt lat="49.53578" lon="5.89208">
        <ele>305.84</ele>
        <time>2012-09-22T12:26:23Z</time>
      </trkpt>
      <trkpt lat="49.5358" lon="5.89194">
        <ele>306.8</ele>
        <time>2012-09-22T12:26:27Z</time>
      </trkpt>
      <trkpt lat="49.5358" lon="5.89179">
        <ele>305.84</ele>
        <time>2012-09-22T12:26:30Z</time>
      </trkpt>
      <trkpt lat="49.5358" lon="5.89163">
        <ele>306.32</ele>
        <time>2012-09-22T12:26:34Z</time>
      </trkpt>
      <trkpt lat="49.53579" lon="5.89151">
        <ele>307.76</ele>
        <time>2012-09-22T12:26:37Z</time>
      </trkpt>
      <trkpt lat="49.53576" lon="5.89145">
        <ele>307.28</ele>
        <time>2012-09-22T12:26:48Z</time>
      </trkpt>
      <trkpt lat="49.53567" lon="5.89148">
        <ele>306.8</ele>
        <time>2012-09-22T12:27:10Z</time>
      </trkpt>
      <trkpt lat="49.53556" lon="5.89152">
        <ele>307.28</ele>
        <time>2012-09-22T12:27:18Z</time>
      </trkpt>
      <trkpt lat="49.53535" lon="5.89156">
        <ele>306.8</ele>
        <time>2012-09-22T12:27:27Z</time>
      </trkpt>
      <trkpt lat="49.53498" lon="5.89147">
        <ele>306.8</ele>
        <time>2012-09-22T12:27:36Z</time>
      </trkpt>
      <trkpt lat="49.53475" lon="5.89152">
        <ele>307.28</ele>
        <time>2012-09-22T12:27:42Z</time>
      </trkpt>
      <trkpt lat="49.53452" lon="5.89136">
        <ele>306.8</ele>
        <time>2012-09-22T12:27:50Z</time>
      </trkpt>
      <trkpt lat="49.53435" lon="5.89113">
        <ele>306.8</ele>
        <time>2012-09-22T12:27:56Z</time>
      </trkpt>
      <trkpt lat="49.53422" lon="5.89116">
        <ele>308.72</ele>
        <time>2012-09-22T12:28:01Z</time>
      </trkpt>
      <trkpt lat="49.53383" lon="5.89139">
        <ele>312.09</ele>
        <time>2012-09-22T12:28:13Z</time>
      </trkpt>
      <trkpt lat="49.53359" lon="5.89157">
        <ele>315.45</ele>
        <time>2012-09-22T12:28:23Z</time>
      </trkpt>
      <trkpt lat="49.53333" lon="5.89185">
        <ele>318.81</ele>
        <time>2012-09-22T12:28:37Z</time>
      </trkpt>
      <trkpt lat="49.53328" lon="5.89191">
        <ele>319.78</ele>
        <time>2012-09-22T12:28:41Z</time>
      </trkpt>
      <trkpt lat="49.53315" lon="5.89163">
        <ele>319.3</ele>
        <time>2012-09-22T12:28:53Z</time>
      </trkpt>
      <trkpt lat="49.53311" lon="5.89148">
        <ele>319.3</ele>
        <time>2012-09-22T12:28:57Z</time>
      </trkpt>
      <trkpt lat="49.53304" lon="5.89137">
        <ele>319.78</ele>
        <time>2012-09-22T12:29:03Z</time>
      </trkpt>
      <trkpt lat="49.53297" lon="5.89132">
        <ele>319.3</ele>
        <time>2012-09-22T12:29:08Z</time>
      </trkpt>
      <trkpt lat="49.53279" lon="5.89126">
        <ele>322.66</ele>
        <time>2012-09-22T12:29:18Z</time>
      </trkpt>
      <trkpt lat="49.53271" lon="5.89116">
        <ele>326.5</ele>
        <time>2012-09-22T12:29:28Z</time>
      </trkpt>
      <trkpt lat="49.5327" lon="5.89115">
        <ele>326.5</ele>
        <time>2012-09-22T12:29:29Z</time>
      </trkpt>
      <trkpt lat="49.53266" lon="5.89112">
        <ele>328.43</ele>
        <time>2012-09-22T12:29:33Z</time>
      </trkpt>
      <trkpt lat="49.53259" lon="5.89104">
        <ele>330.83</ele>
        <time>2012-09-22T12:29:40Z</time>
      </trkpt>
      <trkpt lat="49.53249" lon="5.89093">
        <ele>334.2</ele>
        <time>2012-09-22T12:29:51Z</time>
      </trkpt>
      <trkpt lat="49.53242" lon="5.89089">
        <ele>335.64</ele>
        <time>2012-09-22T12:29:56Z</time>
      </trkpt>
      <trkpt lat="49.53229" lon="5.8909">
        <ele>336.12</ele>
        <time>2012-09-22T12:30:03Z</time>
      </trkpt>
      <trkpt lat="49.53219" lon="5.89085">
        <ele>336.12</ele>
        <time>2012-09-22T12:30:09Z</time>
      </trkpt>
      <trkpt lat="49.53209" lon="5.89077">
        <ele>339.96</ele>
        <time>2012-09-22T12:30:16Z</time>
      </trkpt>
      <trkpt lat="49.53188" lon="5.89066">
        <ele>341.41</ele>
        <time>2012-09-22T12:30:29Z</time>
      </trkpt>
      <trkpt lat="49.53156" lon="5.89059">
        <ele>339.48</ele>
        <time>2012-09-22T12:30:41Z</time>
      </trkpt>
      <trkpt lat="49.53134" lon="5.89055">
        <ele>338.52</ele>
        <time>2012-09-22T12:30:47Z</time>
      </trkpt>
      <trkpt lat="49.5311" lon="5.89049">
        <ele>339</ele>
        <time>2012-09-22T12:30:52Z</time>
      </trkpt>
      <trkpt lat="49.53073" lon="5.89043">
        <ele>337.08</ele>
        <time>2012-09-22T12:30:59Z</time>
      </trkpt>
      <trkpt lat="49.53021" lon="5.89034">
        <ele>338.52</ele>
        <time>2012-09-22T12:31:10Z</time>
      </trkpt>
      <trkpt lat="49.52985" lon="5.89023">
        <ele>338.52</ele>
        <time>2012-09-22T12:31:18Z</time>
      </trkpt>
      <trkpt lat="49.52976" lon="5.8902">
        <ele>338.04</ele>
        <time>2012-09-22T12:31:20Z</time>
      </trkpt>
      <trkpt lat="49.52935" lon="5.89006">
        <ele>337.56</ele>
        <time>2012-09-22T12:31:29Z</time>
      </trkpt>
      <trkpt lat="49.52847" lon="5.88987">
        <ele>336.6</ele>
        <time>2012-09-22T12:31:44Z</time>
      </trkpt>
      <trkpt lat="49.52787" lon="5.88947">
        <ele>338.04</ele>
        <time>2012-09-22T12:31:56Z</time>
      </trkpt>
      <trkpt lat="49.52755" lon="5.8892">
        <ele>336.6</ele>
        <time>2012-09-22T12:32:03Z</time>
      </trkpt>
      <trkpt lat="49.52723" lon="5.88897">
        <ele>334.68</ele>
        <time>2012-09-22T12:32:11Z</time>
      </trkpt>
      <trkpt lat="49.52721" lon="5.88896">
        <ele>336.12</ele>
        <time>2012-09-22T12:32:19Z</time>
      </trkpt>
      <trkpt lat="49.52717" lon="5.88897">
        <ele>335.16</ele>
        <time>2012-09-22T12:32:21Z</time>
      </trkpt>
      <trkpt lat="49.52715" lon="5.88904">
        <ele>333.23</ele>
        <time>2012-09-22T12:32:24Z</time>
      </trkpt>
      <trkpt lat="49.52714" lon="5.88909">
        <ele>332.75</ele>
        <time>2012-09-22T12:32:25Z</time>
      </trkpt>
      <trkpt lat="49.52709" lon="5.88926">
        <ele>330.35</ele>
        <time>2012-09-22T12:32:28Z</time>
      </trkpt>
      <trkpt lat="49.52706" lon="5.88941">
        <ele>327.47</ele>
        <time>2012-09-22T12:32:34Z</time>
      </trkpt>
      <trkpt lat="49.52705" lon="5.88942">
        <ele>326.99</ele>
        <time>2012-09-22T12:32:35Z</time>
      </trkpt>
      <trkpt lat="49.52703" lon="5.88941">
        <ele>325.54</ele>
        <time>2012-09-22T12:32:37Z</time>
      </trkpt>
      <trkpt lat="49.52693" lon="5.88933">
        <ele>325.54</ele>
        <time>2012-09-22T12:32:41Z</time>
      </trkpt>
      <trkpt lat="49.52641" lon="5.88913">
        <ele>325.06</ele>
        <time>2012-09-22T12:32:49Z</time>
      </trkpt>
      <trkpt lat="49.52607" lon="5.889">
        <ele>325.54</ele>
        <time>2012-09-22T12:32:54Z</time>
      </trkpt>
      <trkpt lat="49.52587" lon="5.88904">
        <ele>324.58</ele>
        <time>2012-09-22T12:32:59Z</time>
      </trkpt>
      <trkpt lat="49.5258" lon="5.8892">
        <ele>323.14</ele>
        <time>2012-09-22T12:33:02Z</time>
      </trkpt>
      <trkpt lat="49.5256" lon="5.88932">
        <ele>324.1</ele>
        <time>2012-09-22T12:33:08Z</time>
      </trkpt>
      <trkpt lat="49.52525" lon="5.88886">
        <ele>326.5</ele>
        <time>2012-09-22T12:33:23Z</time>
      </trkpt>
      <trkpt lat="49.52513" lon="5.88864">
        <ele>329.39</ele>
        <time>2012-09-22T12:33:30Z</time>
      </trkpt>
      <trkpt lat="49.52514" lon="5.88854">
        <ele>328.91</ele>
        <time>2012-09-22T12:33:33Z</time>
      </trkpt>
      <trkpt lat="49.52515" lon="5.88854">
        <ele>329.87</ele>
        <time>2012-09-22T12:33:35Z</time>
      </trkpt>
      <trkpt lat="49.52514" lon="5.88858">
        <ele>328.91</ele>
        <time>2012-09-22T12:33:37Z</time>
      </trkpt>
      <trkpt lat="49.52514" lon="5.88858">
        <ele>327.95</ele>
        <time>2012-09-22T12:33:38Z</time>
      </trkpt>
      <trkpt lat="49.52505" lon="5.88859">
        <ele>327.95</ele>
        <time>2012-09-22T12:33:43Z</time>
      </trkpt>
      <trkpt lat="49.5248" lon="5.8882">
        <ele>330.35</ele>
        <time>2012-09-22T12:33:54Z</time>
      </trkpt>
      <trkpt lat="49.5246" lon="5.88751">
        <ele>330.83</ele>
        <time>2012-09-22T12:34:06Z</time>
      </trkpt>
      <trkpt lat="49.52457" lon="5.88739">
        <ele>330.35</ele>
        <time>2012-09-22T12:34:08Z</time>
      </trkpt>
      <trkpt lat="49.52449" lon="5.88701">
        <ele>330.83</ele>
        <time>2012-09-22T12:34:14Z</time>
      </trkpt>
      <trkpt lat="49.52447" lon="5.88687">
        <ele>330.83</ele>
        <time>2012-09-22T12:34:16Z</time>
      </trkpt>
      <trkpt lat="49.52443" lon="5.88668">
        <ele>332.75</ele>
        <time>2012-09-22T12:34:19Z</time>
      </trkpt>
      <trkpt lat="49.52433" lon="5.88637">
        <ele>333.23</ele>
        <time>2012-09-22T12:34:24Z</time>
      </trkpt>
      <trkpt lat="49.52417" lon="5.88568">
        <ele>334.2</ele>
        <time>2012-09-22T12:34:35Z</time>
      </trkpt>
      <trkpt lat="49.52415" lon="5.88554">
        <ele>335.64</ele>
        <time>2012-09-22T12:34:37Z</time>
      </trkpt>
      <trkpt lat="49.52407" lon="5.88514">
        <ele>337.08</ele>
        <time>2012-09-22T12:34:43Z</time>
      </trkpt>
      <trkpt lat="49.52381" lon="5.88411">
        <ele>337.08</ele>
        <time>2012-09-22T12:34:59Z</time>
      </trkpt>
      <trkpt lat="49.52376" lon="5.8839">
        <ele>338.04</ele>
        <time>2012-09-22T12:35:02Z</time>
      </trkpt>
      <trkpt lat="49.5237" lon="5.88369">
        <ele>338.52</ele>
        <time>2012-09-22T12:35:05Z</time>
      </trkpt>
      <trkpt lat="49.52363" lon="5.88342">
        <ele>338.52</ele>
        <time>2012-09-22T12:35:09Z</time>
      </trkpt>
      <trkpt lat="49.52362" lon="5.88327">
        <ele>339.48</ele>
        <time>2012-09-22T12:35:11Z</time>
      </trkpt>
      <trkpt lat="49.52358" lon="5.88299">
        <ele>339</ele>
        <time>2012-09-22T12:35:15Z</time>
      </trkpt>
      <trkpt lat="49.52361" lon="5.88254">
        <ele>340.44</ele>
        <time>2012-09-22T12:35:21Z</time>
      </trkpt>
      <trkpt lat="49.52369" lon="5.88188">
        <ele>341.41</ele>
        <time>2012-09-22T12:35:30Z</time>
      </trkpt>
      <trkpt lat="49.52376" lon="5.88117">
        <ele>340.92</ele>
        <time>2012-09-22T12:35:39Z</time>
      </trkpt>
      <trkpt lat="49.52376" lon="5.88085">
        <ele>340.92</ele>
        <time>2012-09-22T12:35:43Z</time>
      </trkpt>
      <trkpt lat="49.52386" lon="5.88036">
        <ele>340.92</ele>
        <time>2012-09-22T12:35:49Z</time>
      </trkpt>
      <trkpt lat="49.52402" lon="5.87993">
        <ele>340.44</ele>
        <time>2012-09-22T12:35:55Z</time>
      </trkpt>
      <trkpt lat="49.52409" lon="5.87982">
        <ele>340.44</ele>
        <time>2012-09-22T12:35:57Z</time>
      </trkpt>
      <trkpt lat="49.52422" lon="5.87959">
        <ele>342.85</ele>
        <time>2012-09-22T12:36:01Z</time>
      </trkpt>
      <trkpt lat="49.52423" lon="5.8794">
        <ele>340.92</ele>
        <time>2012-09-22T12:36:04Z</time>
      </trkpt>
      <trkpt lat="49.52405" lon="5.87911">
        <ele>339.96</ele>
        <time>2012-09-22T12:36:09Z</time>
      </trkpt>
      <trkpt lat="49.52379" lon="5.87888">
        <ele>340.44</ele>
        <time>2012-09-22T12:36:14Z</time>
      </trkpt>
      <trkpt lat="49.5236" lon="5.87856">
        <ele>340.44</ele>
        <time>2012-09-22T12:36:19Z</time>
      </trkpt>
      <trkpt lat="49.52337" lon="5.87807">
        <ele>339.96</ele>
        <time>2012-09-22T12:36:26Z</time>
      </trkpt>
      <trkpt lat="49.52315" lon="5.87789">
        <ele>340.44</ele>
        <time>2012-09-22T12:36:34Z</time>
      </trkpt>
      <trkpt lat="49.52288" lon="5.87804">
        <ele>341.41</ele>
        <time>2012-09-22T12:36:41Z</time>
      </trkpt>
      <trkpt lat="49.52279" lon="5.87813">
        <ele>340.92</ele>
        <time>2012-09-22T12:36:43Z</time>
      </trkpt>
      <trkpt lat="49.52261" lon="5.87833">
        <ele>340.44</ele>
        <time>2012-09-22T12:36:47Z</time>
      </trkpt>
      <trkpt lat="49.52248" lon="5.87848">
        <ele>340.92</ele>
        <time>2012-09-22T12:36:50Z</time>
      </trkpt>
      <trkpt lat="49.52223" lon="5.87896">
        <ele>341.41</ele>
        <time>2012-09-22T12:36:57Z</time>
      </trkpt>
      <trkpt lat="49.52203" lon="5.87942">
        <ele>341.89</ele>
        <time>2012-09-22T12:37:03Z</time>
      </trkpt>
      <trkpt lat="49.52189" lon="5.8797">
        <ele>341.89</ele>
        <time>2012-09-22T12:37:07Z</time>
      </trkpt>
      <trkpt lat="49.52182" lon="5.87982">
        <ele>342.37</ele>
        <time>2012-09-22T12:37:09Z</time>
      </trkpt>
      <trkpt lat="49.52127" lon="5.88032">
        <ele>342.85</ele>
        <time>2012-09-22T12:37:23Z</time>
      </trkpt>
      <trkpt lat="49.52108" lon="5.88041">
        <ele>342.37</ele>
        <time>2012-09-22T12:37:31Z</time>
      </trkpt>
      <trkpt lat="49.5211" lon="5.88042">
        <ele>344.77</ele>
        <time>2012-09-22T12:37:48Z</time>
      </trkpt>
      <trkpt lat="49.5211" lon="5.88042">
        <ele>345.73</ele>
        <time>2012-09-22T12:37:50Z</time>
      </trkpt>
      <trkpt lat="49.52136" lon="5.88049">
        <ele>349.58</ele>
        <time>2012-09-22T12:38:00Z</time>
      </trkpt>
      <trkpt lat="49.52139" lon="5.8805">
        <ele>349.1</ele>
        <time>2012-09-22T12:38:01Z</time>
      </trkpt>
      <trkpt lat="49.52161" lon="5.88045">
        <ele>349.58</ele>
        <time>2012-09-22T12:38:09Z</time>
      </trkpt>
      <trkpt lat="49.52154" lon="5.8804">
        <ele>350.54</ele>
        <time>2012-09-22T12:38:17Z</time>
      </trkpt>
      <trkpt lat="49.52151" lon="5.88036">
        <ele>353.9</ele>
        <time>2012-09-22T12:38:25Z</time>
      </trkpt>
      <trkpt lat="49.52152" lon="5.88032">
        <ele>353.9</ele>
        <time>2012-09-22T12:38:28Z</time>
      </trkpt>
      <trkpt lat="49.52156" lon="5.88013">
        <ele>357.75</ele>
        <time>2012-09-22T12:38:38Z</time>
      </trkpt>
      <trkpt lat="49.52156" lon="5.8801">
        <ele>358.23</ele>
        <time>2012-09-22T12:38:39Z</time>
      </trkpt>
      <trkpt lat="49.52161" lon="5.88003">
        <ele>358.23</ele>
        <time>2012-09-22T12:38:43Z</time>
      </trkpt>
      <trkpt lat="49.52165" lon="5.87991">
        <ele>359.19</ele>
        <time>2012-09-22T12:38:50Z</time>
      </trkpt>
      <trkpt lat="49.52167" lon="5.87979">
        <ele>360.63</ele>
        <time>2012-09-22T12:38:55Z</time>
      </trkpt>
      <trkpt lat="49.52169" lon="5.87927">
        <ele>364</ele>
        <time>2012-09-22T12:39:10Z</time>
      </trkpt>
      <trkpt lat="49.52167" lon="5.87917">
        <ele>364.96</ele>
        <time>2012-09-22T12:39:15Z</time>
      </trkpt>
      <trkpt lat="49.52165" lon="5.8791">
        <ele>366.88</ele>
        <time>2012-09-22T12:39:19Z</time>
      </trkpt>
      <trkpt lat="49.52161" lon="5.87893">
        <ele>368.32</ele>
        <time>2012-09-22T12:39:30Z</time>
      </trkpt>
      <trkpt lat="49.52157" lon="5.87828">
        <ele>368.32</ele>
        <time>2012-09-22T12:39:45Z</time>
      </trkpt>
      <trkpt lat="49.52147" lon="5.87771">
        <ele>367.36</ele>
        <time>2012-09-22T12:39:57Z</time>
      </trkpt>
      <trkpt lat="49.52123" lon="5.87698">
        <ele>368.8</ele>
        <time>2012-09-22T12:40:11Z</time>
      </trkpt>
      <trkpt lat="49.52121" lon="5.87692">
        <ele>369.28</ele>
        <time>2012-09-22T12:40:12Z</time>
      </trkpt>
      <trkpt lat="49.52117" lon="5.8768">
        <ele>369.28</ele>
        <time>2012-09-22T12:40:14Z</time>
      </trkpt>
      <trkpt lat="49.52112" lon="5.87668">
        <ele>369.76</ele>
        <time>2012-09-22T12:40:16Z</time>
      </trkpt>
      <trkpt lat="49.52091" lon="5.87616">
        <ele>367.84</ele>
        <time>2012-09-22T12:40:24Z</time>
      </trkpt>
      <trkpt lat="49.5208" lon="5.87592">
        <ele>367.84</ele>
        <time>2012-09-22T12:40:28Z</time>
      </trkpt>
      <trkpt lat="49.52065" lon="5.87558">
        <ele>367.84</ele>
        <time>2012-09-22T12:40:33Z</time>
      </trkpt>
      <trkpt lat="49.52057" lon="5.87532">
        <ele>366.88</ele>
        <time>2012-09-22T12:40:36Z</time>
      </trkpt>
      <trkpt lat="49.52053" lon="5.87515">
        <ele>366.4</ele>
        <time>2012-09-22T12:40:38Z</time>
      </trkpt>
      <trkpt lat="49.52036" lon="5.87469">
        <ele>366.4</ele>
        <time>2012-09-22T12:40:44Z</time>
      </trkpt>
      <trkpt lat="49.52025" lon="5.87395">
        <ele>365.44</ele>
        <time>2012-09-22T12:40:55Z</time>
      </trkpt>
      <trkpt lat="49.52024" lon="5.87385">
        <ele>365.44</ele>
        <time>2012-09-22T12:41:02Z</time>
      </trkpt>
      <trkpt lat="49.52024" lon="5.87385">
        <ele>364.48</ele>
        <time>2012-09-22T12:41:03Z</time>
      </trkpt>
      <trkpt lat="49.52028" lon="5.87389">
        <ele>365.44</ele>
        <time>2012-09-22T12:41:09Z</time>
      </trkpt>
      <trkpt lat="49.52026" lon="5.87381">
        <ele>364.96</ele>
        <time>2012-09-22T12:41:13Z</time>
      </trkpt>
      <trkpt lat="49.52021" lon="5.87371">
        <ele>366.4</ele>
        <time>2012-09-22T12:41:18Z</time>
      </trkpt>
      <trkpt lat="49.52004" lon="5.87341">
        <ele>371.21</ele>
        <time>2012-09-22T12:41:31Z</time>
      </trkpt>
      <trkpt lat="49.52003" lon="5.87338">
        <ele>371.21</ele>
        <time>2012-09-22T12:41:32Z</time>
      </trkpt>
      <trkpt lat="49.51998" lon="5.87324">
        <ele>373.13</ele>
        <time>2012-09-22T12:41:39Z</time>
      </trkpt>
      <trkpt lat="49.51997" lon="5.87308">
        <ele>373.61</ele>
        <time>2012-09-22T12:41:45Z</time>
      </trkpt>
      <trkpt lat="49.51994" lon="5.87301">
        <ele>375.05</ele>
        <time>2012-09-22T12:41:49Z</time>
      </trkpt>
      <trkpt lat="49.51994" lon="5.87297">
        <ele>376.01</ele>
        <time>2012-09-22T12:41:51Z</time>
      </trkpt>
      <trkpt lat="49.51995" lon="5.87271">
        <ele>379.38</ele>
        <time>2012-09-22T12:42:01Z</time>
      </trkpt>
      <trkpt lat="49.51985" lon="5.87248">
        <ele>381.78</ele>
        <time>2012-09-22T12:42:12Z</time>
      </trkpt>
      <trkpt lat="49.51983" lon="5.87228">
        <ele>385.63</ele>
        <time>2012-09-22T12:42:23Z</time>
      </trkpt>
      <trkpt lat="49.51982" lon="5.87212">
        <ele>387.55</ele>
        <time>2012-09-22T12:42:41Z</time>
      </trkpt>
      <trkpt lat="49.51981" lon="5.87185">
        <ele>390.43</ele>
        <time>2012-09-22T12:42:55Z</time>
      </trkpt>
      <trkpt lat="49.51978" lon="5.8718">
        <ele>390.43</ele>
        <time>2012-09-22T12:42:59Z</time>
      </trkpt>
      <trkpt lat="49.51967" lon="5.87162">
        <ele>394.28</ele>
        <time>2012-09-22T12:43:12Z</time>
      </trkpt>
      <trkpt lat="49.51964" lon="5.8714">
        <ele>396.2</ele>
        <time>2012-09-22T12:43:23Z</time>
      </trkpt>
      <trkpt lat="49.51956" lon="5.87129">
        <ele>399.57</ele>
        <time>2012-09-22T12:43:33Z</time>
      </trkpt>
      <trkpt lat="49.51956" lon="5.87127">
        <ele>399.08</ele>
        <time>2012-09-22T12:43:36Z</time>
      </trkpt>
      <trkpt lat="49.51952" lon="5.87165">
        <ele>396.68</ele>
        <time>2012-09-22T12:43:46Z</time>
      </trkpt>
      <trkpt lat="49.51952" lon="5.87218">
        <ele>394.76</ele>
        <time>2012-09-22T12:43:53Z</time>
      </trkpt>
      <trkpt lat="49.51953" lon="5.87235">
        <ele>394.28</ele>
        <time>2012-09-22T12:43:55Z</time>
      </trkpt>
      <trkpt lat="49.51951" lon="5.87284">
        <ele>391.87</ele>
        <time>2012-09-22T12:44:00Z</time>
      </trkpt>
      <trkpt lat="49.51948" lon="5.87329">
        <ele>390.43</ele>
        <time>2012-09-22T12:44:04Z</time>
      </trkpt>
      <trkpt lat="49.51948" lon="5.8735">
        <ele>390.91</ele>
        <time>2012-09-22T12:44:06Z</time>
      </trkpt>
      <trkpt lat="49.51945" lon="5.8737">
        <ele>390.43</ele>
        <time>2012-09-22T12:44:08Z</time>
      </trkpt>
      <trkpt lat="49.51945" lon="5.87401">
        <ele>391.39</ele>
        <time>2012-09-22T12:44:12Z</time>
      </trkpt>
      <trkpt lat="49.51963" lon="5.87514">
        <ele>389.95</ele>
        <time>2012-09-22T12:44:24Z</time>
      </trkpt>
      <trkpt lat="49.51967" lon="5.87537">
        <ele>391.87</ele>
        <time>2012-09-22T12:44:32Z</time>
      </trkpt>
      <trkpt lat="49.51958" lon="5.87534">
        <ele>395.24</ele>
        <time>2012-09-22T12:44:43Z</time>
      </trkpt>
      <trkpt lat="49.51949" lon="5.87526">
        <ele>396.2</ele>
        <time>2012-09-22T12:44:52Z</time>
      </trkpt>
      <trkpt lat="49.51938" lon="5.87527">
        <ele>398.6</ele>
        <time>2012-09-22T12:44:57Z</time>
      </trkpt>
      <trkpt lat="49.51932" lon="5.87531">
        <ele>399.08</ele>
        <time>2012-09-22T12:45:01Z</time>
      </trkpt>
      <trkpt lat="49.51931" lon="5.87532">
        <ele>399.08</ele>
        <time>2012-09-22T12:45:02Z</time>
      </trkpt>
      <trkpt lat="49.5193" lon="5.87544">
        <ele>399.57</ele>
        <time>2012-09-22T12:45:08Z</time>
      </trkpt>
      <trkpt lat="49.51926" lon="5.87556">
        <ele>401.97</ele>
        <time>2012-09-22T12:45:14Z</time>
      </trkpt>
      <trkpt lat="49.51927" lon="5.87571">
        <ele>402.45</ele>
        <time>2012-09-22T12:45:20Z</time>
      </trkpt>
      <trkpt lat="49.51925" lon="5.87587">
        <ele>403.41</ele>
        <time>2012-09-22T12:45:25Z</time>
      </trkpt>
      <trkpt lat="49.51927" lon="5.87643">
        <ele>403.89</ele>
        <time>2012-09-22T12:45:37Z</time>
      </trkpt>
      <trkpt lat="49.51921" lon="5.87664">
        <ele>403.89</ele>
        <time>2012-09-22T12:45:42Z</time>
      </trkpt>
      <trkpt lat="49.51916" lon="5.87675">
        <ele>402.45</ele>
        <time>2012-09-22T12:45:44Z</time>
      </trkpt>
      <trkpt lat="49.519" lon="5.8769">
        <ele>397.16</ele>
        <time>2012-09-22T12:45:47Z</time>
      </trkpt>
      <trkpt lat="49.51868" lon="5.87703">
        <ele>392.84</ele>
        <time>2012-09-22T12:45:51Z</time>
      </trkpt>
      <trkpt lat="49.51811" lon="5.877">
        <ele>389.47</ele>
        <time>2012-09-22T12:45:57Z</time>
      </trkpt>
      <trkpt lat="49.51695" lon="5.87619">
        <ele>389.47</ele>
        <time>2012-09-22T12:46:09Z</time>
      </trkpt>
      <trkpt lat="49.51611" lon="5.87542">
        <ele>391.39</ele>
        <time>2012-09-22T12:46:22Z</time>
      </trkpt>
      <trkpt lat="49.51561" lon="5.87458">
        <ele>387.07</ele>
        <time>2012-09-22T12:46:32Z</time>
      </trkpt>
      <trkpt lat="49.51513" lon="5.87389">
        <ele>388.99</ele>
        <time>2012-09-22T12:46:40Z</time>
      </trkpt>
      <trkpt lat="49.51457" lon="5.87322">
        <ele>389.47</ele>
        <time>2012-09-22T12:46:52Z</time>
      </trkpt>
      <trkpt lat="49.51453" lon="5.87317">
        <ele>389.47</ele>
        <time>2012-09-22T12:46:53Z</time>
      </trkpt>
      <trkpt lat="49.51431" lon="5.87292">
        <ele>388.03</ele>
        <time>2012-09-22T12:46:59Z</time>
      </trkpt>
      <trkpt lat="49.5142" lon="5.87271">
        <ele>388.51</ele>
        <time>2012-09-22T12:47:04Z</time>
      </trkpt>
      <trkpt lat="49.51412" lon="5.87267">
        <ele>387.55</ele>
        <time>2012-09-22T12:47:08Z</time>
      </trkpt>
      <trkpt lat="49.5141" lon="5.87271">
        <ele>387.07</ele>
        <time>2012-09-22T12:47:11Z</time>
      </trkpt>
      <trkpt lat="49.51412" lon="5.87298">
        <ele>384.66</ele>
        <time>2012-09-22T12:47:16Z</time>
      </trkpt>
      <trkpt lat="49.51414" lon="5.87321">
        <ele>382.26</ele>
        <time>2012-09-22T12:47:20Z</time>
      </trkpt>
      <trkpt lat="49.51413" lon="5.87334">
        <ele>381.3</ele>
        <time>2012-09-22T12:47:22Z</time>
      </trkpt>
      <trkpt lat="49.51413" lon="5.87346">
        <ele>380.34</ele>
        <time>2012-09-22T12:47:24Z</time>
      </trkpt>
      <trkpt lat="49.51414" lon="5.87357">
        <ele>377.94</ele>
        <time>2012-09-22T12:47:26Z</time>
      </trkpt>
      <trkpt lat="49.51418" lon="5.87368">
        <ele>375.05</ele>
        <time>2012-09-22T12:47:28Z</time>
      </trkpt>
      <trkpt lat="49.51427" lon="5.87384">
        <ele>373.61</ele>
        <time>2012-09-22T12:47:31Z</time>
      </trkpt>
      <trkpt lat="49.51433" lon="5.87396">
        <ele>370.73</ele>
        <time>2012-09-22T12:47:33Z</time>
      </trkpt>
      <trkpt lat="49.51441" lon="5.87423">
        <ele>367.36</ele>
        <time>2012-09-22T12:47:37Z</time>
      </trkpt>
      <trkpt lat="49.51444" lon="5.87439">
        <ele>365.44</ele>
        <time>2012-09-22T12:47:39Z</time>
      </trkpt>
      <trkpt lat="49.51449" lon="5.8747">
        <ele>361.11</ele>
        <time>2012-09-22T12:47:43Z</time>
      </trkpt>
      <trkpt lat="49.51461" lon="5.87546">
        <ele>357.75</ele>
        <time>2012-09-22T12:47:48Z</time>
      </trkpt>
      <trkpt lat="49.51476" lon="5.87597">
        <ele>354.38</ele>
        <time>2012-09-22T12:47:51Z</time>
      </trkpt>
      <trkpt lat="49.51485" lon="5.87627">
        <ele>353.42</ele>
        <time>2012-09-22T12:47:53Z</time>
      </trkpt>
      <trkpt lat="49.5151" lon="5.87695">
        <ele>349.58</ele>
        <time>2012-09-22T12:47:59Z</time>
      </trkpt>
      <trkpt lat="49.51514" lon="5.87702">
        <ele>350.06</ele>
        <time>2012-09-22T12:48:00Z</time>
      </trkpt>
      <trkpt lat="49.5152" lon="5.87713">
        <ele>349.1</ele>
        <time>2012-09-22T12:48:02Z</time>
      </trkpt>
      <trkpt lat="49.51524" lon="5.8772">
        <ele>350.06</ele>
        <time>2012-09-22T12:48:04Z</time>
      </trkpt>
      <trkpt lat="49.51515" lon="5.87721">
        <ele>352.46</ele>
        <time>2012-09-22T12:48:15Z</time>
      </trkpt>
      <trkpt lat="49.515" lon="5.87736">
        <ele>353.42</ele>
        <time>2012-09-22T12:48:23Z</time>
      </trkpt>
      <trkpt lat="49.51511" lon="5.87768">
        <ele>353.42</ele>
        <time>2012-09-22T12:48:28Z</time>
      </trkpt>
      <trkpt lat="49.51532" lon="5.87812">
        <ele>352.94</ele>
        <time>2012-09-22T12:48:34Z</time>
      </trkpt>
      <trkpt lat="49.51524" lon="5.87821">
        <ele>355.83</ele>
        <time>2012-09-22T12:48:38Z</time>
      </trkpt>
      <trkpt lat="49.51506" lon="5.8786">
        <ele>358.23</ele>
        <time>2012-09-22T12:48:50Z</time>
      </trkpt>
      <trkpt lat="49.51504" lon="5.87878">
        <ele>358.71</ele>
        <time>2012-09-22T12:48:55Z</time>
      </trkpt>
      <trkpt lat="49.51506" lon="5.87905">
        <ele>362.07</ele>
        <time>2012-09-22T12:49:02Z</time>
      </trkpt>
      <trkpt lat="49.51502" lon="5.87944">
        <ele>364.96</ele>
        <time>2012-09-22T12:49:13Z</time>
      </trkpt>
      <trkpt lat="49.51499" lon="5.87975">
        <ele>366.4</ele>
        <time>2012-09-22T12:49:21Z</time>
      </trkpt>
      <trkpt lat="49.51503" lon="5.87986">
        <ele>365.44</ele>
        <time>2012-09-22T12:49:26Z</time>
      </trkpt>
      <trkpt lat="49.51513" lon="5.88003">
        <ele>367.36</ele>
        <time>2012-09-22T12:49:31Z</time>
      </trkpt>
      <trkpt lat="49.51547" lon="5.88064">
        <ele>366.4</ele>
        <time>2012-09-22T12:49:44Z</time>
      </trkpt>
      <trkpt lat="49.51589" lon="5.88098">
        <ele>365.44</ele>
        <time>2012-09-22T12:49:55Z</time>
      </trkpt>
      <trkpt lat="49.516" lon="5.88101">
        <ele>365.92</ele>
        <time>2012-09-22T12:49:58Z</time>
      </trkpt>
      <trkpt lat="49.51667" lon="5.88138">
        <ele>364</ele>
        <time>2012-09-22T12:50:12Z</time>
      </trkpt>
      <trkpt lat="49.51697" lon="5.88125">
        <ele>363.52</ele>
        <time>2012-09-22T12:50:18Z</time>
      </trkpt>
      <trkpt lat="49.51716" lon="5.88123">
        <ele>362.07</ele>
        <time>2012-09-22T12:50:26Z</time>
      </trkpt>
      <trkpt lat="49.51734" lon="5.88137">
        <ele>361.11</ele>
        <time>2012-09-22T12:50:33Z</time>
      </trkpt>
      <trkpt lat="49.51763" lon="5.88207">
        <ele>363.04</ele>
        <time>2012-09-22T12:50:46Z</time>
      </trkpt>
      <trkpt lat="49.51794" lon="5.88257">
        <ele>364</ele>
        <time>2012-09-22T12:50:57Z</time>
      </trkpt>
      <trkpt lat="49.51797" lon="5.88261">
        <ele>364</ele>
        <time>2012-09-22T12:50:58Z</time>
      </trkpt>
      <trkpt lat="49.51805" lon="5.88269">
        <ele>365.44</ele>
        <time>2012-09-22T12:51:00Z</time>
      </trkpt>
      <trkpt lat="49.51813" lon="5.88278">
        <ele>363.04</ele>
        <time>2012-09-22T12:51:02Z</time>
      </trkpt>
      <trkpt lat="49.51841" lon="5.8831">
        <ele>363.52</ele>
        <time>2012-09-22T12:51:11Z</time>
      </trkpt>
      <trkpt lat="49.51843" lon="5.88332">
        <ele>364</ele>
        <time>2012-09-22T12:51:22Z</time>
      </trkpt>
      <trkpt lat="49.51844" lon="5.88336">
        <ele>365.92</ele>
        <time>2012-09-22T12:51:24Z</time>
      </trkpt>
      <trkpt lat="49.51861" lon="5.88361">
        <ele>363.52</ele>
        <time>2012-09-22T12:51:33Z</time>
      </trkpt>
      <trkpt lat="49.51882" lon="5.88376">
        <ele>364</ele>
        <time>2012-09-22T12:51:40Z</time>
      </trkpt>
      <trkpt lat="49.51893" lon="5.88368">
        <ele>362.55</ele>
        <time>2012-09-22T12:51:46Z</time>
      </trkpt>
      <trkpt lat="49.51897" lon="5.8837">
        <ele>361.11</ele>
        <time>2012-09-22T12:51:48Z</time>
      </trkpt>
      <trkpt lat="49.51901" lon="5.88374">
        <ele>362.55</ele>
        <time>2012-09-22T12:51:50Z</time>
      </trkpt>
      <trkpt lat="49.51935" lon="5.88406">
        <ele>363.52</ele>
        <time>2012-09-22T12:52:00Z</time>
      </trkpt>
      <trkpt lat="49.51953" lon="5.88426">
        <ele>364</ele>
        <time>2012-09-22T12:52:07Z</time>
      </trkpt>
      <trkpt lat="49.51957" lon="5.88432">
        <ele>363.52</ele>
        <time>2012-09-22T12:52:09Z</time>
      </trkpt>
      <trkpt lat="49.5196" lon="5.88443">
        <ele>365.92</ele>
        <time>2012-09-22T12:52:12Z</time>
      </trkpt>
      <trkpt lat="49.51968" lon="5.88458">
        <ele>367.84</ele>
        <time>2012-09-22T12:52:17Z</time>
      </trkpt>
      <trkpt lat="49.51973" lon="5.88514">
        <ele>368.8</ele>
        <time>2012-09-22T12:52:24Z</time>
      </trkpt>
      <trkpt lat="49.51966" lon="5.88532">
        <ele>367.84</ele>
        <time>2012-09-22T12:52:27Z</time>
      </trkpt>
      <trkpt lat="49.51924" lon="5.88542">
        <ele>368.8</ele>
        <time>2012-09-22T12:52:38Z</time>
      </trkpt>
      <trkpt lat="49.51903" lon="5.88532">
        <ele>370.24</ele>
        <time>2012-09-22T12:52:44Z</time>
      </trkpt>
      <trkpt lat="49.51873" lon="5.88517">
        <ele>370.73</ele>
        <time>2012-09-22T12:52:54Z</time>
      </trkpt>
      <trkpt lat="49.51838" lon="5.88501">
        <ele>373.13</ele>
        <time>2012-09-22T12:53:05Z</time>
      </trkpt>
      <trkpt lat="49.51794" lon="5.88476">
        <ele>376.01</ele>
        <time>2012-09-22T12:53:18Z</time>
      </trkpt>
      <trkpt lat="49.5175" lon="5.8846">
        <ele>376.97</ele>
        <time>2012-09-22T12:53:30Z</time>
      </trkpt>
      <trkpt lat="49.51712" lon="5.88454">
        <ele>376.49</ele>
        <time>2012-09-22T12:53:40Z</time>
      </trkpt>
      <trkpt lat="49.51684" lon="5.88454">
        <ele>378.42</ele>
        <time>2012-09-22T12:53:50Z</time>
      </trkpt>
      <trkpt lat="49.51638" lon="5.88445">
        <ele>378.9</ele>
        <time>2012-09-22T12:54:02Z</time>
      </trkpt>
      <trkpt lat="49.51623" lon="5.88443">
        <ele>379.86</ele>
        <time>2012-09-22T12:54:05Z</time>
      </trkpt>
      <trkpt lat="49.51576" lon="5.88441">
        <ele>382.74</ele>
        <time>2012-09-22T12:54:18Z</time>
      </trkpt>
      <trkpt lat="49.51535" lon="5.88425">
        <ele>383.22</ele>
        <time>2012-09-22T12:54:28Z</time>
      </trkpt>
      <trkpt lat="49.51531" lon="5.88422">
        <ele>384.66</ele>
        <time>2012-09-22T12:54:30Z</time>
      </trkpt>
      <trkpt lat="49.51511" lon="5.88419">
        <ele>387.55</ele>
        <time>2012-09-22T12:54:43Z</time>
      </trkpt>
      <trkpt lat="49.515" lon="5.88417">
        <ele>388.51</ele>
        <time>2012-09-22T12:54:47Z</time>
      </trkpt>
      <trkpt lat="49.51487" lon="5.88418">
        <ele>389.95</ele>
        <time>2012-09-22T12:54:52Z</time>
      </trkpt>
      <trkpt lat="49.51455" lon="5.88411">
        <ele>392.36</ele>
        <time>2012-09-22T12:55:07Z</time>
      </trkpt>
      <trkpt lat="49.51427" lon="5.88409">
        <ele>394.76</ele>
        <time>2012-09-22T12:55:22Z</time>
      </trkpt>
      <trkpt lat="49.51412" lon="5.8841">
        <ele>395.24</ele>
        <time>2012-09-22T12:55:29Z</time>
      </trkpt>
      <trkpt lat="49.51394" lon="5.88416">
        <ele>397.64</ele>
        <time>2012-09-22T12:55:39Z</time>
      </trkpt>
      <trkpt lat="49.51389" lon="5.88415">
        <ele>398.12</ele>
        <time>2012-09-22T12:55:41Z</time>
      </trkpt>
      <trkpt lat="49.51383" lon="5.88381">
        <ele>398.12</ele>
        <time>2012-09-22T12:55:51Z</time>
      </trkpt>
      <trkpt lat="49.51382" lon="5.88374">
        <ele>396.68</ele>
        <time>2012-09-22T12:55:53Z</time>
      </trkpt>
      <trkpt lat="49.51377" lon="5.88336">
        <ele>395.72</ele>
        <time>2012-09-22T12:56:00Z</time>
      </trkpt>
      <trkpt lat="49.51381" lon="5.88301">
        <ele>392.36</ele>
        <time>2012-09-22T12:56:05Z</time>
      </trkpt>
      <trkpt lat="49.51382" lon="5.88295">
        <ele>390.91</ele>
        <time>2012-09-22T12:56:06Z</time>
      </trkpt>
      <trkpt lat="49.51385" lon="5.88277">
        <ele>391.39</ele>
        <time>2012-09-22T12:56:09Z</time>
      </trkpt>
      <trkpt lat="49.5139" lon="5.88252">
        <ele>388.99</ele>
        <time>2012-09-22T12:56:13Z</time>
      </trkpt>
      <trkpt lat="49.51391" lon="5.8825">
        <ele>388.03</ele>
        <time>2012-09-22T12:56:14Z</time>
      </trkpt>
      <trkpt lat="49.5139" lon="5.88247">
        <ele>388.03</ele>
        <time>2012-09-22T12:56:16Z</time>
      </trkpt>
      <trkpt lat="49.51398" lon="5.8822">
        <ele>385.63</ele>
        <time>2012-09-22T12:56:22Z</time>
      </trkpt>
      <trkpt lat="49.51412" lon="5.88212">
        <ele>384.66</ele>
        <time>2012-09-22T12:56:25Z</time>
      </trkpt>
      <trkpt lat="49.51423" lon="5.88205">
        <ele>384.66</ele>
        <time>2012-09-22T12:56:27Z</time>
      </trkpt>
      <trkpt lat="49.51433" lon="5.88196">
        <ele>382.74</ele>
        <time>2012-09-22T12:56:29Z</time>
      </trkpt>
      <trkpt lat="49.51451" lon="5.88169">
        <ele>379.86</ele>
        <time>2012-09-22T12:56:33Z</time>
      </trkpt>
      <trkpt lat="49.51459" lon="5.88122">
        <ele>377.45</ele>
        <time>2012-09-22T12:56:37Z</time>
      </trkpt>
      <trkpt lat="49.51462" lon="5.88073">
        <ele>375.05</ele>
        <time>2012-09-22T12:56:42Z</time>
      </trkpt>
      <trkpt lat="49.51462" lon="5.88064">
        <ele>375.05</ele>
        <time>2012-09-22T12:56:43Z</time>
      </trkpt>
      <trkpt lat="49.51469" lon="5.88034">
        <ele>370.73</ele>
        <time>2012-09-22T12:56:47Z</time>
      </trkpt>
      <trkpt lat="49.51471" lon="5.8802">
        <ele>371.21</ele>
        <time>2012-09-22T12:56:49Z</time>
      </trkpt>
      <trkpt lat="49.51466" lon="5.88011">
        <ele>370.24</ele>
        <time>2012-09-22T12:56:53Z</time>
      </trkpt>
      <trkpt lat="49.51448" lon="5.88031">
        <ele>372.65</ele>
        <time>2012-09-22T12:57:03Z</time>
      </trkpt>
      <trkpt lat="49.51447" lon="5.88034">
        <ele>372.17</ele>
        <time>2012-09-22T12:57:04Z</time>
      </trkpt>
      <trkpt lat="49.51443" lon="5.88041">
        <ele>372.65</ele>
        <time>2012-09-22T12:57:16Z</time>
      </trkpt>
      <trkpt lat="49.51432" lon="5.88054">
        <ele>371.69</ele>
        <time>2012-09-22T12:57:49Z</time>
      </trkpt>
      <trkpt lat="49.51407" lon="5.88108">
        <ele>375.05</ele>
        <time>2012-09-22T12:58:04Z</time>
      </trkpt>
      <trkpt lat="49.51387" lon="5.88154">
        <ele>376.49</ele>
        <time>2012-09-22T12:58:17Z</time>
      </trkpt>
      <trkpt lat="49.51367" lon="5.88175">
        <ele>377.45</ele>
        <time>2012-09-22T12:58:28Z</time>
      </trkpt>
      <trkpt lat="49.51365" lon="5.88177">
        <ele>376.97</ele>
        <time>2012-09-22T12:58:29Z</time>
      </trkpt>
      <trkpt lat="49.5136" lon="5.88181">
        <ele>378.9</ele>
        <time>2012-09-22T12:58:31Z</time>
      </trkpt>
      <trkpt lat="49.51346" lon="5.88205">
        <ele>379.86</ele>
        <time>2012-09-22T12:58:39Z</time>
      </trkpt>
      <trkpt lat="49.5133" lon="5.88236">
        <ele>382.74</ele>
        <time>2012-09-22T12:58:51Z</time>
      </trkpt>
      <trkpt lat="49.51318" lon="5.88267">
        <ele>384.18</ele>
        <time>2012-09-22T12:59:01Z</time>
      </trkpt>
      <trkpt lat="49.51306" lon="5.8829">
        <ele>387.55</ele>
        <time>2012-09-22T12:59:09Z</time>
      </trkpt>
      <trkpt lat="49.51294" lon="5.88298">
        <ele>388.51</ele>
        <time>2012-09-22T12:59:14Z</time>
      </trkpt>
      <trkpt lat="49.51259" lon="5.88303">
        <ele>390.43</ele>
        <time>2012-09-22T12:59:26Z</time>
      </trkpt>
      <trkpt lat="49.51226" lon="5.88325">
        <ele>391.39</ele>
        <time>2012-09-22T12:59:39Z</time>
      </trkpt>
      <trkpt lat="49.51193" lon="5.88362">
        <ele>391.87</ele>
        <time>2012-09-22T12:59:50Z</time>
      </trkpt>
      <trkpt lat="49.51187" lon="5.88372">
        <ele>390.91</ele>
        <time>2012-09-22T12:59:53Z</time>
      </trkpt>
      <trkpt lat="49.51151" lon="5.88398">
        <ele>392.36</ele>
        <time>2012-09-22T13:00:04Z</time>
      </trkpt>
      <trkpt lat="49.5113" lon="5.88413">
        <ele>392.36</ele>
        <time>2012-09-22T13:00:11Z</time>
      </trkpt>
      <trkpt lat="49.511" lon="5.8843">
        <ele>391.87</ele>
        <time>2012-09-22T13:00:18Z</time>
      </trkpt>
      <trkpt lat="49.51083" lon="5.88443">
        <ele>391.39</ele>
        <time>2012-09-22T13:00:22Z</time>
      </trkpt>
      <trkpt lat="49.51066" lon="5.88455">
        <ele>390.91</ele>
        <time>2012-09-22T13:00:26Z</time>
      </trkpt>
      <trkpt lat="49.51062" lon="5.88459">
        <ele>392.84</ele>
        <time>2012-09-22T13:00:27Z</time>
      </trkpt>
      <trkpt lat="49.51055" lon="5.88465">
        <ele>391.39</ele>
        <time>2012-09-22T13:00:29Z</time>
      </trkpt>
      <trkpt lat="49.50989" lon="5.88497">
        <ele>389.47</ele>
        <time>2012-09-22T13:00:42Z</time>
      </trkpt>
      <trkpt lat="49.50979" lon="5.88501">
        <ele>389.47</ele>
        <time>2012-09-22T13:00:44Z</time>
      </trkpt>
      <trkpt lat="49.50916" lon="5.88495">
        <ele>387.55</ele>
        <time>2012-09-22T13:00:55Z</time>
      </trkpt>
      <trkpt lat="49.509" lon="5.88492">
        <ele>388.51</ele>
        <time>2012-09-22T13:00:58Z</time>
      </trkpt>
      <trkpt lat="49.50889" lon="5.88489">
        <ele>387.55</ele>
        <time>2012-09-22T13:01:00Z</time>
      </trkpt>
      <trkpt lat="49.5086" lon="5.88475">
        <ele>388.51</ele>
        <time>2012-09-22T13:01:05Z</time>
      </trkpt>
      <trkpt lat="49.50845" lon="5.8847">
        <ele>388.51</ele>
        <time>2012-09-22T13:01:08Z</time>
      </trkpt>
      <trkpt lat="49.50801" lon="5.88455">
        <ele>387.55</ele>
        <time>2012-09-22T13:01:17Z</time>
      </trkpt>
      <trkpt lat="49.50735" lon="5.88451">
        <ele>388.03</ele>
        <time>2012-09-22T13:01:29Z</time>
      </trkpt>
      <trkpt lat="49.50718" lon="5.88451">
        <ele>388.99</ele>
        <time>2012-09-22T13:01:33Z</time>
      </trkpt>
      <trkpt lat="49.50709" lon="5.88454">
        <ele>389.47</ele>
        <time>2012-09-22T13:01:35Z</time>
      </trkpt>
      <trkpt lat="49.50679" lon="5.88474">
        <ele>389.47</ele>
        <time>2012-09-22T13:01:43Z</time>
      </trkpt>
      <trkpt lat="49.50669" lon="5.88473">
        <ele>390.91</ele>
        <time>2012-09-22T13:01:52Z</time>
      </trkpt>
      <trkpt lat="49.50669" lon="5.88472">
        <ele>391.39</ele>
        <time>2012-09-22T13:01:54Z</time>
      </trkpt>
      <trkpt lat="49.50662" lon="5.88476">
        <ele>389.95</ele>
        <time>2012-09-22T13:01:58Z</time>
      </trkpt>
      <trkpt lat="49.50655" lon="5.88483">
        <ele>388.99</ele>
        <time>2012-09-22T13:02:05Z</time>
      </trkpt>
      <trkpt lat="49.50656" lon="5.88486">
        <ele>389.95</ele>
        <time>2012-09-22T13:02:07Z</time>
      </trkpt>
      <trkpt lat="49.50663" lon="5.88479">
        <ele>389.95</ele>
        <time>2012-09-22T13:02:13Z</time>
      </trkpt>
      <trkpt lat="49.5067" lon="5.88473">
        <ele>390.91</ele>
        <time>2012-09-22T13:02:18Z</time>
      </trkpt>
      <trkpt lat="49.50672" lon="5.88473">
        <ele>390.91</ele>
        <time>2012-09-22T13:02:34Z</time>
      </trkpt>
      <trkpt lat="49.50673" lon="5.88478">
        <ele>390.91</ele>
        <time>2012-09-22T13:02:46Z</time>
      </trkpt>
      <trkpt lat="49.50676" lon="5.88481">
        <ele>389.47</ele>
        <time>2012-09-22T13:02:59Z</time>
      </trkpt>
      <trkpt lat="49.50676" lon="5.88481">
        <ele>388.51</ele>
        <time>2012-09-22T13:03:01Z</time>
      </trkpt>
      <trkpt lat="49.50678" lon="5.88487">
        <ele>386.11</ele>
        <time>2012-09-22T13:03:04Z</time>
      </trkpt>
      <trkpt lat="49.50685" lon="5.885">
        <ele>385.15</ele>
        <time>2012-09-22T13:03:12Z</time>
      </trkpt>
      <trkpt lat="49.50652" lon="5.88529">
        <ele>385.63</ele>
        <time>2012-09-22T13:03:24Z</time>
      </trkpt>
      <trkpt lat="49.50621" lon="5.88556">
        <ele>387.07</ele>
        <time>2012-09-22T13:03:34Z</time>
      </trkpt>
      <trkpt lat="49.50611" lon="5.88573">
        <ele>387.07</ele>
        <time>2012-09-22T13:03:38Z</time>
      </trkpt>
      <trkpt lat="49.50616" lon="5.88588">
        <ele>386.11</ele>
        <time>2012-09-22T13:03:42Z</time>
      </trkpt>
      <trkpt lat="49.50625" lon="5.88588">
        <ele>381.3</ele>
        <time>2012-09-22T13:03:47Z</time>
      </trkpt>
      <trkpt lat="49.50628" lon="5.88588">
        <ele>381.3</ele>
        <time>2012-09-22T13:03:48Z</time>
      </trkpt>
      <trkpt lat="49.50638" lon="5.88583">
        <ele>376.49</ele>
        <time>2012-09-22T13:03:52Z</time>
      </trkpt>
      <trkpt lat="49.50649" lon="5.8858">
        <ele>375.53</ele>
        <time>2012-09-22T13:03:55Z</time>
      </trkpt>
      <trkpt lat="49.50652" lon="5.88578">
        <ele>374.57</ele>
        <time>2012-09-22T13:03:56Z</time>
      </trkpt>
      <trkpt lat="49.50655" lon="5.88591">
        <ele>373.61</ele>
        <time>2012-09-22T13:04:01Z</time>
      </trkpt>
      <trkpt lat="49.50636" lon="5.88614">
        <ele>374.09</ele>
        <time>2012-09-22T13:04:09Z</time>
      </trkpt>
      <trkpt lat="49.50625" lon="5.88641">
        <ele>374.09</ele>
        <time>2012-09-22T13:04:14Z</time>
      </trkpt>
      <trkpt lat="49.50617" lon="5.88654">
        <ele>374.57</ele>
        <time>2012-09-22T13:04:17Z</time>
      </trkpt>
      <trkpt lat="49.50615" lon="5.88656">
        <ele>373.61</ele>
        <time>2012-09-22T13:04:18Z</time>
      </trkpt>
      <trkpt lat="49.50621" lon="5.8866">
        <ele>375.05</ele>
        <time>2012-09-22T13:04:20Z</time>
      </trkpt>
      <trkpt lat="49.5063" lon="5.88651">
        <ele>374.09</ele>
        <time>2012-09-22T13:04:23Z</time>
      </trkpt>
      <trkpt lat="49.5064" lon="5.88655">
        <ele>374.57</ele>
        <time>2012-09-22T13:04:26Z</time>
      </trkpt>
      <trkpt lat="49.50657" lon="5.8868">
        <ele>374.09</ele>
        <time>2012-09-22T13:04:31Z</time>
      </trkpt>
      <trkpt lat="49.50664" lon="5.88703">
        <ele>372.17</ele>
        <time>2012-09-22T13:04:34Z</time>
      </trkpt>
      <trkpt lat="49.50653" lon="5.88726">
        <ele>372.17</ele>
        <time>2012-09-22T13:04:38Z</time>
      </trkpt>
      <trkpt lat="49.50631" lon="5.8876">
        <ele>374.09</ele>
        <time>2012-09-22T13:04:44Z</time>
      </trkpt>
      <trkpt lat="49.50637" lon="5.88779">
        <ele>375.53</ele>
        <time>2012-09-22T13:04:48Z</time>
      </trkpt>
      <trkpt lat="49.50645" lon="5.88823">
        <ele>378.42</ele>
        <time>2012-09-22T13:04:56Z</time>
      </trkpt>
      <trkpt lat="49.50647" lon="5.88844">
        <ele>377.45</ele>
        <time>2012-09-22T13:04:59Z</time>
      </trkpt>
      <trkpt lat="49.50653" lon="5.8887">
        <ele>377.94</ele>
        <time>2012-09-22T13:05:03Z</time>
      </trkpt>
      <trkpt lat="49.50658" lon="5.88889">
        <ele>378.9</ele>
        <time>2012-09-22T13:05:06Z</time>
      </trkpt>
      <trkpt lat="49.50653" lon="5.88935">
        <ele>378.9</ele>
        <time>2012-09-22T13:05:12Z</time>
      </trkpt>
      <trkpt lat="49.50638" lon="5.88959">
        <ele>379.38</ele>
        <time>2012-09-22T13:05:16Z</time>
      </trkpt>
      <trkpt lat="49.50604" lon="5.88998">
        <ele>378.42</ele>
        <time>2012-09-22T13:05:24Z</time>
      </trkpt>
      <trkpt lat="49.50584" lon="5.89026">
        <ele>379.38</ele>
        <time>2012-09-22T13:05:29Z</time>
      </trkpt>
      <trkpt lat="49.50569" lon="5.89048">
        <ele>379.86</ele>
        <time>2012-09-22T13:05:33Z</time>
      </trkpt>
      <trkpt lat="49.50554" lon="5.89089">
        <ele>379.86</ele>
        <time>2012-09-22T13:05:39Z</time>
      </trkpt>
      <trkpt lat="49.50547" lon="5.89119">
        <ele>379.38</ele>
        <time>2012-09-22T13:05:45Z</time>
      </trkpt>
      <trkpt lat="49.50559" lon="5.89152">
        <ele>374.57</ele>
        <time>2012-09-22T13:05:50Z</time>
      </trkpt>
      <trkpt lat="49.50573" lon="5.89186">
        <ele>371.21</ele>
        <time>2012-09-22T13:05:54Z</time>
      </trkpt>
      <trkpt lat="49.50581" lon="5.89207">
        <ele>369.28</ele>
        <time>2012-09-22T13:05:57Z</time>
      </trkpt>
      <trkpt lat="49.5058" lon="5.89217">
        <ele>367.36</ele>
        <time>2012-09-22T13:05:59Z</time>
      </trkpt>
      <trkpt lat="49.50569" lon="5.89221">
        <ele>366.4</ele>
        <time>2012-09-22T13:06:03Z</time>
      </trkpt>
      <trkpt lat="49.50544" lon="5.89211">
        <ele>365.44</ele>
        <time>2012-09-22T13:06:11Z</time>
      </trkpt>
      <trkpt lat="49.50519" lon="5.89248">
        <ele>363.52</ele>
        <time>2012-09-22T13:06:18Z</time>
      </trkpt>
      <trkpt lat="49.5051" lon="5.89271">
        <ele>362.55</ele>
        <time>2012-09-22T13:06:20Z</time>
      </trkpt>
      <trkpt lat="49.50496" lon="5.89295">
        <ele>358.71</ele>
        <time>2012-09-22T13:06:22Z</time>
      </trkpt>
      <trkpt lat="49.50489" lon="5.89306">
        <ele>359.19</ele>
        <time>2012-09-22T13:06:23Z</time>
      </trkpt>
      <trkpt lat="49.50445" lon="5.89358">
        <ele>356.79</ele>
        <time>2012-09-22T13:06:29Z</time>
      </trkpt>
      <trkpt lat="49.50432" lon="5.89371">
        <ele>355.83</ele>
        <time>2012-09-22T13:06:31Z</time>
      </trkpt>
      <trkpt lat="49.50399" lon="5.89403">
        <ele>356.31</ele>
        <time>2012-09-22T13:06:36Z</time>
      </trkpt>
      <trkpt lat="49.50354" lon="5.89466">
        <ele>357.27</ele>
        <time>2012-09-22T13:06:47Z</time>
      </trkpt>
      <trkpt lat="49.50342" lon="5.89531">
        <ele>360.63</ele>
        <time>2012-09-22T13:06:57Z</time>
      </trkpt>
      <trkpt lat="49.50323" lon="5.89594">
        <ele>362.55</ele>
        <time>2012-09-22T13:07:06Z</time>
      </trkpt>
      <trkpt lat="49.50307" lon="5.89632">
        <ele>364</ele>
        <time>2012-09-22T13:07:13Z</time>
      </trkpt>
      <trkpt lat="49.50271" lon="5.89649">
        <ele>365.92</ele>
        <time>2012-09-22T13:07:23Z</time>
      </trkpt>
      <trkpt lat="49.50252" lon="5.89652">
        <ele>367.84</ele>
        <time>2012-09-22T13:07:28Z</time>
      </trkpt>
      <trkpt lat="49.50245" lon="5.89654">
        <ele>367.36</ele>
        <time>2012-09-22T13:07:30Z</time>
      </trkpt>
      <trkpt lat="49.50229" lon="5.8966">
        <ele>369.76</ele>
        <time>2012-09-22T13:07:35Z</time>
      </trkpt>
      <trkpt lat="49.50223" lon="5.89662">
        <ele>368.8</ele>
        <time>2012-09-22T13:07:37Z</time>
      </trkpt>
      <trkpt lat="49.50205" lon="5.89664">
        <ele>372.17</ele>
        <time>2012-09-22T13:07:45Z</time>
      </trkpt>
      <trkpt lat="49.50196" lon="5.89671">
        <ele>372.65</ele>
        <time>2012-09-22T13:07:52Z</time>
      </trkpt>
      <trkpt lat="49.50194" lon="5.89674">
        <ele>373.61</ele>
        <time>2012-09-22T13:07:55Z</time>
      </trkpt>
      <trkpt lat="49.50181" lon="5.89685">
        <ele>375.53</ele>
        <time>2012-09-22T13:08:02Z</time>
      </trkpt>
      <trkpt lat="49.50179" lon="5.89687">
        <ele>376.01</ele>
        <time>2012-09-22T13:08:04Z</time>
      </trkpt>
      <trkpt lat="49.50175" lon="5.89695">
        <ele>377.45</ele>
        <time>2012-09-22T13:08:08Z</time>
      </trkpt>
      <trkpt lat="49.50174" lon="5.89703">
        <ele>377.45</ele>
        <time>2012-09-22T13:08:11Z</time>
      </trkpt>
      <trkpt lat="49.50167" lon="5.89737">
        <ele>378.42</ele>
        <time>2012-09-22T13:08:22Z</time>
      </trkpt>
      <trkpt lat="49.5018" lon="5.89781">
        <ele>379.86</ele>
        <time>2012-09-22T13:08:29Z</time>
      </trkpt>
      <trkpt lat="49.50187" lon="5.89812">
        <ele>381.78</ele>
        <time>2012-09-22T13:08:38Z</time>
      </trkpt>
      <trkpt lat="49.50188" lon="5.89819">
        <ele>380.82</ele>
        <time>2012-09-22T13:08:40Z</time>
      </trkpt>
      <trkpt lat="49.50194" lon="5.89832">
        <ele>381.78</ele>
        <time>2012-09-22T13:08:44Z</time>
      </trkpt>
      <trkpt lat="49.50196" lon="5.89836">
        <ele>383.22</ele>
        <time>2012-09-22T13:08:46Z</time>
      </trkpt>
      <trkpt lat="49.50209" lon="5.89864">
        <ele>386.59</ele>
        <time>2012-09-22T13:08:57Z</time>
      </trkpt>
      <trkpt lat="49.50229" lon="5.89892">
        <ele>387.55</ele>
        <time>2012-09-22T13:09:10Z</time>
      </trkpt>
      <trkpt lat="49.50253" lon="5.89933">
        <ele>387.55</ele>
        <time>2012-09-22T13:09:21Z</time>
      </trkpt>
      <trkpt lat="49.50255" lon="5.89936">
        <ele>388.03</ele>
        <time>2012-09-22T13:09:23Z</time>
      </trkpt>
      <trkpt lat="49.50262" lon="5.89943">
        <ele>384.66</ele>
        <time>2012-09-22T13:09:29Z</time>
      </trkpt>
      <trkpt lat="49.50264" lon="5.89944">
        <ele>383.7</ele>
        <time>2012-09-22T13:09:31Z</time>
      </trkpt>
      <trkpt lat="49.50273" lon="5.89947">
        <ele>380.82</ele>
        <time>2012-09-22T13:09:35Z</time>
      </trkpt>
      <trkpt lat="49.50275" lon="5.89947">
        <ele>380.34</ele>
        <time>2012-09-22T13:09:36Z</time>
      </trkpt>
      <trkpt lat="49.50281" lon="5.89942">
        <ele>377.45</ele>
        <time>2012-09-22T13:09:39Z</time>
      </trkpt>
      <trkpt lat="49.50283" lon="5.89939">
        <ele>376.49</ele>
        <time>2012-09-22T13:09:41Z</time>
      </trkpt>
      <trkpt lat="49.50291" lon="5.89936">
        <ele>373.13</ele>
        <time>2012-09-22T13:09:46Z</time>
      </trkpt>
      <trkpt lat="49.50297" lon="5.89938">
        <ele>370.73</ele>
        <time>2012-09-22T13:09:48Z</time>
      </trkpt>
      <trkpt lat="49.50306" lon="5.89938">
        <ele>364.96</ele>
        <time>2012-09-22T13:09:51Z</time>
      </trkpt>
      <trkpt lat="49.50314" lon="5.89931">
        <ele>363.04</ele>
        <time>2012-09-22T13:09:54Z</time>
      </trkpt>
      <trkpt lat="49.50324" lon="5.89925">
        <ele>357.27</ele>
        <time>2012-09-22T13:09:57Z</time>
      </trkpt>
      <trkpt lat="49.50333" lon="5.89922">
        <ele>356.31</ele>
        <time>2012-09-22T13:09:59Z</time>
      </trkpt>
      <trkpt lat="49.50349" lon="5.8992">
        <ele>351.5</ele>
        <time>2012-09-22T13:10:03Z</time>
      </trkpt>
      <trkpt lat="49.50353" lon="5.89919">
        <ele>351.5</ele>
        <time>2012-09-22T13:10:04Z</time>
      </trkpt>
      <trkpt lat="49.50361" lon="5.89919">
        <ele>351.02</ele>
        <time>2012-09-22T13:10:06Z</time>
      </trkpt>
      <trkpt lat="49.50375" lon="5.89922">
        <ele>349.1</ele>
        <time>2012-09-22T13:10:09Z</time>
      </trkpt>
      <trkpt lat="49.50385" lon="5.89928">
        <ele>349.58</ele>
        <time>2012-09-22T13:10:11Z</time>
      </trkpt>
      <trkpt lat="49.50394" lon="5.89936">
        <ele>348.13</ele>
        <time>2012-09-22T13:10:13Z</time>
      </trkpt>
      <trkpt lat="49.50401" lon="5.89945">
        <ele>350.54</ele>
        <time>2012-09-22T13:10:15Z</time>
      </trkpt>
      <trkpt lat="49.50404" lon="5.89961">
        <ele>351.02</ele>
        <time>2012-09-22T13:10:18Z</time>
      </trkpt>
      <trkpt lat="49.50387" lon="5.90031">
        <ele>350.06</ele>
        <time>2012-09-22T13:10:27Z</time>
      </trkpt>
      <trkpt lat="49.50383" lon="5.90088">
        <ele>349.1</ele>
        <time>2012-09-22T13:10:34Z</time>
      </trkpt>
      <trkpt lat="49.5041" lon="5.90099">
        <ele>347.65</ele>
        <time>2012-09-22T13:10:41Z</time>
      </trkpt>
      <trkpt lat="49.50494" lon="5.90101">
        <ele>345.25</ele>
        <time>2012-09-22T13:10:52Z</time>
      </trkpt>
      <trkpt lat="49.50535" lon="5.90028">
        <ele>342.85</ele>
        <time>2012-09-22T13:11:01Z</time>
      </trkpt>
      <trkpt lat="49.50539" lon="5.90017">
        <ele>341.41</ele>
        <time>2012-09-22T13:11:02Z</time>
      </trkpt>
      <trkpt lat="49.50572" lon="5.89922">
        <ele>339</ele>
        <time>2012-09-22T13:11:10Z</time>
      </trkpt>
      <trkpt lat="49.50606" lon="5.89831">
        <ele>338.04</ele>
        <time>2012-09-22T13:11:19Z</time>
      </trkpt>
      <trkpt lat="49.50644" lon="5.89802">
        <ele>339.96</ele>
        <time>2012-09-22T13:11:26Z</time>
      </trkpt>
      <trkpt lat="49.50738" lon="5.8983">
        <ele>337.08</ele>
        <time>2012-09-22T13:11:39Z</time>
      </trkpt>
      <trkpt lat="49.50767" lon="5.89842">
        <ele>336.6</ele>
        <time>2012-09-22T13:11:43Z</time>
      </trkpt>
      <trkpt lat="49.50791" lon="5.89892">
        <ele>339</ele>
        <time>2012-09-22T13:11:49Z</time>
      </trkpt>
      <trkpt lat="49.50799" lon="5.89967">
        <ele>341.89</ele>
        <time>2012-09-22T13:12:00Z</time>
      </trkpt>
      <trkpt lat="49.50807" lon="5.90005">
        <ele>343.33</ele>
        <time>2012-09-22T13:12:06Z</time>
      </trkpt>
      <trkpt lat="49.50813" lon="5.90036">
        <ele>343.33</ele>
        <time>2012-09-22T13:12:11Z</time>
      </trkpt>
      <trkpt lat="49.5082" lon="5.90087">
        <ele>340.92</ele>
        <time>2012-09-22T13:12:18Z</time>
      </trkpt>
      <trkpt lat="49.50816" lon="5.9012">
        <ele>343.81</ele>
        <time>2012-09-22T13:12:26Z</time>
      </trkpt>
      <trkpt lat="49.50809" lon="5.90145">
        <ele>347.17</ele>
        <time>2012-09-22T13:12:35Z</time>
      </trkpt>
      <trkpt lat="49.50808" lon="5.90151">
        <ele>346.69</ele>
        <time>2012-09-22T13:12:37Z</time>
      </trkpt>
      <trkpt lat="49.50807" lon="5.90162">
        <ele>347.65</ele>
        <time>2012-09-22T13:12:41Z</time>
      </trkpt>
      <trkpt lat="49.50801" lon="5.90184">
        <ele>350.06</ele>
        <time>2012-09-22T13:12:50Z</time>
      </trkpt>
      <trkpt lat="49.50787" lon="5.90217">
        <ele>351.5</ele>
        <time>2012-09-22T13:13:05Z</time>
      </trkpt>
      <trkpt lat="49.50772" lon="5.90243">
        <ele>353.9</ele>
        <time>2012-09-22T13:13:19Z</time>
      </trkpt>
      <trkpt lat="49.50754" lon="5.9026">
        <ele>357.75</ele>
        <time>2012-09-22T13:13:32Z</time>
      </trkpt>
      <trkpt lat="49.50748" lon="5.90264">
        <ele>358.23</ele>
        <time>2012-09-22T13:13:36Z</time>
      </trkpt>
      <trkpt lat="49.50739" lon="5.90271">
        <ele>361.11</ele>
        <time>2012-09-22T13:13:48Z</time>
      </trkpt>
      <trkpt lat="49.50733" lon="5.90275">
        <ele>361.59</ele>
        <time>2012-09-22T13:13:57Z</time>
      </trkpt>
      <trkpt lat="49.50726" lon="5.90277">
        <ele>364</ele>
        <time>2012-09-22T13:14:05Z</time>
      </trkpt>
      <trkpt lat="49.50718" lon="5.90276">
        <ele>365.44</ele>
        <time>2012-09-22T13:14:18Z</time>
      </trkpt>
      <trkpt lat="49.50713" lon="5.90279">
        <ele>367.36</ele>
        <time>2012-09-22T13:14:36Z</time>
      </trkpt>
      <trkpt lat="49.50712" lon="5.90285">
        <ele>367.84</ele>
        <time>2012-09-22T13:14:54Z</time>
      </trkpt>
      <trkpt lat="49.50707" lon="5.90289">
        <ele>371.21</ele>
        <time>2012-09-22T13:15:10Z</time>
      </trkpt>
      <trkpt lat="49.50706" lon="5.9029">
        <ele>370.73</ele>
        <time>2012-09-22T13:15:24Z</time>
      </trkpt>
      <trkpt lat="49.50704" lon="5.90296">
        <ele>372.17</ele>
        <time>2012-09-22T13:15:27Z</time>
      </trkpt>
      <trkpt lat="49.50704" lon="5.90297">
        <ele>371.21</ele>
        <time>2012-09-22T13:15:28Z</time>
      </trkpt>
      <trkpt lat="49.507" lon="5.90312">
        <ele>374.57</ele>
        <time>2012-09-22T13:15:39Z</time>
      </trkpt>
      <trkpt lat="49.50698" lon="5.90322">
        <ele>375.53</ele>
        <time>2012-09-22T13:15:55Z</time>
      </trkpt>
      <trkpt lat="49.50697" lon="5.90323">
        <ele>375.53</ele>
        <time>2012-09-22T13:16:05Z</time>
      </trkpt>
      <trkpt lat="49.50693" lon="5.90328">
        <ele>377.94</ele>
        <time>2012-09-22T13:16:10Z</time>
      </trkpt>
      <trkpt lat="49.50692" lon="5.90331">
        <ele>378.9</ele>
        <time>2012-09-22T13:16:12Z</time>
      </trkpt>
      <trkpt lat="49.50691" lon="5.90336">
        <ele>379.86</ele>
        <time>2012-09-22T13:16:14Z</time>
      </trkpt>
      <trkpt lat="49.50689" lon="5.90347">
        <ele>381.3</ele>
        <time>2012-09-22T13:16:20Z</time>
      </trkpt>
      <trkpt lat="49.50686" lon="5.90358">
        <ele>383.22</ele>
        <time>2012-09-22T13:16:31Z</time>
      </trkpt>
      <trkpt lat="49.50679" lon="5.90374">
        <ele>385.63</ele>
        <time>2012-09-22T13:16:43Z</time>
      </trkpt>
      <trkpt lat="49.50676" lon="5.90382">
        <ele>386.11</ele>
        <time>2012-09-22T13:16:47Z</time>
      </trkpt>
      <trkpt lat="49.50673" lon="5.90388">
        <ele>385.63</ele>
        <time>2012-09-22T13:16:50Z</time>
      </trkpt>
      <trkpt lat="49.50671" lon="5.90414">
        <ele>386.59</ele>
        <time>2012-09-22T13:16:59Z</time>
      </trkpt>
      <trkpt lat="49.50673" lon="5.90439">
        <ele>386.59</ele>
        <time>2012-09-22T13:17:05Z</time>
      </trkpt>
      <trkpt lat="49.50674" lon="5.90467">
        <ele>390.43</ele>
        <time>2012-09-22T13:17:12Z</time>
      </trkpt>
      <trkpt lat="49.50674" lon="5.9047">
        <ele>389.47</ele>
        <time>2012-09-22T13:17:14Z</time>
      </trkpt>
      <trkpt lat="49.50673" lon="5.90473">
        <ele>390.43</ele>
        <time>2012-09-22T13:17:16Z</time>
      </trkpt>
      <trkpt lat="49.50672" lon="5.90506">
        <ele>392.84</ele>
        <time>2012-09-22T13:17:27Z</time>
      </trkpt>
      <trkpt lat="49.50672" lon="5.90517">
        <ele>393.8</ele>
        <time>2012-09-22T13:17:32Z</time>
      </trkpt>
      <trkpt lat="49.50673" lon="5.90526">
        <ele>395.72</ele>
        <time>2012-09-22T13:17:35Z</time>
      </trkpt>
      <trkpt lat="49.50675" lon="5.90541">
        <ele>396.68</ele>
        <time>2012-09-22T13:17:40Z</time>
      </trkpt>
      <trkpt lat="49.50677" lon="5.90548">
        <ele>396.2</ele>
        <time>2012-09-22T13:17:42Z</time>
      </trkpt>
      <trkpt lat="49.50677" lon="5.90591">
        <ele>398.12</ele>
        <time>2012-09-22T13:17:52Z</time>
      </trkpt>
      <trkpt lat="49.50676" lon="5.90602">
        <ele>398.12</ele>
        <time>2012-09-22T13:17:55Z</time>
      </trkpt>
      <trkpt lat="49.50677" lon="5.90637">
        <ele>399.57</ele>
        <time>2012-09-22T13:18:05Z</time>
      </trkpt>
      <trkpt lat="49.50682" lon="5.90661">
        <ele>400.53</ele>
        <time>2012-09-22T13:18:11Z</time>
      </trkpt>
      <trkpt lat="49.50696" lon="5.907">
        <ele>400.53</ele>
        <time>2012-09-22T13:18:20Z</time>
      </trkpt>
      <trkpt lat="49.50711" lon="5.90741">
        <ele>401.49</ele>
        <time>2012-09-22T13:18:31Z</time>
      </trkpt>
      <trkpt lat="49.50731" lon="5.90786">
        <ele>401.49</ele>
        <time>2012-09-22T13:18:40Z</time>
      </trkpt>
      <trkpt lat="49.50746" lon="5.90812">
        <ele>401.49</ele>
        <time>2012-09-22T13:18:45Z</time>
      </trkpt>
      <trkpt lat="49.50755" lon="5.90827">
        <ele>400.05</ele>
        <time>2012-09-22T13:18:48Z</time>
      </trkpt>
      <trkpt lat="49.50757" lon="5.90833">
        <ele>400.53</ele>
        <time>2012-09-22T13:18:49Z</time>
      </trkpt>
      <trkpt lat="49.50758" lon="5.90861">
        <ele>398.6</ele>
        <time>2012-09-22T13:18:54Z</time>
      </trkpt>
      <trkpt lat="49.50757" lon="5.90864">
        <ele>398.12</ele>
        <time>2012-09-22T13:18:55Z</time>
      </trkpt>
      <trkpt lat="49.50746" lon="5.90876">
        <ele>397.16</ele>
        <time>2012-09-22T13:18:58Z</time>
      </trkpt>
      <trkpt lat="49.50708" lon="5.90897">
        <ele>397.16</ele>
        <time>2012-09-22T13:19:09Z</time>
      </trkpt>
      <trkpt lat="49.50685" lon="5.90892">
        <ele>396.68</ele>
        <time>2012-09-22T13:19:16Z</time>
      </trkpt>
      <trkpt lat="49.50682" lon="5.90896">
        <ele>396.68</ele>
        <time>2012-09-22T13:19:18Z</time>
      </trkpt>
      <trkpt lat="49.50672" lon="5.90906">
        <ele>398.12</ele>
        <time>2012-09-22T13:19:25Z</time>
      </trkpt>
      <trkpt lat="49.5065" lon="5.9091">
        <ele>397.16</ele>
        <time>2012-09-22T13:19:36Z</time>
      </trkpt>
      <trkpt lat="49.50643" lon="5.90909">
        <ele>398.12</ele>
        <time>2012-09-22T13:19:39Z</time>
      </trkpt>
      <trkpt lat="49.50619" lon="5.90944">
        <ele>396.68</ele>
        <time>2012-09-22T13:19:52Z</time>
      </trkpt>
      <trkpt lat="49.5059" lon="5.90983">
        <ele>396.68</ele>
        <time>2012-09-22T13:20:02Z</time>
      </trkpt>
      <trkpt lat="49.50563" lon="5.91014">
        <ele>397.64</ele>
        <time>2012-09-22T13:20:12Z</time>
      </trkpt>
      <trkpt lat="49.50562" lon="5.91022">
        <ele>399.08</ele>
        <time>2012-09-22T13:20:14Z</time>
      </trkpt>
      <trkpt lat="49.50555" lon="5.91038">
        <ele>401.49</ele>
        <time>2012-09-22T13:20:24Z</time>
      </trkpt>
      <trkpt lat="49.50552" lon="5.9104">
        <ele>401.97</ele>
        <time>2012-09-22T13:20:30Z</time>
      </trkpt>
      <trkpt lat="49.50544" lon="5.91037">
        <ele>401.97</ele>
        <time>2012-09-22T13:20:37Z</time>
      </trkpt>
      <trkpt lat="49.50541" lon="5.91041">
        <ele>402.93</ele>
        <time>2012-09-22T13:20:40Z</time>
      </trkpt>
      <trkpt lat="49.50544" lon="5.91051">
        <ele>404.85</ele>
        <time>2012-09-22T13:20:48Z</time>
      </trkpt>
      <trkpt lat="49.50553" lon="5.91055">
        <ele>407.74</ele>
        <time>2012-09-22T13:20:56Z</time>
      </trkpt>
      <trkpt lat="49.50554" lon="5.91057">
        <ele>407.26</ele>
        <time>2012-09-22T13:20:57Z</time>
      </trkpt>
      <trkpt lat="49.50557" lon="5.91058">
        <ele>406.29</ele>
        <time>2012-09-22T13:20:59Z</time>
      </trkpt>
      <trkpt lat="49.5058" lon="5.91051">
        <ele>408.7</ele>
        <time>2012-09-22T13:21:13Z</time>
      </trkpt>
      <trkpt lat="49.5059" lon="5.91047">
        <ele>411.58</ele>
        <time>2012-09-22T13:21:19Z</time>
      </trkpt>
      <trkpt lat="49.50604" lon="5.91042">
        <ele>410.62</ele>
        <time>2012-09-22T13:21:26Z</time>
      </trkpt>
      <trkpt lat="49.50625" lon="5.91063">
        <ele>410.14</ele>
        <time>2012-09-22T13:21:37Z</time>
      </trkpt>
      <trkpt lat="49.50649" lon="5.91128">
        <ele>411.1</ele>
        <time>2012-09-22T13:21:49Z</time>
      </trkpt>
      <trkpt lat="49.50665" lon="5.91143">
        <ele>411.58</ele>
        <time>2012-09-22T13:21:54Z</time>
      </trkpt>
      <trkpt lat="49.50661" lon="5.91164">
        <ele>408.22</ele>
        <time>2012-09-22T13:21:59Z</time>
      </trkpt>
      <trkpt lat="49.50647" lon="5.91175">
        <ele>403.89</ele>
        <time>2012-09-22T13:22:04Z</time>
      </trkpt>
      <trkpt lat="49.50647" lon="5.91179">
        <ele>404.37</ele>
        <time>2012-09-22T13:22:05Z</time>
      </trkpt>
      <trkpt lat="49.50662" lon="5.91188">
        <ele>404.37</ele>
        <time>2012-09-22T13:22:12Z</time>
      </trkpt>
      <trkpt lat="49.50671" lon="5.91192">
        <ele>402.93</ele>
        <time>2012-09-22T13:22:15Z</time>
      </trkpt>
      <trkpt lat="49.50675" lon="5.91192">
        <ele>401.97</ele>
        <time>2012-09-22T13:22:16Z</time>
      </trkpt>
      <trkpt lat="49.50705" lon="5.91185">
        <ele>403.41</ele>
        <time>2012-09-22T13:22:25Z</time>
      </trkpt>
      <trkpt lat="49.50724" lon="5.91187">
        <ele>403.89</ele>
        <time>2012-09-22T13:22:29Z</time>
      </trkpt>
      <trkpt lat="49.50766" lon="5.91204">
        <ele>403.89</ele>
        <time>2012-09-22T13:22:39Z</time>
      </trkpt>
      <trkpt lat="49.50775" lon="5.91228">
        <ele>404.85</ele>
        <time>2012-09-22T13:22:44Z</time>
      </trkpt>
      <trkpt lat="49.50784" lon="5.91271">
        <ele>405.33</ele>
        <time>2012-09-22T13:22:51Z</time>
      </trkpt>
      <trkpt lat="49.50793" lon="5.91286">
        <ele>405.33</ele>
        <time>2012-09-22T13:22:58Z</time>
      </trkpt>
      <trkpt lat="49.50801" lon="5.91307">
        <ele>404.85</ele>
        <time>2012-09-22T13:23:03Z</time>
      </trkpt>
      <trkpt lat="49.50808" lon="5.91317">
        <ele>405.81</ele>
        <time>2012-09-22T13:23:07Z</time>
      </trkpt>
      <trkpt lat="49.50827" lon="5.91343">
        <ele>403.89</ele>
        <time>2012-09-22T13:23:15Z</time>
      </trkpt>
      <trkpt lat="49.50867" lon="5.91381">
        <ele>402.45</ele>
        <time>2012-09-22T13:23:24Z</time>
      </trkpt>
      <trkpt lat="49.50884" lon="5.91381">
        <ele>400.05</ele>
        <time>2012-09-22T13:23:29Z</time>
      </trkpt>
      <trkpt lat="49.50901" lon="5.91383">
        <ele>399.57</ele>
        <time>2012-09-22T13:23:33Z</time>
      </trkpt>
      <trkpt lat="49.50928" lon="5.91392">
        <ele>398.6</ele>
        <time>2012-09-22T13:23:39Z</time>
      </trkpt>
      <trkpt lat="49.50946" lon="5.91412">
        <ele>402.93</ele>
        <time>2012-09-22T13:23:48Z</time>
      </trkpt>
      <trkpt lat="49.50948" lon="5.91414">
        <ele>402.45</ele>
        <time>2012-09-22T13:23:49Z</time>
      </trkpt>
      <trkpt lat="49.5096" lon="5.91423">
        <ele>406.29</ele>
        <time>2012-09-22T13:24:01Z</time>
      </trkpt>
      <trkpt lat="49.5097" lon="5.91433">
        <ele>407.74</ele>
        <time>2012-09-22T13:24:13Z</time>
      </trkpt>
      <trkpt lat="49.50991" lon="5.91441">
        <ele>407.26</ele>
        <time>2012-09-22T13:24:20Z</time>
      </trkpt>
      <trkpt lat="49.51001" lon="5.91447">
        <ele>403.41</ele>
        <time>2012-09-22T13:24:25Z</time>
      </trkpt>
      <trkpt lat="49.51001" lon="5.91472">
        <ele>402.45</ele>
        <time>2012-09-22T13:24:31Z</time>
      </trkpt>
      <trkpt lat="49.50994" lon="5.91494">
        <ele>403.41</ele>
        <time>2012-09-22T13:24:36Z</time>
      </trkpt>
      <trkpt lat="49.5099" lon="5.91502">
        <ele>403.89</ele>
        <time>2012-09-22T13:24:38Z</time>
      </trkpt>
      <trkpt lat="49.50995" lon="5.91529">
        <ele>401.97</ele>
        <time>2012-09-22T13:24:47Z</time>
      </trkpt>
      <trkpt lat="49.51007" lon="5.91532">
        <ele>402.45</ele>
        <time>2012-09-22T13:24:54Z</time>
      </trkpt>
      <trkpt lat="49.51019" lon="5.91523">
        <ele>404.85</ele>
        <time>2012-09-22T13:24:59Z</time>
      </trkpt>
      <trkpt lat="49.5104" lon="5.91505">
        <ele>407.26</ele>
        <time>2012-09-22T13:25:07Z</time>
      </trkpt>
      <trkpt lat="49.51051" lon="5.91501">
        <ele>406.29</ele>
        <time>2012-09-22T13:25:11Z</time>
      </trkpt>
      <trkpt lat="49.51053" lon="5.91501">
        <ele>406.29</ele>
        <time>2012-09-22T13:25:12Z</time>
      </trkpt>
      <trkpt lat="49.51053" lon="5.91516">
        <ele>409.18</ele>
        <time>2012-09-22T13:25:17Z</time>
      </trkpt>
      <trkpt lat="49.51053" lon="5.91535">
        <ele>409.18</ele>
        <time>2012-09-22T13:25:23Z</time>
      </trkpt>
      <trkpt lat="49.51064" lon="5.91567">
        <ele>409.18</ele>
        <time>2012-09-22T13:25:35Z</time>
      </trkpt>
      <trkpt lat="49.51078" lon="5.91601">
        <ele>407.26</ele>
        <time>2012-09-22T13:25:43Z</time>
      </trkpt>
      <trkpt lat="49.5109" lon="5.91627">
        <ele>407.74</ele>
        <time>2012-09-22T13:25:48Z</time>
      </trkpt>
      <trkpt lat="49.51089" lon="5.91655">
        <ele>404.85</ele>
        <time>2012-09-22T13:25:55Z</time>
      </trkpt>
      <trkpt lat="49.51078" lon="5.9166">
        <ele>402.93</ele>
        <time>2012-09-22T13:25:58Z</time>
      </trkpt>
      <trkpt lat="49.51072" lon="5.91662">
        <ele>403.89</ele>
        <time>2012-09-22T13:26:01Z</time>
      </trkpt>
      <trkpt lat="49.51073" lon="5.91667">
        <ele>403.89</ele>
        <time>2012-09-22T13:26:04Z</time>
      </trkpt>
      <trkpt lat="49.51072" lon="5.91683">
        <ele>405.81</ele>
        <time>2012-09-22T13:26:08Z</time>
      </trkpt>
      <trkpt lat="49.5108" lon="5.917">
        <ele>405.81</ele>
        <time>2012-09-22T13:26:13Z</time>
      </trkpt>
      <trkpt lat="49.51083" lon="5.91706">
        <ele>405.33</ele>
        <time>2012-09-22T13:26:15Z</time>
      </trkpt>
      <trkpt lat="49.51089" lon="5.9172">
        <ele>406.29</ele>
        <time>2012-09-22T13:26:18Z</time>
      </trkpt>
      <trkpt lat="49.5109" lon="5.91725">
        <ele>406.77</ele>
        <time>2012-09-22T13:26:19Z</time>
      </trkpt>
      <trkpt lat="49.51092" lon="5.9174">
        <ele>406.77</ele>
        <time>2012-09-22T13:26:22Z</time>
      </trkpt>
      <trkpt lat="49.51096" lon="5.91756">
        <ele>409.66</ele>
        <time>2012-09-22T13:26:26Z</time>
      </trkpt>
      <trkpt lat="49.51102" lon="5.91768">
        <ele>410.14</ele>
        <time>2012-09-22T13:26:28Z</time>
      </trkpt>
      <trkpt lat="49.51113" lon="5.91782">
        <ele>411.58</ele>
        <time>2012-09-22T13:26:33Z</time>
      </trkpt>
      <trkpt lat="49.5112" lon="5.9179">
        <ele>412.06</ele>
        <time>2012-09-22T13:26:36Z</time>
      </trkpt>
      <trkpt lat="49.51128" lon="5.91803">
        <ele>411.58</ele>
        <time>2012-09-22T13:26:40Z</time>
      </trkpt>
      <trkpt lat="49.51156" lon="5.91827">
        <ele>409.66</ele>
        <time>2012-09-22T13:26:51Z</time>
      </trkpt>
      <trkpt lat="49.51158" lon="5.91827">
        <ele>409.66</ele>
        <time>2012-09-22T13:26:52Z</time>
      </trkpt>
      <trkpt lat="49.51165" lon="5.9184">
        <ele>409.18</ele>
        <time>2012-09-22T13:26:57Z</time>
      </trkpt>
      <trkpt lat="49.51178" lon="5.91851">
        <ele>407.74</ele>
        <time>2012-09-22T13:27:02Z</time>
      </trkpt>
      <trkpt lat="49.51185" lon="5.91854">
        <ele>409.18</ele>
        <time>2012-09-22T13:27:04Z</time>
      </trkpt>
      <trkpt lat="49.51196" lon="5.91876">
        <ele>410.62</ele>
        <time>2012-09-22T13:27:10Z</time>
      </trkpt>
      <trkpt lat="49.51207" lon="5.91917">
        <ele>410.14</ele>
        <time>2012-09-22T13:27:20Z</time>
      </trkpt>
      <trkpt lat="49.51206" lon="5.9192">
        <ele>410.62</ele>
        <time>2012-09-22T13:27:21Z</time>
      </trkpt>
      <trkpt lat="49.51206" lon="5.91924">
        <ele>410.14</ele>
        <time>2012-09-22T13:27:22Z</time>
      </trkpt>
      <trkpt lat="49.51217" lon="5.91942">
        <ele>411.1</ele>
        <time>2012-09-22T13:27:27Z</time>
      </trkpt>
      <trkpt lat="49.51218" lon="5.91973">
        <ele>409.66</ele>
        <time>2012-09-22T13:27:32Z</time>
      </trkpt>
      <trkpt lat="49.51212" lon="5.92002">
        <ele>410.62</ele>
        <time>2012-09-22T13:27:38Z</time>
      </trkpt>
      <trkpt lat="49.51212" lon="5.92007">
        <ele>409.66</ele>
        <time>2012-09-22T13:27:39Z</time>
      </trkpt>
      <trkpt lat="49.51217" lon="5.92019">
        <ele>410.14</ele>
        <time>2012-09-22T13:27:42Z</time>
      </trkpt>
      <trkpt lat="49.51219" lon="5.92025">
        <ele>409.66</ele>
        <time>2012-09-22T13:27:43Z</time>
      </trkpt>
      <trkpt lat="49.51223" lon="5.9206">
        <ele>408.22</ele>
        <time>2012-09-22T13:27:48Z</time>
      </trkpt>
      <trkpt lat="49.51222" lon="5.92088">
        <ele>406.77</ele>
        <time>2012-09-22T13:27:52Z</time>
      </trkpt>
      <trkpt lat="49.51223" lon="5.92118">
        <ele>409.18</ele>
        <time>2012-09-22T13:27:55Z</time>
      </trkpt>
      <trkpt lat="49.51234" lon="5.92153">
        <ele>410.14</ele>
        <time>2012-09-22T13:28:01Z</time>
      </trkpt>
      <trkpt lat="49.51245" lon="5.922">
        <ele>411.1</ele>
        <time>2012-09-22T13:28:09Z</time>
      </trkpt>
      <trkpt lat="49.51265" lon="5.92245">
        <ele>410.14</ele>
        <time>2012-09-22T13:28:16Z</time>
      </trkpt>
      <trkpt lat="49.51268" lon="5.92269">
        <ele>407.74</ele>
        <time>2012-09-22T13:28:21Z</time>
      </trkpt>
      <trkpt lat="49.51267" lon="5.92301">
        <ele>412.06</ele>
        <time>2012-09-22T13:28:27Z</time>
      </trkpt>
      <trkpt lat="49.5127" lon="5.92316">
        <ele>413.02</ele>
        <time>2012-09-22T13:28:32Z</time>
      </trkpt>
      <trkpt lat="49.51253" lon="5.92315">
        <ele>413.02</ele>
        <time>2012-09-22T13:28:39Z</time>
      </trkpt>
      <trkpt lat="49.51251" lon="5.9232">
        <ele>413.5</ele>
        <time>2012-09-22T13:28:41Z</time>
      </trkpt>
      <trkpt lat="49.51254" lon="5.92363">
        <ele>415.91</ele>
        <time>2012-09-22T13:28:53Z</time>
      </trkpt>
      <trkpt lat="49.51259" lon="5.92406">
        <ele>415.91</ele>
        <time>2012-09-22T13:29:02Z</time>
      </trkpt>
      <trkpt lat="49.5127" lon="5.92405">
        <ele>414.47</ele>
        <time>2012-09-22T13:29:08Z</time>
      </trkpt>
      <trkpt lat="49.51282" lon="5.9238">
        <ele>413.02</ele>
        <time>2012-09-22T13:29:13Z</time>
      </trkpt>
      <trkpt lat="49.51285" lon="5.92369">
        <ele>412.54</ele>
        <time>2012-09-22T13:29:15Z</time>
      </trkpt>
      <trkpt lat="49.51288" lon="5.92347">
        <ele>413.98</ele>
        <time>2012-09-22T13:29:19Z</time>
      </trkpt>
      <trkpt lat="49.51283" lon="5.92335">
        <ele>413.02</ele>
        <time>2012-09-22T13:29:26Z</time>
      </trkpt>
      <trkpt lat="49.51281" lon="5.92329">
        <ele>411.58</ele>
        <time>2012-09-22T13:29:28Z</time>
      </trkpt>
      <trkpt lat="49.5128" lon="5.92317">
        <ele>410.14</ele>
        <time>2012-09-22T13:29:31Z</time>
      </trkpt>
      <trkpt lat="49.5128" lon="5.92307">
        <ele>410.62</ele>
        <time>2012-09-22T13:29:33Z</time>
      </trkpt>
      <trkpt lat="49.51293" lon="5.92287">
        <ele>408.22</ele>
        <time>2012-09-22T13:29:40Z</time>
      </trkpt>
      <trkpt lat="49.513" lon="5.92273">
        <ele>407.74</ele>
        <time>2012-09-22T13:29:46Z</time>
      </trkpt>
      <trkpt lat="49.51296" lon="5.92258">
        <ele>403.89</ele>
        <time>2012-09-22T13:29:50Z</time>
      </trkpt>
      <trkpt lat="49.51292" lon="5.92213">
        <ele>407.26</ele>
        <time>2012-09-22T13:29:55Z</time>
      </trkpt>
      <trkpt lat="49.51293" lon="5.92159">
        <ele>410.14</ele>
        <time>2012-09-22T13:30:04Z</time>
      </trkpt>
      <trkpt lat="49.51292" lon="5.92153">
        <ele>410.14</ele>
        <time>2012-09-22T13:30:05Z</time>
      </trkpt>
      <trkpt lat="49.51291" lon="5.92146">
        <ele>409.18</ele>
        <time>2012-09-22T13:30:06Z</time>
      </trkpt>
      <trkpt lat="49.51281" lon="5.9209">
        <ele>408.7</ele>
        <time>2012-09-22T13:30:16Z</time>
      </trkpt>
      <trkpt lat="49.51271" lon="5.92072">
        <ele>408.7</ele>
        <time>2012-09-22T13:30:20Z</time>
      </trkpt>
      <trkpt lat="49.51292" lon="5.9205">
        <ele>408.7</ele>
        <time>2012-09-22T13:30:29Z</time>
      </trkpt>
      <trkpt lat="49.51293" lon="5.92034">
        <ele>408.22</ele>
        <time>2012-09-22T13:30:33Z</time>
      </trkpt>
      <trkpt lat="49.51292" lon="5.92025">
        <ele>409.18</ele>
        <time>2012-09-22T13:30:35Z</time>
      </trkpt>
      <trkpt lat="49.51293" lon="5.92003">
        <ele>410.14</ele>
        <time>2012-09-22T13:30:40Z</time>
      </trkpt>
      <trkpt lat="49.51284" lon="5.91974">
        <ele>410.62</ele>
        <time>2012-09-22T13:30:49Z</time>
      </trkpt>
      <trkpt lat="49.51284" lon="5.9197">
        <ele>411.1</ele>
        <time>2012-09-22T13:30:50Z</time>
      </trkpt>
      <trkpt lat="49.51273" lon="5.91945">
        <ele>409.18</ele>
        <time>2012-09-22T13:30:57Z</time>
      </trkpt>
      <trkpt lat="49.51271" lon="5.91942">
        <ele>408.22</ele>
        <time>2012-09-22T13:30:59Z</time>
      </trkpt>
      <trkpt lat="49.51267" lon="5.91923">
        <ele>410.14</ele>
        <time>2012-09-22T13:31:04Z</time>
      </trkpt>
      <trkpt lat="49.51269" lon="5.91907">
        <ele>408.22</ele>
        <time>2012-09-22T13:31:08Z</time>
      </trkpt>
      <trkpt lat="49.51269" lon="5.919">
        <ele>409.18</ele>
        <time>2012-09-22T13:31:10Z</time>
      </trkpt>
      <trkpt lat="49.51263" lon="5.91887">
        <ele>410.62</ele>
        <time>2012-09-22T13:31:13Z</time>
      </trkpt>
      <trkpt lat="49.51257" lon="5.91843">
        <ele>412.06</ele>
        <time>2012-09-22T13:31:22Z</time>
      </trkpt>
      <trkpt lat="49.51255" lon="5.9184">
        <ele>412.06</ele>
        <time>2012-09-22T13:31:23Z</time>
      </trkpt>
      <trkpt lat="49.51246" lon="5.91803">
        <ele>410.14</ele>
        <time>2012-09-22T13:31:34Z</time>
      </trkpt>
      <trkpt lat="49.51242" lon="5.91787">
        <ele>410.62</ele>
        <time>2012-09-22T13:31:39Z</time>
      </trkpt>
      <trkpt lat="49.51237" lon="5.91764">
        <ele>410.14</ele>
        <time>2012-09-22T13:31:45Z</time>
      </trkpt>
      <trkpt lat="49.51223" lon="5.91732">
        <ele>407.74</ele>
        <time>2012-09-22T13:31:52Z</time>
      </trkpt>
      <trkpt lat="49.51222" lon="5.91725">
        <ele>408.22</ele>
        <time>2012-09-22T13:31:53Z</time>
      </trkpt>
      <trkpt lat="49.5122" lon="5.91712">
        <ele>408.7</ele>
        <time>2012-09-22T13:31:55Z</time>
      </trkpt>
      <trkpt lat="49.51207" lon="5.91671">
        <ele>408.22</ele>
        <time>2012-09-22T13:32:02Z</time>
      </trkpt>
      <trkpt lat="49.51203" lon="5.91657">
        <ele>411.1</ele>
        <time>2012-09-22T13:32:06Z</time>
      </trkpt>
      <trkpt lat="49.51203" lon="5.91657">
        <ele>409.18</ele>
        <time>2012-09-22T13:32:10Z</time>
      </trkpt>
      <trkpt lat="49.51203" lon="5.91652">
        <ele>408.7</ele>
        <time>2012-09-22T13:32:12Z</time>
      </trkpt>
      <trkpt lat="49.51203" lon="5.91639">
        <ele>410.62</ele>
        <time>2012-09-22T13:32:23Z</time>
      </trkpt>
      <trkpt lat="49.51199" lon="5.91618">
        <ele>410.62</ele>
        <time>2012-09-22T13:32:35Z</time>
      </trkpt>
      <trkpt lat="49.51195" lon="5.91614">
        <ele>411.58</ele>
        <time>2012-09-22T13:32:38Z</time>
      </trkpt>
      <trkpt lat="49.5119" lon="5.91612">
        <ele>409.66</ele>
        <time>2012-09-22T13:32:42Z</time>
      </trkpt>
      <trkpt lat="49.51186" lon="5.91615">
        <ele>409.18</ele>
        <time>2012-09-22T13:32:44Z</time>
      </trkpt>
      <trkpt lat="49.51183" lon="5.91615">
        <ele>410.14</ele>
        <time>2012-09-22T13:32:47Z</time>
      </trkpt>
      <trkpt lat="49.51179" lon="5.9161">
        <ele>410.62</ele>
        <time>2012-09-22T13:32:50Z</time>
      </trkpt>
      <trkpt lat="49.51167" lon="5.91588">
        <ele>411.1</ele>
        <time>2012-09-22T13:32:57Z</time>
      </trkpt>
      <trkpt lat="49.51162" lon="5.91577">
        <ele>411.1</ele>
        <time>2012-09-22T13:33:06Z</time>
      </trkpt>
      <trkpt lat="49.51167" lon="5.91555">
        <ele>411.58</ele>
        <time>2012-09-22T13:33:15Z</time>
      </trkpt>
      <trkpt lat="49.51172" lon="5.91541">
        <ele>412.06</ele>
        <time>2012-09-22T13:33:24Z</time>
      </trkpt>
      <trkpt lat="49.51173" lon="5.91539">
        <ele>410.62</ele>
        <time>2012-09-22T13:33:26Z</time>
      </trkpt>
      <trkpt lat="49.51173" lon="5.91538">
        <ele>409.66</ele>
        <time>2012-09-22T13:33:40Z</time>
      </trkpt>
      <trkpt lat="49.51179" lon="5.91543">
        <ele>408.7</ele>
        <time>2012-09-22T13:33:45Z</time>
      </trkpt>
      <trkpt lat="49.51187" lon="5.91551">
        <ele>405.81</ele>
        <time>2012-09-22T13:33:48Z</time>
      </trkpt>
      <trkpt lat="49.51196" lon="5.91562">
        <ele>401.97</ele>
        <time>2012-09-22T13:33:52Z</time>
      </trkpt>
      <trkpt lat="49.51197" lon="5.91564">
        <ele>402.45</ele>
        <time>2012-09-22T13:33:53Z</time>
      </trkpt>
      <trkpt lat="49.51198" lon="5.91566">
        <ele>401.97</ele>
        <time>2012-09-22T13:33:54Z</time>
      </trkpt>
      <trkpt lat="49.51198" lon="5.91549">
        <ele>398.12</ele>
        <time>2012-09-22T13:34:00Z</time>
      </trkpt>
      <trkpt lat="49.51198" lon="5.91546">
        <ele>398.12</ele>
        <time>2012-09-22T13:34:01Z</time>
      </trkpt>
      <trkpt lat="49.51198" lon="5.91545">
        <ele>397.16</ele>
        <time>2012-09-22T13:34:02Z</time>
      </trkpt>
      <trkpt lat="49.51209" lon="5.91561">
        <ele>394.28</ele>
        <time>2012-09-22T13:34:08Z</time>
      </trkpt>
      <trkpt lat="49.51212" lon="5.91567">
        <ele>393.8</ele>
        <time>2012-09-22T13:34:10Z</time>
      </trkpt>
      <trkpt lat="49.51217" lon="5.91577">
        <ele>390.43</ele>
        <time>2012-09-22T13:34:13Z</time>
      </trkpt>
      <trkpt lat="49.51224" lon="5.91595">
        <ele>386.59</ele>
        <time>2012-09-22T13:34:19Z</time>
      </trkpt>
      <trkpt lat="49.51237" lon="5.91665">
        <ele>386.11</ele>
        <time>2012-09-22T13:34:30Z</time>
      </trkpt>
      <trkpt lat="49.5124" lon="5.91688">
        <ele>386.11</ele>
        <time>2012-09-22T13:34:33Z</time>
      </trkpt>
      <trkpt lat="49.5125" lon="5.9172">
        <ele>385.63</ele>
        <time>2012-09-22T13:34:37Z</time>
      </trkpt>
      <trkpt lat="49.51283" lon="5.91818">
        <ele>387.55</ele>
        <time>2012-09-22T13:34:47Z</time>
      </trkpt>
      <trkpt lat="49.5131" lon="5.91926">
        <ele>391.39</ele>
        <time>2012-09-22T13:34:59Z</time>
      </trkpt>
      <trkpt lat="49.51316" lon="5.91965">
        <ele>394.76</ele>
        <time>2012-09-22T13:35:04Z</time>
      </trkpt>
      <trkpt lat="49.51316" lon="5.91986">
        <ele>396.68</ele>
        <time>2012-09-22T13:35:11Z</time>
      </trkpt>
      <trkpt lat="49.51313" lon="5.92004">
        <ele>399.08</ele>
        <time>2012-09-22T13:35:20Z</time>
      </trkpt>
      <trkpt lat="49.51312" lon="5.9201">
        <ele>399.08</ele>
        <time>2012-09-22T13:35:22Z</time>
      </trkpt>
      <trkpt lat="49.51315" lon="5.92026">
        <ele>400.53</ele>
        <time>2012-09-22T13:35:31Z</time>
      </trkpt>
      <trkpt lat="49.51316" lon="5.92084">
        <ele>398.12</ele>
        <time>2012-09-22T13:35:42Z</time>
      </trkpt>
      <trkpt lat="49.51316" lon="5.92091">
        <ele>398.6</ele>
        <time>2012-09-22T13:35:43Z</time>
      </trkpt>
      <trkpt lat="49.51317" lon="5.92105">
        <ele>398.12</ele>
        <time>2012-09-22T13:35:45Z</time>
      </trkpt>
      <trkpt lat="49.51325" lon="5.92132">
        <ele>396.68</ele>
        <time>2012-09-22T13:35:49Z</time>
      </trkpt>
      <trkpt lat="49.51326" lon="5.92136">
        <ele>394.76</ele>
        <time>2012-09-22T13:35:50Z</time>
      </trkpt>
      <trkpt lat="49.51334" lon="5.92162">
        <ele>391.39</ele>
        <time>2012-09-22T13:35:54Z</time>
      </trkpt>
      <trkpt lat="49.51339" lon="5.92199">
        <ele>391.39</ele>
        <time>2012-09-22T13:35:58Z</time>
      </trkpt>
      <trkpt lat="49.51339" lon="5.92229">
        <ele>393.8</ele>
        <time>2012-09-22T13:36:02Z</time>
      </trkpt>
      <trkpt lat="49.51338" lon="5.92233">
        <ele>393.32</ele>
        <time>2012-09-22T13:36:03Z</time>
      </trkpt>
      <trkpt lat="49.51339" lon="5.92249">
        <ele>395.24</ele>
        <time>2012-09-22T13:36:08Z</time>
      </trkpt>
      <trkpt lat="49.51336" lon="5.92302">
        <ele>397.64</ele>
        <time>2012-09-22T13:36:22Z</time>
      </trkpt>
      <trkpt lat="49.51329" lon="5.92378">
        <ele>396.2</ele>
        <time>2012-09-22T13:36:33Z</time>
      </trkpt>
      <trkpt lat="49.51322" lon="5.92401">
        <ele>398.6</ele>
        <time>2012-09-22T13:36:37Z</time>
      </trkpt>
      <trkpt lat="49.51305" lon="5.92432">
        <ele>398.12</ele>
        <time>2012-09-22T13:36:46Z</time>
      </trkpt>
      <trkpt lat="49.5128" lon="5.92506">
        <ele>399.57</ele>
        <time>2012-09-22T13:36:59Z</time>
      </trkpt>
      <trkpt lat="49.51264" lon="5.92547">
        <ele>397.16</ele>
        <time>2012-09-22T13:37:09Z</time>
      </trkpt>
      <trkpt lat="49.5126" lon="5.92558">
        <ele>395.24</ele>
        <time>2012-09-22T13:37:12Z</time>
      </trkpt>
      <trkpt lat="49.51256" lon="5.92564">
        <ele>392.84</ele>
        <time>2012-09-22T13:37:14Z</time>
      </trkpt>
      <trkpt lat="49.51242" lon="5.92554">
        <ele>392.84</ele>
        <time>2012-09-22T13:37:19Z</time>
      </trkpt>
      <trkpt lat="49.51237" lon="5.92543">
        <ele>395.24</ele>
        <time>2012-09-22T13:37:23Z</time>
      </trkpt>
      <trkpt lat="49.51228" lon="5.92512">
        <ele>397.64</ele>
        <time>2012-09-22T13:37:33Z</time>
      </trkpt>
      <trkpt lat="49.512" lon="5.92474">
        <ele>394.76</ele>
        <time>2012-09-22T13:37:45Z</time>
      </trkpt>
      <trkpt lat="49.512" lon="5.92473">
        <ele>395.24</ele>
        <time>2012-09-22T13:37:46Z</time>
      </trkpt>
      <trkpt lat="49.51191" lon="5.9247">
        <ele>389.47</ele>
        <time>2012-09-22T13:37:52Z</time>
      </trkpt>
      <trkpt lat="49.51187" lon="5.92468">
        <ele>387.55</ele>
        <time>2012-09-22T13:37:55Z</time>
      </trkpt>
      <trkpt lat="49.51177" lon="5.92421">
        <ele>388.03</ele>
        <time>2012-09-22T13:38:06Z</time>
      </trkpt>
      <trkpt lat="49.51171" lon="5.9238">
        <ele>390.91</ele>
        <time>2012-09-22T13:38:14Z</time>
      </trkpt>
      <trkpt lat="49.51171" lon="5.92373">
        <ele>391.39</ele>
        <time>2012-09-22T13:38:16Z</time>
      </trkpt>
      <trkpt lat="49.51176" lon="5.92325">
        <ele>392.84</ele>
        <time>2012-09-22T13:38:29Z</time>
      </trkpt>
      <trkpt lat="49.5118" lon="5.92276">
        <ele>392.36</ele>
        <time>2012-09-22T13:38:42Z</time>
      </trkpt>
      <trkpt lat="49.51179" lon="5.92248">
        <ele>395.72</ele>
        <time>2012-09-22T13:38:48Z</time>
      </trkpt>
      <trkpt lat="49.51183" lon="5.92195">
        <ele>395.72</ele>
        <time>2012-09-22T13:38:58Z</time>
      </trkpt>
      <trkpt lat="49.51183" lon="5.92147">
        <ele>394.76</ele>
        <time>2012-09-22T13:39:09Z</time>
      </trkpt>
      <trkpt lat="49.51178" lon="5.92083">
        <ele>392.36</ele>
        <time>2012-09-22T13:39:19Z</time>
      </trkpt>
      <trkpt lat="49.51174" lon="5.92037">
        <ele>388.51</ele>
        <time>2012-09-22T13:39:23Z</time>
      </trkpt>
      <trkpt lat="49.51172" lon="5.92025">
        <ele>388.51</ele>
        <time>2012-09-22T13:39:24Z</time>
      </trkpt>
      <trkpt lat="49.51127" lon="5.91918">
        <ele>386.59</ele>
        <time>2012-09-22T13:39:34Z</time>
      </trkpt>
      <trkpt lat="49.51106" lon="5.91891">
        <ele>385.15</ele>
        <time>2012-09-22T13:39:40Z</time>
      </trkpt>
      <trkpt lat="49.51096" lon="5.91879">
        <ele>385.15</ele>
        <time>2012-09-22T13:39:44Z</time>
      </trkpt>
      <trkpt lat="49.51036" lon="5.91836">
        <ele>383.22</ele>
        <time>2012-09-22T13:39:56Z</time>
      </trkpt>
      <trkpt lat="49.51021" lon="5.9183">
        <ele>382.74</ele>
        <time>2012-09-22T13:39:59Z</time>
      </trkpt>
      <trkpt lat="49.51004" lon="5.91818">
        <ele>386.11</ele>
        <time>2012-09-22T13:40:04Z</time>
      </trkpt>
      <trkpt lat="49.50966" lon="5.91815">
        <ele>386.11</ele>
        <time>2012-09-22T13:40:15Z</time>
      </trkpt>
      <trkpt lat="49.50957" lon="5.91816">
        <ele>385.15</ele>
        <time>2012-09-22T13:40:17Z</time>
      </trkpt>
      <trkpt lat="49.50936" lon="5.91821">
        <ele>383.7</ele>
        <time>2012-09-22T13:40:23Z</time>
      </trkpt>
      <trkpt lat="49.50935" lon="5.91822">
        <ele>382.26</ele>
        <time>2012-09-22T13:40:24Z</time>
      </trkpt>
      <trkpt lat="49.50929" lon="5.91829">
        <ele>378.42</ele>
        <time>2012-09-22T13:40:28Z</time>
      </trkpt>
      <trkpt lat="49.50927" lon="5.91831">
        <ele>378.42</ele>
        <time>2012-09-22T13:40:29Z</time>
      </trkpt>
      <trkpt lat="49.50919" lon="5.91842">
        <ele>376.49</ele>
        <time>2012-09-22T13:40:32Z</time>
      </trkpt>
      <trkpt lat="49.50851" lon="5.91877">
        <ele>381.3</ele>
        <time>2012-09-22T13:40:44Z</time>
      </trkpt>
      <trkpt lat="49.50843" lon="5.91878">
        <ele>381.78</ele>
        <time>2012-09-22T13:40:46Z</time>
      </trkpt>
      <trkpt lat="49.50836" lon="5.91878">
        <ele>382.74</ele>
        <time>2012-09-22T13:40:48Z</time>
      </trkpt>
      <trkpt lat="49.50819" lon="5.91883">
        <ele>383.7</ele>
        <time>2012-09-22T13:40:55Z</time>
      </trkpt>
      <trkpt lat="49.50817" lon="5.91884">
        <ele>384.18</ele>
        <time>2012-09-22T13:40:59Z</time>
      </trkpt>
      <trkpt lat="49.5082" lon="5.91881">
        <ele>387.07</ele>
        <time>2012-09-22T13:41:05Z</time>
      </trkpt>
      <trkpt lat="49.50826" lon="5.91867">
        <ele>390.43</ele>
        <time>2012-09-22T13:41:15Z</time>
      </trkpt>
      <trkpt lat="49.50834" lon="5.91854">
        <ele>391.87</ele>
        <time>2012-09-22T13:41:22Z</time>
      </trkpt>
      <trkpt lat="49.50847" lon="5.91837">
        <ele>394.28</ele>
        <time>2012-09-22T13:41:35Z</time>
      </trkpt>
      <trkpt lat="49.50848" lon="5.91836">
        <ele>394.28</ele>
        <time>2012-09-22T13:41:36Z</time>
      </trkpt>
      <trkpt lat="49.50857" lon="5.91823">
        <ele>397.16</ele>
        <time>2012-09-22T13:41:44Z</time>
      </trkpt>
      <trkpt lat="49.50862" lon="5.91813">
        <ele>397.16</ele>
        <time>2012-09-22T13:41:50Z</time>
      </trkpt>
      <trkpt lat="49.50865" lon="5.91806">
        <ele>398.6</ele>
        <time>2012-09-22T13:41:53Z</time>
      </trkpt>
      <trkpt lat="49.50875" lon="5.91783">
        <ele>401.01</ele>
        <time>2012-09-22T13:42:06Z</time>
      </trkpt>
      <trkpt lat="49.50878" lon="5.91769">
        <ele>401.97</ele>
        <time>2012-09-22T13:42:14Z</time>
      </trkpt>
      <trkpt lat="49.50885" lon="5.91749">
        <ele>403.89</ele>
        <time>2012-09-22T13:42:24Z</time>
      </trkpt>
      <trkpt lat="49.50896" lon="5.91724">
        <ele>405.81</ele>
        <time>2012-09-22T13:42:38Z</time>
      </trkpt>
      <trkpt lat="49.50897" lon="5.91722">
        <ele>405.81</ele>
        <time>2012-09-22T13:42:39Z</time>
      </trkpt>
      <trkpt lat="49.50905" lon="5.91696">
        <ele>407.74</ele>
        <time>2012-09-22T13:42:50Z</time>
      </trkpt>
      <trkpt lat="49.50909" lon="5.91689">
        <ele>407.26</ele>
        <time>2012-09-22T13:42:55Z</time>
      </trkpt>
      <trkpt lat="49.50913" lon="5.91681">
        <ele>408.22</ele>
        <time>2012-09-22T13:42:59Z</time>
      </trkpt>
      <trkpt lat="49.50916" lon="5.91655">
        <ele>410.14</ele>
        <time>2012-09-22T13:43:09Z</time>
      </trkpt>
      <trkpt lat="49.509" lon="5.91656">
        <ele>413.5</ele>
        <time>2012-09-22T13:43:17Z</time>
      </trkpt>
      <trkpt lat="49.50895" lon="5.91659">
        <ele>413.02</ele>
        <time>2012-09-22T13:43:21Z</time>
      </trkpt>
      <trkpt lat="49.50878" lon="5.91689">
        <ele>413.98</ele>
        <time>2012-09-22T13:43:36Z</time>
      </trkpt>
      <trkpt lat="49.5087" lon="5.91702">
        <ele>412.54</ele>
        <time>2012-09-22T13:43:41Z</time>
      </trkpt>
      <trkpt lat="49.5084" lon="5.91733">
        <ele>411.58</ele>
        <time>2012-09-22T13:43:48Z</time>
      </trkpt>
      <trkpt lat="49.50822" lon="5.91737">
        <ele>411.58</ele>
        <time>2012-09-22T13:43:53Z</time>
      </trkpt>
      <trkpt lat="49.50808" lon="5.91739">
        <ele>412.54</ele>
        <time>2012-09-22T13:43:58Z</time>
      </trkpt>
      <trkpt lat="49.50802" lon="5.91737">
        <ele>411.1</ele>
        <time>2012-09-22T13:44:03Z</time>
      </trkpt>
      <trkpt lat="49.50801" lon="5.91745">
        <ele>409.66</ele>
        <time>2012-09-22T13:44:06Z</time>
      </trkpt>
      <trkpt lat="49.50805" lon="5.91771">
        <ele>406.29</ele>
        <time>2012-09-22T13:44:12Z</time>
      </trkpt>
      <trkpt lat="49.50805" lon="5.91782">
        <ele>402.93</ele>
        <time>2012-09-22T13:44:17Z</time>
      </trkpt>
      <trkpt lat="49.50805" lon="5.91783">
        <ele>403.41</ele>
        <time>2012-09-22T13:44:18Z</time>
      </trkpt>
      <trkpt lat="49.50798" lon="5.91785">
        <ele>401.97</ele>
        <time>2012-09-22T13:44:21Z</time>
      </trkpt>
      <trkpt lat="49.50795" lon="5.91786">
        <ele>401.01</ele>
        <time>2012-09-22T13:44:22Z</time>
      </trkpt>
      <trkpt lat="49.50785" lon="5.91781">
        <ele>397.64</ele>
        <time>2012-09-22T13:44:25Z</time>
      </trkpt>
      <trkpt lat="49.50778" lon="5.91774">
        <ele>398.12</ele>
        <time>2012-09-22T13:44:27Z</time>
      </trkpt>
      <trkpt lat="49.50772" lon="5.9176">
        <ele>396.2</ele>
        <time>2012-09-22T13:44:30Z</time>
      </trkpt>
      <trkpt lat="49.50771" lon="5.91747">
        <ele>395.72</ele>
        <time>2012-09-22T13:44:32Z</time>
      </trkpt>
      <trkpt lat="49.50769" lon="5.91728">
        <ele>398.12</ele>
        <time>2012-09-22T13:44:35Z</time>
      </trkpt>
      <trkpt lat="49.50761" lon="5.91693">
        <ele>396.68</ele>
        <time>2012-09-22T13:44:41Z</time>
      </trkpt>
      <trkpt lat="49.50757" lon="5.91662">
        <ele>397.16</ele>
        <time>2012-09-22T13:44:45Z</time>
      </trkpt>
      <trkpt lat="49.50755" lon="5.91622">
        <ele>397.16</ele>
        <time>2012-09-22T13:44:51Z</time>
      </trkpt>
      <trkpt lat="49.50748" lon="5.91595">
        <ele>399.08</ele>
        <time>2012-09-22T13:44:57Z</time>
      </trkpt>
      <trkpt lat="49.50746" lon="5.9158">
        <ele>400.05</ele>
        <time>2012-09-22T13:45:00Z</time>
      </trkpt>
      <trkpt lat="49.5074" lon="5.91567">
        <ele>397.16</ele>
        <time>2012-09-22T13:45:04Z</time>
      </trkpt>
      <trkpt lat="49.50735" lon="5.91559">
        <ele>397.16</ele>
        <time>2012-09-22T13:45:06Z</time>
      </trkpt>
      <trkpt lat="49.50726" lon="5.91531">
        <ele>397.64</ele>
        <time>2012-09-22T13:45:13Z</time>
      </trkpt>
      <trkpt lat="49.50726" lon="5.9153">
        <ele>395.24</ele>
        <time>2012-09-22T13:45:16Z</time>
      </trkpt>
      <trkpt lat="49.50712" lon="5.91503">
        <ele>393.32</ele>
        <time>2012-09-22T13:45:22Z</time>
      </trkpt>
      <trkpt lat="49.5069" lon="5.91465">
        <ele>390.43</ele>
        <time>2012-09-22T13:45:27Z</time>
      </trkpt>
      <trkpt lat="49.50677" lon="5.91446">
        <ele>389.47</ele>
        <time>2012-09-22T13:45:29Z</time>
      </trkpt>
      <trkpt lat="49.50614" lon="5.91366">
        <ele>389.47</ele>
        <time>2012-09-22T13:45:40Z</time>
      </trkpt>
      <trkpt lat="49.50596" lon="5.91351">
        <ele>389.47</ele>
        <time>2012-09-22T13:45:44Z</time>
      </trkpt>
      <trkpt lat="49.50569" lon="5.91342">
        <ele>388.03</ele>
        <time>2012-09-22T13:45:48Z</time>
      </trkpt>
      <trkpt lat="49.50562" lon="5.91341">
        <ele>388.03</ele>
        <time>2012-09-22T13:45:49Z</time>
      </trkpt>
      <trkpt lat="49.50492" lon="5.9135">
        <ele>384.66</ele>
        <time>2012-09-22T13:45:58Z</time>
      </trkpt>
      <trkpt lat="49.50472" lon="5.91388">
        <ele>382.74</ele>
        <time>2012-09-22T13:46:04Z</time>
      </trkpt>
      <trkpt lat="49.5047" lon="5.91447">
        <ele>381.3</ele>
        <time>2012-09-22T13:46:09Z</time>
      </trkpt>
      <trkpt lat="49.50455" lon="5.91472">
        <ele>381.78</ele>
        <time>2012-09-22T13:46:13Z</time>
      </trkpt>
      <trkpt lat="49.50409" lon="5.91499">
        <ele>383.22</ele>
        <time>2012-09-22T13:46:21Z</time>
      </trkpt>
      <trkpt lat="49.50336" lon="5.91539">
        <ele>384.18</ele>
        <time>2012-09-22T13:46:34Z</time>
      </trkpt>
      <trkpt lat="49.50318" lon="5.91543">
        <ele>385.63</ele>
        <time>2012-09-22T13:46:37Z</time>
      </trkpt>
      <trkpt lat="49.50305" lon="5.91543">
        <ele>385.15</ele>
        <time>2012-09-22T13:46:39Z</time>
      </trkpt>
      <trkpt lat="49.50271" lon="5.91499">
        <ele>385.63</ele>
        <time>2012-09-22T13:46:47Z</time>
      </trkpt>
      <trkpt lat="49.50266" lon="5.91465">
        <ele>386.59</ele>
        <time>2012-09-22T13:46:51Z</time>
      </trkpt>
      <trkpt lat="49.50265" lon="5.91432">
        <ele>388.03</ele>
        <time>2012-09-22T13:46:54Z</time>
      </trkpt>
      <trkpt lat="49.50266" lon="5.91411">
        <ele>388.03</ele>
        <time>2012-09-22T13:46:56Z</time>
      </trkpt>
      <trkpt lat="49.50274" lon="5.91335">
        <ele>389.95</ele>
        <time>2012-09-22T13:47:07Z</time>
      </trkpt>
      <trkpt lat="49.50275" lon="5.9129">
        <ele>390.91</ele>
        <time>2012-09-22T13:47:14Z</time>
      </trkpt>
      <trkpt lat="49.50269" lon="5.91258">
        <ele>390.43</ele>
        <time>2012-09-22T13:47:19Z</time>
      </trkpt>
      <trkpt lat="49.50266" lon="5.9124">
        <ele>391.87</ele>
        <time>2012-09-22T13:47:22Z</time>
      </trkpt>
      <trkpt lat="49.50257" lon="5.9121">
        <ele>390.91</ele>
        <time>2012-09-22T13:47:27Z</time>
      </trkpt>
      <trkpt lat="49.50242" lon="5.9114">
        <ele>392.84</ele>
        <time>2012-09-22T13:47:40Z</time>
      </trkpt>
      <trkpt lat="49.50229" lon="5.91059">
        <ele>394.76</ele>
        <time>2012-09-22T13:47:54Z</time>
      </trkpt>
      <trkpt lat="49.50217" lon="5.91002">
        <ele>396.2</ele>
        <time>2012-09-22T13:48:04Z</time>
      </trkpt>
      <trkpt lat="49.50206" lon="5.90934">
        <ele>396.68</ele>
        <time>2012-09-22T13:48:16Z</time>
      </trkpt>
      <trkpt lat="49.50207" lon="5.90935">
        <ele>397.64</ele>
        <time>2012-09-22T13:48:17Z</time>
      </trkpt>
      <trkpt lat="49.50207" lon="5.90936">
        <ele>397.64</ele>
        <time>2012-09-22T13:48:18Z</time>
      </trkpt>
      <trkpt lat="49.50208" lon="5.90937">
        <ele>398.12</ele>
        <time>2012-09-22T13:48:19Z</time>
      </trkpt>
      <trkpt lat="49.5021" lon="5.90937">
        <ele>398.6</ele>
        <time>2012-09-22T13:48:20Z</time>
      </trkpt>
      <trkpt lat="49.50211" lon="5.90938">
        <ele>399.08</ele>
        <time>2012-09-22T13:48:21Z</time>
      </trkpt>
      <trkpt lat="49.50211" lon="5.90941">
        <ele>398.6</ele>
        <time>2012-09-22T13:48:22Z</time>
      </trkpt>
      <trkpt lat="49.50212" lon="5.90944">
        <ele>398.6</ele>
        <time>2012-09-22T13:48:23Z</time>
      </trkpt>
      <trkpt lat="49.50213" lon="5.90946">
        <ele>399.08</ele>
        <time>2012-09-22T13:48:24Z</time>
      </trkpt>
      <trkpt lat="49.50213" lon="5.90948">
        <ele>399.08</ele>
        <time>2012-09-22T13:48:25Z</time>
      </trkpt>
      <trkpt lat="49.50214" lon="5.90951">
        <ele>400.05</ele>
        <time>2012-09-22T13:48:26Z</time>
      </trkpt>
      <trkpt lat="49.50215" lon="5.90952">
        <ele>399.57</ele>
        <time>2012-09-22T13:48:27Z</time>
      </trkpt>
      <trkpt lat="49.50216" lon="5.90954">
        <ele>401.49</ele>
        <time>2012-09-22T13:48:28Z</time>
      </trkpt>
      <trkpt lat="49.50217" lon="5.90956">
        <ele>400.53</ele>
        <time>2012-09-22T13:48:29Z</time>
      </trkpt>
      <trkpt lat="49.50219" lon="5.90958">
        <ele>401.01</ele>
        <time>2012-09-22T13:48:30Z</time>
      </trkpt>
      <trkpt lat="49.50222" lon="5.90967">
        <ele>402.45</ele>
        <time>2012-09-22T13:48:33Z</time>
      </trkpt>
      <trkpt lat="49.50233" lon="5.90994">
        <ele>403.89</ele>
        <time>2012-09-22T13:48:42Z</time>
      </trkpt>
      <trkpt lat="49.50246" lon="5.91026">
        <ele>405.33</ele>
        <time>2012-09-22T13:48:53Z</time>
      </trkpt>
      <trkpt lat="49.50254" lon="5.91061">
        <ele>407.26</ele>
        <time>2012-09-22T13:49:03Z</time>
      </trkpt>
      <trkpt lat="49.50254" lon="5.91064">
        <ele>406.77</ele>
        <time>2012-09-22T13:49:04Z</time>
      </trkpt>
      <trkpt lat="49.50255" lon="5.91066">
        <ele>407.74</ele>
        <time>2012-09-22T13:49:05Z</time>
      </trkpt>
      <trkpt lat="49.50257" lon="5.91069">
        <ele>407.74</ele>
        <time>2012-09-22T13:49:06Z</time>
      </trkpt>
      <trkpt lat="49.50258" lon="5.91071">
        <ele>409.18</ele>
        <time>2012-09-22T13:49:07Z</time>
      </trkpt>
      <trkpt lat="49.5026" lon="5.91073">
        <ele>409.18</ele>
        <time>2012-09-22T13:49:08Z</time>
      </trkpt>
      <trkpt lat="49.50261" lon="5.91076">
        <ele>408.22</ele>
        <time>2012-09-22T13:49:09Z</time>
      </trkpt>
      <trkpt lat="49.50266" lon="5.91084">
        <ele>409.66</ele>
        <time>2012-09-22T13:49:12Z</time>
      </trkpt>
      <trkpt lat="49.50278" lon="5.91117">
        <ele>412.06</ele>
        <time>2012-09-22T13:49:24Z</time>
      </trkpt>
      <trkpt lat="49.50299" lon="5.91163">
        <ele>412.54</ele>
        <time>2012-09-22T13:49:37Z</time>
      </trkpt>
      <trkpt lat="49.50319" lon="5.9119">
        <ele>412.54</ele>
        <time>2012-09-22T13:49:46Z</time>
      </trkpt>
      <trkpt lat="49.50333" lon="5.91192">
        <ele>412.54</ele>
        <time>2012-09-22T13:49:51Z</time>
      </trkpt>
      <trkpt lat="49.50373" lon="5.91159">
        <ele>412.06</ele>
        <time>2012-09-22T13:50:03Z</time>
      </trkpt>
      <trkpt lat="49.50392" lon="5.91121">
        <ele>413.02</ele>
        <time>2012-09-22T13:50:12Z</time>
      </trkpt>
      <trkpt lat="49.50427" lon="5.91094">
        <ele>416.39</ele>
        <time>2012-09-22T13:50:22Z</time>
      </trkpt>
      <trkpt lat="49.50455" lon="5.91051">
        <ele>417.35</ele>
        <time>2012-09-22T13:50:34Z</time>
      </trkpt>
      <trkpt lat="49.50459" lon="5.91043">
        <ele>417.35</ele>
        <time>2012-09-22T13:50:37Z</time>
      </trkpt>
      <trkpt lat="49.50446" lon="5.90993">
        <ele>418.31</ele>
        <time>2012-09-22T13:50:49Z</time>
      </trkpt>
      <trkpt lat="49.50421" lon="5.90955">
        <ele>418.79</ele>
        <time>2012-09-22T13:50:59Z</time>
      </trkpt>
      <trkpt lat="49.50392" lon="5.90919">
        <ele>421.19</ele>
        <time>2012-09-22T13:51:10Z</time>
      </trkpt>
      <trkpt lat="49.50375" lon="5.90899">
        <ele>422.16</ele>
        <time>2012-09-22T13:51:18Z</time>
      </trkpt>
      <trkpt lat="49.50363" lon="5.90864">
        <ele>423.6</ele>
        <time>2012-09-22T13:51:29Z</time>
      </trkpt>
      <trkpt lat="49.50355" lon="5.90846">
        <ele>421.68</ele>
        <time>2012-09-22T13:51:34Z</time>
      </trkpt>
      <trkpt lat="49.5035" lon="5.90811">
        <ele>420.71</ele>
        <time>2012-09-22T13:51:42Z</time>
      </trkpt>
      <trkpt lat="49.50347" lon="5.90807">
        <ele>421.68</ele>
        <time>2012-09-22T13:51:44Z</time>
      </trkpt>
      <trkpt lat="49.50345" lon="5.90802">
        <ele>421.68</ele>
        <time>2012-09-22T13:51:47Z</time>
      </trkpt>
      <trkpt lat="49.50337" lon="5.90783">
        <ele>419.27</ele>
        <time>2012-09-22T13:51:54Z</time>
      </trkpt>
      <trkpt lat="49.50332" lon="5.9078">
        <ele>418.31</ele>
        <time>2012-09-22T13:51:57Z</time>
      </trkpt>
      <trkpt lat="49.50322" lon="5.90769">
        <ele>413.98</ele>
        <time>2012-09-22T13:52:02Z</time>
      </trkpt>
      <trkpt lat="49.5032" lon="5.90767">
        <ele>413.98</ele>
        <time>2012-09-22T13:52:03Z</time>
      </trkpt>
      <trkpt lat="49.50321" lon="5.90746">
        <ele>413.5</ele>
        <time>2012-09-22T13:52:10Z</time>
      </trkpt>
      <trkpt lat="49.50324" lon="5.90743">
        <ele>412.54</ele>
        <time>2012-09-22T13:52:12Z</time>
      </trkpt>
      <trkpt lat="49.50329" lon="5.9074">
        <ele>409.18</ele>
        <time>2012-09-22T13:52:14Z</time>
      </trkpt>
      <trkpt lat="49.5034" lon="5.90737">
        <ele>405.81</ele>
        <time>2012-09-22T13:52:17Z</time>
      </trkpt>
      <trkpt lat="49.50347" lon="5.90734">
        <ele>403.41</ele>
        <time>2012-09-22T13:52:19Z</time>
      </trkpt>
      <trkpt lat="49.50348" lon="5.90723">
        <ele>403.89</ele>
        <time>2012-09-22T13:52:22Z</time>
      </trkpt>
      <trkpt lat="49.50334" lon="5.90706">
        <ele>402.93</ele>
        <time>2012-09-22T13:52:26Z</time>
      </trkpt>
      <trkpt lat="49.50326" lon="5.90699">
        <ele>401.97</ele>
        <time>2012-09-22T13:52:28Z</time>
      </trkpt>
      <trkpt lat="49.50268" lon="5.90678">
        <ele>401.97</ele>
        <time>2012-09-22T13:52:40Z</time>
      </trkpt>
      <trkpt lat="49.50263" lon="5.90679">
        <ele>401.97</ele>
        <time>2012-09-22T13:52:41Z</time>
      </trkpt>
      <trkpt lat="49.50259" lon="5.9068">
        <ele>401.97</ele>
        <time>2012-09-22T13:52:42Z</time>
      </trkpt>
      <trkpt lat="49.50251" lon="5.90683">
        <ele>401.49</ele>
        <time>2012-09-22T13:52:44Z</time>
      </trkpt>
      <trkpt lat="49.50247" lon="5.90682">
        <ele>401.97</ele>
        <time>2012-09-22T13:52:45Z</time>
      </trkpt>
      <trkpt lat="49.50245" lon="5.9068">
        <ele>402.45</ele>
        <time>2012-09-22T13:52:46Z</time>
      </trkpt>
      <trkpt lat="49.50244" lon="5.90677">
        <ele>401.49</ele>
        <time>2012-09-22T13:52:47Z</time>
      </trkpt>
      <trkpt lat="49.50242" lon="5.90677">
        <ele>401.97</ele>
        <time>2012-09-22T13:52:48Z</time>
      </trkpt>
      <trkpt lat="49.5024" lon="5.90675">
        <ele>401.49</ele>
        <time>2012-09-22T13:52:49Z</time>
      </trkpt>
      <trkpt lat="49.50239" lon="5.90672">
        <ele>401.49</ele>
        <time>2012-09-22T13:52:50Z</time>
      </trkpt>
      <trkpt lat="49.50237" lon="5.9067">
        <ele>401.49</ele>
        <time>2012-09-22T13:52:51Z</time>
      </trkpt>
      <trkpt lat="49.50236" lon="5.90665">
        <ele>401.97</ele>
        <time>2012-09-22T13:52:52Z</time>
      </trkpt>
      <trkpt lat="49.50235" lon="5.9066">
        <ele>401.01</ele>
        <time>2012-09-22T13:52:53Z</time>
      </trkpt>
      <trkpt lat="49.50234" lon="5.90654">
        <ele>400.53</ele>
        <time>2012-09-22T13:52:54Z</time>
      </trkpt>
      <trkpt lat="49.50233" lon="5.90647">
        <ele>401.01</ele>
        <time>2012-09-22T13:52:55Z</time>
      </trkpt>
      <trkpt lat="49.50231" lon="5.9064">
        <ele>400.05</ele>
        <time>2012-09-22T13:52:56Z</time>
      </trkpt>
      <trkpt lat="49.50229" lon="5.90633">
        <ele>401.97</ele>
        <time>2012-09-22T13:52:57Z</time>
      </trkpt>
      <trkpt lat="49.50223" lon="5.9061">
        <ele>400.05</ele>
        <time>2012-09-22T13:53:00Z</time>
      </trkpt>
      <trkpt lat="49.50203" lon="5.90509">
        <ele>399.57</ele>
        <time>2012-09-22T13:53:11Z</time>
      </trkpt>
      <trkpt lat="49.50197" lon="5.9048">
        <ele>400.05</ele>
        <time>2012-09-22T13:53:14Z</time>
      </trkpt>
      <trkpt lat="49.50196" lon="5.9047">
        <ele>399.08</ele>
        <time>2012-09-22T13:53:15Z</time>
      </trkpt>
      <trkpt lat="49.50173" lon="5.9034">
        <ele>396.68</ele>
        <time>2012-09-22T13:53:27Z</time>
      </trkpt>
      <trkpt lat="49.50151" lon="5.90253">
        <ele>397.16</ele>
        <time>2012-09-22T13:53:36Z</time>
      </trkpt>
      <trkpt lat="49.50117" lon="5.90155">
        <ele>394.76</ele>
        <time>2012-09-22T13:53:49Z</time>
      </trkpt>
      <trkpt lat="49.50106" lon="5.90094">
        <ele>394.76</ele>
        <time>2012-09-22T13:53:55Z</time>
      </trkpt>
      <trkpt lat="49.50103" lon="5.90065">
        <ele>394.76</ele>
        <time>2012-09-22T13:53:58Z</time>
      </trkpt>
      <trkpt lat="49.501" lon="5.89993">
        <ele>393.32</ele>
        <time>2012-09-22T13:54:06Z</time>
      </trkpt>
      <trkpt lat="49.5007" lon="5.89961">
        <ele>392.84</ele>
        <time>2012-09-22T13:54:14Z</time>
      </trkpt>
      <trkpt lat="49.50064" lon="5.89962">
        <ele>392.84</ele>
        <time>2012-09-22T13:54:15Z</time>
      </trkpt>
      <trkpt lat="49.50047" lon="5.89965">
        <ele>394.28</ele>
        <time>2012-09-22T13:54:18Z</time>
      </trkpt>
      <trkpt lat="49.49982" lon="5.89951">
        <ele>395.72</ele>
        <time>2012-09-22T13:54:30Z</time>
      </trkpt>
      <trkpt lat="49.49978" lon="5.8995">
        <ele>396.2</ele>
        <time>2012-09-22T13:54:31Z</time>
      </trkpt>
      <trkpt lat="49.49949" lon="5.89969">
        <ele>398.6</ele>
        <time>2012-09-22T13:54:41Z</time>
      </trkpt>
      <trkpt lat="49.49945" lon="5.90024">
        <ele>400.53</ele>
        <time>2012-09-22T13:54:54Z</time>
      </trkpt>
      <trkpt lat="49.4995" lon="5.90069">
        <ele>401.97</ele>
        <time>2012-09-22T13:55:07Z</time>
      </trkpt>
      <trkpt lat="49.49957" lon="5.90095">
        <ele>404.85</ele>
        <time>2012-09-22T13:55:15Z</time>
      </trkpt>
      <trkpt lat="49.49965" lon="5.9014">
        <ele>407.26</ele>
        <time>2012-09-22T13:55:28Z</time>
      </trkpt>
      <trkpt lat="49.49963" lon="5.90182">
        <ele>408.22</ele>
        <time>2012-09-22T13:55:39Z</time>
      </trkpt>
      <trkpt lat="49.49957" lon="5.9021">
        <ele>409.18</ele>
        <time>2012-09-22T13:55:46Z</time>
      </trkpt>
      <trkpt lat="49.49933" lon="5.90268">
        <ele>410.14</ele>
        <time>2012-09-22T13:56:00Z</time>
      </trkpt>
      <trkpt lat="49.49921" lon="5.90331">
        <ele>411.58</ele>
        <time>2012-09-22T13:56:13Z</time>
      </trkpt>
      <trkpt lat="49.49916" lon="5.90395">
        <ele>411.58</ele>
        <time>2012-09-22T13:56:25Z</time>
      </trkpt>
      <trkpt lat="49.49918" lon="5.90416">
        <ele>412.06</ele>
        <time>2012-09-22T13:56:29Z</time>
      </trkpt>
      <trkpt lat="49.4992" lon="5.9042">
        <ele>412.54</ele>
        <time>2012-09-22T13:56:30Z</time>
      </trkpt>
      <trkpt lat="49.49923" lon="5.90423">
        <ele>412.54</ele>
        <time>2012-09-22T13:56:31Z</time>
      </trkpt>
      <trkpt lat="49.49926" lon="5.90427">
        <ele>412.54</ele>
        <time>2012-09-22T13:56:32Z</time>
      </trkpt>
      <trkpt lat="49.49928" lon="5.90432">
        <ele>412.54</ele>
        <time>2012-09-22T13:56:33Z</time>
      </trkpt>
      <trkpt lat="49.49933" lon="5.90443">
        <ele>414.47</ele>
        <time>2012-09-22T13:56:36Z</time>
      </trkpt>
      <trkpt lat="49.49933" lon="5.90447">
        <ele>413.02</ele>
        <time>2012-09-22T13:56:37Z</time>
      </trkpt>
      <trkpt lat="49.49933" lon="5.90452">
        <ele>411.1</ele>
        <time>2012-09-22T13:56:39Z</time>
      </trkpt>
      <trkpt lat="49.49932" lon="5.90453">
        <ele>412.06</ele>
        <time>2012-09-22T13:56:40Z</time>
      </trkpt>
      <trkpt lat="49.49931" lon="5.90454">
        <ele>411.58</ele>
        <time>2012-09-22T13:56:41Z</time>
      </trkpt>
      <trkpt lat="49.49929" lon="5.90455">
        <ele>410.62</ele>
        <time>2012-09-22T13:56:42Z</time>
      </trkpt>
      <trkpt lat="49.49926" lon="5.90455">
        <ele>410.62</ele>
        <time>2012-09-22T13:56:43Z</time>
      </trkpt>
      <trkpt lat="49.49923" lon="5.90454">
        <ele>407.74</ele>
        <time>2012-09-22T13:56:44Z</time>
      </trkpt>
      <trkpt lat="49.49919" lon="5.90453">
        <ele>407.74</ele>
        <time>2012-09-22T13:56:45Z</time>
      </trkpt>
      <trkpt lat="49.49915" lon="5.90451">
        <ele>405.81</ele>
        <time>2012-09-22T13:56:46Z</time>
      </trkpt>
      <trkpt lat="49.49905" lon="5.90445">
        <ele>404.37</ele>
        <time>2012-09-22T13:56:49Z</time>
      </trkpt>
      <trkpt lat="49.49892" lon="5.90455">
        <ele>402.45</ele>
        <time>2012-09-22T13:56:54Z</time>
      </trkpt>
      <trkpt lat="49.49888" lon="5.90453">
        <ele>402.93</ele>
        <time>2012-09-22T13:56:55Z</time>
      </trkpt>
      <trkpt lat="49.49884" lon="5.9045">
        <ele>403.41</ele>
        <time>2012-09-22T13:56:56Z</time>
      </trkpt>
      <trkpt lat="49.49864" lon="5.90438">
        <ele>403.41</ele>
        <time>2012-09-22T13:57:06Z</time>
      </trkpt>
      <trkpt lat="49.49865" lon="5.90439">
        <ele>403.41</ele>
        <time>2012-09-22T13:57:07Z</time>
      </trkpt>
      <trkpt lat="49.49878" lon="5.90448">
        <ele>402.93</ele>
        <time>2012-09-22T13:57:16Z</time>
      </trkpt>
      <trkpt lat="49.4988" lon="5.9045">
        <ele>402.45</ele>
        <time>2012-09-22T13:57:27Z</time>
      </trkpt>
      <trkpt lat="49.49879" lon="5.90448">
        <ele>403.41</ele>
        <time>2012-09-22T13:57:36Z</time>
      </trkpt>
      <trkpt lat="49.49879" lon="5.90449">
        <ele>403.41</ele>
        <time>2012-09-22T13:57:40Z</time>
      </trkpt>
      <trkpt lat="49.49879" lon="5.90454">
        <ele>403.41</ele>
        <time>2012-09-22T13:57:57Z</time>
      </trkpt>
      <trkpt lat="49.49879" lon="5.90451">
        <ele>402.45</ele>
        <time>2012-09-22T13:58:19Z</time>
      </trkpt>
      <trkpt lat="49.49877" lon="5.90445">
        <ele>401.49</ele>
        <time>2012-09-22T13:58:24Z</time>
      </trkpt>
      <trkpt lat="49.49876" lon="5.90444">
        <ele>401.49</ele>
        <time>2012-09-22T13:58:25Z</time>
      </trkpt>
      <trkpt lat="49.49875" lon="5.90444">
        <ele>402.45</ele>
        <time>2012-09-22T13:58:26Z</time>
      </trkpt>
      <trkpt lat="49.49873" lon="5.90442">
        <ele>401.49</ele>
        <time>2012-09-22T13:58:27Z</time>
      </trkpt>
      <trkpt lat="49.49871" lon="5.9044">
        <ele>401.97</ele>
        <time>2012-09-22T13:58:28Z</time>
      </trkpt>
      <trkpt lat="49.49868" lon="5.90438">
        <ele>401.49</ele>
        <time>2012-09-22T13:58:29Z</time>
      </trkpt>
      <trkpt lat="49.49865" lon="5.90436">
        <ele>402.93</ele>
        <time>2012-09-22T13:58:30Z</time>
      </trkpt>
      <trkpt lat="49.49861" lon="5.90434">
        <ele>401.49</ele>
        <time>2012-09-22T13:58:31Z</time>
      </trkpt>
      <trkpt lat="49.49853" lon="5.90431">
        <ele>401.97</ele>
        <time>2012-09-22T13:58:33Z</time>
      </trkpt>
      <trkpt lat="49.49849" lon="5.90432">
        <ele>400.53</ele>
        <time>2012-09-22T13:58:34Z</time>
      </trkpt>
      <trkpt lat="49.49838" lon="5.90432">
        <ele>400.53</ele>
        <time>2012-09-22T13:58:36Z</time>
      </trkpt>
      <trkpt lat="49.49829" lon="5.9043">
        <ele>398.6</ele>
        <time>2012-09-22T13:58:38Z</time>
      </trkpt>
      <trkpt lat="49.49821" lon="5.90428">
        <ele>397.64</ele>
        <time>2012-09-22T13:58:45Z</time>
      </trkpt>
      <trkpt lat="49.49826" lon="5.90427">
        <ele>398.12</ele>
        <time>2012-09-22T13:59:14Z</time>
      </trkpt>
      <trkpt lat="49.49827" lon="5.90427">
        <ele>398.6</ele>
        <time>2012-09-22T13:59:15Z</time>
      </trkpt>
      <trkpt lat="49.49829" lon="5.90428">
        <ele>398.6</ele>
        <time>2012-09-22T13:59:17Z</time>
      </trkpt>
      <trkpt lat="49.49831" lon="5.90427">
        <ele>398.6</ele>
        <time>2012-09-22T13:59:18Z</time>
      </trkpt>
      <trkpt lat="49.49833" lon="5.90428">
        <ele>398.6</ele>
        <time>2012-09-22T13:59:19Z</time>
      </trkpt>
      <trkpt lat="49.49835" lon="5.90429">
        <ele>398.6</ele>
        <time>2012-09-22T13:59:20Z</time>
      </trkpt>
      <trkpt lat="49.49837" lon="5.9043">
        <ele>399.08</ele>
        <time>2012-09-22T13:59:21Z</time>
      </trkpt>
      <trkpt lat="49.4984" lon="5.90431">
        <ele>399.57</ele>
        <time>2012-09-22T13:59:22Z</time>
      </trkpt>
      <trkpt lat="49.49842" lon="5.90432">
        <ele>400.05</ele>
        <time>2012-09-22T13:59:23Z</time>
      </trkpt>
      <trkpt lat="49.49845" lon="5.90432">
        <ele>401.01</ele>
        <time>2012-09-22T13:59:24Z</time>
      </trkpt>
      <trkpt lat="49.49847" lon="5.90432">
        <ele>400.53</ele>
        <time>2012-09-22T13:59:25Z</time>
      </trkpt>
      <trkpt lat="49.4985" lon="5.90432">
        <ele>400.53</ele>
        <time>2012-09-22T13:59:26Z</time>
      </trkpt>
      <trkpt lat="49.49867" lon="5.90437">
        <ele>401.97</ele>
        <time>2012-09-22T13:59:37Z</time>
      </trkpt>
      <trkpt lat="49.4987" lon="5.90435">
        <ele>403.41</ele>
        <time>2012-09-22T14:00:03Z</time>
      </trkpt>
      <trkpt lat="49.4987" lon="5.90435">
        <ele>402.45</ele>
        <time>2012-09-22T14:00:04Z</time>
      </trkpt>
      <trkpt lat="49.49869" lon="5.90435">
        <ele>401.49</ele>
        <time>2012-09-22T14:00:06Z</time>
      </trkpt>
      <trkpt lat="49.49868" lon="5.90435">
        <ele>401.01</ele>
        <time>2012-09-22T14:00:07Z</time>
      </trkpt>
      <trkpt lat="49.49866" lon="5.90434">
        <ele>401.01</ele>
        <time>2012-09-22T14:00:08Z</time>
      </trkpt>
      <trkpt lat="49.49864" lon="5.90432">
        <ele>401.97</ele>
        <time>2012-09-22T14:00:09Z</time>
      </trkpt>
      <trkpt lat="49.49861" lon="5.90431">
        <ele>401.49</ele>
        <time>2012-09-22T14:00:10Z</time>
      </trkpt>
      <trkpt lat="49.49859" lon="5.9043">
        <ele>401.49</ele>
        <time>2012-09-22T14:00:11Z</time>
      </trkpt>
      <trkpt lat="49.49856" lon="5.9043">
        <ele>400.05</ele>
        <time>2012-09-22T14:00:12Z</time>
      </trkpt>
      <trkpt lat="49.49853" lon="5.90429">
        <ele>400.53</ele>
        <time>2012-09-22T14:00:13Z</time>
      </trkpt>
      <trkpt lat="49.49849" lon="5.90429">
        <ele>399.57</ele>
        <time>2012-09-22T14:00:14Z</time>
      </trkpt>
      <trkpt lat="49.49844" lon="5.9043">
        <ele>400.53</ele>
        <time>2012-09-22T14:00:15Z</time>
      </trkpt>
      <trkpt lat="49.49839" lon="5.90429">
        <ele>399.57</ele>
        <time>2012-09-22T14:00:16Z</time>
      </trkpt>
      <trkpt lat="49.49834" lon="5.90428">
        <ele>399.08</ele>
        <time>2012-09-22T14:00:17Z</time>
      </trkpt>
      <trkpt lat="49.49829" lon="5.90427">
        <ele>400.05</ele>
        <time>2012-09-22T14:00:18Z</time>
      </trkpt>
      <trkpt lat="49.49824" lon="5.90427">
        <ele>398.12</ele>
        <time>2012-09-22T14:00:19Z</time>
      </trkpt>
      <trkpt lat="49.49819" lon="5.90426">
        <ele>397.64</ele>
        <time>2012-09-22T14:00:20Z</time>
      </trkpt>
      <trkpt lat="49.49814" lon="5.90424">
        <ele>397.64</ele>
        <time>2012-09-22T14:00:21Z</time>
      </trkpt>
      <trkpt lat="49.49809" lon="5.90423">
        <ele>394.76</ele>
        <time>2012-09-22T14:00:22Z</time>
      </trkpt>
      <trkpt lat="49.49804" lon="5.90421">
        <ele>394.76</ele>
        <time>2012-09-22T14:00:23Z</time>
      </trkpt>
      <trkpt lat="49.498" lon="5.9042">
        <ele>395.24</ele>
        <time>2012-09-22T14:00:24Z</time>
      </trkpt>
      <trkpt lat="49.49773" lon="5.90411">
        <ele>391.39</ele>
        <time>2012-09-22T14:00:29Z</time>
      </trkpt>
      <trkpt lat="49.49756" lon="5.90405">
        <ele>391.87</ele>
        <time>2012-09-22T14:00:32Z</time>
      </trkpt>
      <trkpt lat="49.49752" lon="5.90403">
        <ele>389.95</ele>
        <time>2012-09-22T14:00:33Z</time>
      </trkpt>
      <trkpt lat="49.49749" lon="5.90402">
        <ele>390.43</ele>
        <time>2012-09-22T14:00:34Z</time>
      </trkpt>
      <trkpt lat="49.49746" lon="5.90401">
        <ele>390.91</ele>
        <time>2012-09-22T14:00:35Z</time>
      </trkpt>
      <trkpt lat="49.49744" lon="5.90402">
        <ele>390.91</ele>
        <time>2012-09-22T14:00:36Z</time>
      </trkpt>
      <trkpt lat="49.49741" lon="5.90403">
        <ele>391.39</ele>
        <time>2012-09-22T14:00:37Z</time>
      </trkpt>
      <trkpt lat="49.49738" lon="5.90404">
        <ele>390.43</ele>
        <time>2012-09-22T14:00:38Z</time>
      </trkpt>
      <trkpt lat="49.49736" lon="5.90404">
        <ele>392.36</ele>
        <time>2012-09-22T14:00:39Z</time>
      </trkpt>
      <trkpt lat="49.49731" lon="5.90406">
        <ele>392.36</ele>
        <time>2012-09-22T14:00:41Z</time>
      </trkpt>
      <trkpt lat="49.4973" lon="5.90409">
        <ele>392.36</ele>
        <time>2012-09-22T14:00:42Z</time>
      </trkpt>
      <trkpt lat="49.49729" lon="5.90413">
        <ele>391.87</ele>
        <time>2012-09-22T14:00:43Z</time>
      </trkpt>
      <trkpt lat="49.49727" lon="5.90416">
        <ele>390.43</ele>
        <time>2012-09-22T14:00:44Z</time>
      </trkpt>
      <trkpt lat="49.49724" lon="5.90418">
        <ele>389.95</ele>
        <time>2012-09-22T14:00:45Z</time>
      </trkpt>
      <trkpt lat="49.49719" lon="5.90419">
        <ele>388.99</ele>
        <time>2012-09-22T14:00:46Z</time>
      </trkpt>
      <trkpt lat="49.49714" lon="5.9042">
        <ele>389.95</ele>
        <time>2012-09-22T14:00:47Z</time>
      </trkpt>
      <trkpt lat="49.49656" lon="5.9042">
        <ele>388.51</ele>
        <time>2012-09-22T14:01:00Z</time>
      </trkpt>
      <trkpt lat="49.49616" lon="5.90417">
        <ele>389.47</ele>
        <time>2012-09-22T14:01:10Z</time>
      </trkpt>
      <trkpt lat="49.49607" lon="5.90411">
        <ele>388.03</ele>
        <time>2012-09-22T14:01:13Z</time>
      </trkpt>
      <trkpt lat="49.49606" lon="5.90409">
        <ele>388.51</ele>
        <time>2012-09-22T14:01:14Z</time>
      </trkpt>
      <trkpt lat="49.49605" lon="5.90406">
        <ele>388.03</ele>
        <time>2012-09-22T14:01:15Z</time>
      </trkpt>
      <trkpt lat="49.49605" lon="5.90405">
        <ele>388.99</ele>
        <time>2012-09-22T14:01:16Z</time>
      </trkpt>
      <trkpt lat="49.496" lon="5.90404">
        <ele>388.03</ele>
        <time>2012-09-22T14:01:25Z</time>
      </trkpt>
      <trkpt lat="49.49598" lon="5.90406">
        <ele>388.03</ele>
        <time>2012-09-22T14:01:28Z</time>
      </trkpt>
      <trkpt lat="49.49596" lon="5.90407">
        <ele>388.03</ele>
        <time>2012-09-22T14:01:29Z</time>
      </trkpt>
      <trkpt lat="49.49591" lon="5.90411">
        <ele>388.51</ele>
        <time>2012-09-22T14:01:31Z</time>
      </trkpt>
      <trkpt lat="49.49589" lon="5.90416">
        <ele>388.51</ele>
        <time>2012-09-22T14:01:32Z</time>
      </trkpt>
      <trkpt lat="49.49588" lon="5.90422">
        <ele>388.99</ele>
        <time>2012-09-22T14:01:33Z</time>
      </trkpt>
      <trkpt lat="49.49587" lon="5.90429">
        <ele>387.55</ele>
        <time>2012-09-22T14:01:34Z</time>
      </trkpt>
      <trkpt lat="49.49585" lon="5.90435">
        <ele>388.99</ele>
        <time>2012-09-22T14:01:35Z</time>
      </trkpt>
      <trkpt lat="49.4958" lon="5.90469">
        <ele>389.47</ele>
        <time>2012-09-22T14:01:40Z</time>
      </trkpt>
      <trkpt lat="49.49576" lon="5.90488">
        <ele>390.43</ele>
        <time>2012-09-22T14:01:49Z</time>
      </trkpt>
      <trkpt lat="49.49576" lon="5.90495">
        <ele>391.39</ele>
        <time>2012-09-22T14:01:53Z</time>
      </trkpt>
      <trkpt lat="49.49573" lon="5.90497">
        <ele>391.39</ele>
        <time>2012-09-22T14:01:54Z</time>
      </trkpt>
      <trkpt lat="49.49569" lon="5.905">
        <ele>390.43</ele>
        <time>2012-09-22T14:01:56Z</time>
      </trkpt>
      <trkpt lat="49.49567" lon="5.90503">
        <ele>390.91</ele>
        <time>2012-09-22T14:01:57Z</time>
      </trkpt>
      <trkpt lat="49.49566" lon="5.90507">
        <ele>390.91</ele>
        <time>2012-09-22T14:01:58Z</time>
      </trkpt>
      <trkpt lat="49.49565" lon="5.90511">
        <ele>391.39</ele>
        <time>2012-09-22T14:01:59Z</time>
      </trkpt>
      <trkpt lat="49.49565" lon="5.90516">
        <ele>390.91</ele>
        <time>2012-09-22T14:02:00Z</time>
      </trkpt>
      <trkpt lat="49.49564" lon="5.9052">
        <ele>391.39</ele>
        <time>2012-09-22T14:02:01Z</time>
      </trkpt>
      <trkpt lat="49.49564" lon="5.90525">
        <ele>392.36</ele>
        <time>2012-09-22T14:02:02Z</time>
      </trkpt>
      <trkpt lat="49.49564" lon="5.90529">
        <ele>391.87</ele>
        <time>2012-09-22T14:02:03Z</time>
      </trkpt>
      <trkpt lat="49.49563" lon="5.90534">
        <ele>392.36</ele>
        <time>2012-09-22T14:02:04Z</time>
      </trkpt>
      <trkpt lat="49.49562" lon="5.90538">
        <ele>393.32</ele>
        <time>2012-09-22T14:02:05Z</time>
      </trkpt>
      <trkpt lat="49.49561" lon="5.90542">
        <ele>392.84</ele>
        <time>2012-09-22T14:02:06Z</time>
      </trkpt>
      <trkpt lat="49.4956" lon="5.90547">
        <ele>391.39</ele>
        <time>2012-09-22T14:02:07Z</time>
      </trkpt>
      <trkpt lat="49.49552" lon="5.90559">
        <ele>392.84</ele>
        <time>2012-09-22T14:02:11Z</time>
      </trkpt>
      <trkpt lat="49.49549" lon="5.9056">
        <ele>392.36</ele>
        <time>2012-09-22T14:02:12Z</time>
      </trkpt>
      <trkpt lat="49.49546" lon="5.90563">
        <ele>392.84</ele>
        <time>2012-09-22T14:02:13Z</time>
      </trkpt>
      <trkpt lat="49.49544" lon="5.90565">
        <ele>392.84</ele>
        <time>2012-09-22T14:02:14Z</time>
      </trkpt>
      <trkpt lat="49.49541" lon="5.90566">
        <ele>393.8</ele>
        <time>2012-09-22T14:02:15Z</time>
      </trkpt>
      <trkpt lat="49.49538" lon="5.90567">
        <ele>393.8</ele>
        <time>2012-09-22T14:02:16Z</time>
      </trkpt>
      <trkpt lat="49.49536" lon="5.90569">
        <ele>393.8</ele>
        <time>2012-09-22T14:02:17Z</time>
      </trkpt>
      <trkpt lat="49.49533" lon="5.90571">
        <ele>395.24</ele>
        <time>2012-09-22T14:02:18Z</time>
      </trkpt>
      <trkpt lat="49.49531" lon="5.90576">
        <ele>395.24</ele>
        <time>2012-09-22T14:02:19Z</time>
      </trkpt>
      <trkpt lat="49.49528" lon="5.90578">
        <ele>395.24</ele>
        <time>2012-09-22T14:02:20Z</time>
      </trkpt>
      <trkpt lat="49.49525" lon="5.90582">
        <ele>395.72</ele>
        <time>2012-09-22T14:02:21Z</time>
      </trkpt>
      <trkpt lat="49.49517" lon="5.90592">
        <ele>395.24</ele>
        <time>2012-09-22T14:02:24Z</time>
      </trkpt>
      <trkpt lat="49.49512" lon="5.90602">
        <ele>396.2</ele>
        <time>2012-09-22T14:02:27Z</time>
      </trkpt>
      <trkpt lat="49.49512" lon="5.90606">
        <ele>396.2</ele>
        <time>2012-09-22T14:02:28Z</time>
      </trkpt>
      <trkpt lat="49.49512" lon="5.90611">
        <ele>395.24</ele>
        <time>2012-09-22T14:02:29Z</time>
      </trkpt>
      <trkpt lat="49.49513" lon="5.90615">
        <ele>396.68</ele>
        <time>2012-09-22T14:02:30Z</time>
      </trkpt>
      <trkpt lat="49.49515" lon="5.90618">
        <ele>397.16</ele>
        <time>2012-09-22T14:02:31Z</time>
      </trkpt>
      <trkpt lat="49.49517" lon="5.9062">
        <ele>396.68</ele>
        <time>2012-09-22T14:02:32Z</time>
      </trkpt>
      <trkpt lat="49.4952" lon="5.90621">
        <ele>396.68</ele>
        <time>2012-09-22T14:02:33Z</time>
      </trkpt>
      <trkpt lat="49.49522" lon="5.90623">
        <ele>397.16</ele>
        <time>2012-09-22T14:02:34Z</time>
      </trkpt>
      <trkpt lat="49.49525" lon="5.90626">
        <ele>396.68</ele>
        <time>2012-09-22T14:02:35Z</time>
      </trkpt>
      <trkpt lat="49.49527" lon="5.90629">
        <ele>397.16</ele>
        <time>2012-09-22T14:02:36Z</time>
      </trkpt>
      <trkpt lat="49.49529" lon="5.90632">
        <ele>397.16</ele>
        <time>2012-09-22T14:02:37Z</time>
      </trkpt>
      <trkpt lat="49.49531" lon="5.90636">
        <ele>396.2</ele>
        <time>2012-09-22T14:02:38Z</time>
      </trkpt>
      <trkpt lat="49.49532" lon="5.90639">
        <ele>395.24</ele>
        <time>2012-09-22T14:02:39Z</time>
      </trkpt>
      <trkpt lat="49.49533" lon="5.90643">
        <ele>395.72</ele>
        <time>2012-09-22T14:02:40Z</time>
      </trkpt>
      <trkpt lat="49.49538" lon="5.90659">
        <ele>392.36</ele>
        <time>2012-09-22T14:02:43Z</time>
      </trkpt>
      <trkpt lat="49.49542" lon="5.90673">
        <ele>390.43</ele>
        <time>2012-09-22T14:02:46Z</time>
      </trkpt>
      <trkpt lat="49.49546" lon="5.90694">
        <ele>388.03</ele>
        <time>2012-09-22T14:02:49Z</time>
      </trkpt>
      <trkpt lat="49.49548" lon="5.90701">
        <ele>387.55</ele>
        <time>2012-09-22T14:02:50Z</time>
      </trkpt>
      <trkpt lat="49.49549" lon="5.90707">
        <ele>387.07</ele>
        <time>2012-09-22T14:02:51Z</time>
      </trkpt>
      <trkpt lat="49.49552" lon="5.90714">
        <ele>387.07</ele>
        <time>2012-09-22T14:02:52Z</time>
      </trkpt>
      <trkpt lat="49.49555" lon="5.90722">
        <ele>387.07</ele>
        <time>2012-09-22T14:02:53Z</time>
      </trkpt>
      <trkpt lat="49.49558" lon="5.90729">
        <ele>387.07</ele>
        <time>2012-09-22T14:02:54Z</time>
      </trkpt>
      <trkpt lat="49.49561" lon="5.90737">
        <ele>387.55</ele>
        <time>2012-09-22T14:02:55Z</time>
      </trkpt>
      <trkpt lat="49.49565" lon="5.90746">
        <ele>386.59</ele>
        <time>2012-09-22T14:02:56Z</time>
      </trkpt>
      <trkpt lat="49.49569" lon="5.90755">
        <ele>386.11</ele>
        <time>2012-09-22T14:02:57Z</time>
      </trkpt>
      <trkpt lat="49.49598" lon="5.90821">
        <ele>388.03</ele>
        <time>2012-09-22T14:03:05Z</time>
      </trkpt>
      <trkpt lat="49.49603" lon="5.90835">
        <ele>387.55</ele>
        <time>2012-09-22T14:03:07Z</time>
      </trkpt>
      <trkpt lat="49.49605" lon="5.90841">
        <ele>386.11</ele>
        <time>2012-09-22T14:03:08Z</time>
      </trkpt>
      <trkpt lat="49.49629" lon="5.90881">
        <ele>387.55</ele>
        <time>2012-09-22T14:03:15Z</time>
      </trkpt>
      <trkpt lat="49.49631" lon="5.90884">
        <ele>388.03</ele>
        <time>2012-09-22T14:03:16Z</time>
      </trkpt>
      <trkpt lat="49.49634" lon="5.90888">
        <ele>387.55</ele>
        <time>2012-09-22T14:03:17Z</time>
      </trkpt>
      <trkpt lat="49.49666" lon="5.90929">
        <ele>388.03</ele>
        <time>2012-09-22T14:03:27Z</time>
      </trkpt>
      <trkpt lat="49.49675" lon="5.9094">
        <ele>388.03</ele>
        <time>2012-09-22T14:03:29Z</time>
      </trkpt>
      <trkpt lat="49.497" lon="5.90982">
        <ele>387.55</ele>
        <time>2012-09-22T14:03:36Z</time>
      </trkpt>
      <trkpt lat="49.49703" lon="5.90988">
        <ele>388.51</ele>
        <time>2012-09-22T14:03:37Z</time>
      </trkpt>
      <trkpt lat="49.49705" lon="5.90994">
        <ele>387.07</ele>
        <time>2012-09-22T14:03:38Z</time>
      </trkpt>
      <trkpt lat="49.49707" lon="5.90999">
        <ele>387.07</ele>
        <time>2012-09-22T14:03:39Z</time>
      </trkpt>
      <trkpt lat="49.49708" lon="5.91003">
        <ele>386.59</ele>
        <time>2012-09-22T14:03:40Z</time>
      </trkpt>
      <trkpt lat="49.4971" lon="5.91007">
        <ele>387.07</ele>
        <time>2012-09-22T14:03:41Z</time>
      </trkpt>
      <trkpt lat="49.49712" lon="5.91016">
        <ele>384.66</ele>
        <time>2012-09-22T14:03:44Z</time>
      </trkpt>
      <trkpt lat="49.49712" lon="5.91019">
        <ele>384.18</ele>
        <time>2012-09-22T14:03:45Z</time>
      </trkpt>
      <trkpt lat="49.49711" lon="5.91022">
        <ele>383.22</ele>
        <time>2012-09-22T14:03:46Z</time>
      </trkpt>
      <trkpt lat="49.4971" lon="5.91025">
        <ele>383.22</ele>
        <time>2012-09-22T14:03:47Z</time>
      </trkpt>
      <trkpt lat="49.49709" lon="5.91029">
        <ele>382.74</ele>
        <time>2012-09-22T14:03:48Z</time>
      </trkpt>
      <trkpt lat="49.49704" lon="5.91045">
        <ele>378.42</ele>
        <time>2012-09-22T14:03:52Z</time>
      </trkpt>
      <trkpt lat="49.49702" lon="5.91049">
        <ele>376.49</ele>
        <time>2012-09-22T14:03:53Z</time>
      </trkpt>
      <trkpt lat="49.49693" lon="5.91065">
        <ele>373.61</ele>
        <time>2012-09-22T14:03:57Z</time>
      </trkpt>
      <trkpt lat="49.49677" lon="5.91055">
        <ele>372.65</ele>
        <time>2012-09-22T14:04:02Z</time>
      </trkpt>
      <trkpt lat="49.4967" lon="5.91044">
        <ele>371.69</ele>
        <time>2012-09-22T14:04:04Z</time>
      </trkpt>
      <trkpt lat="49.49661" lon="5.91029">
        <ele>372.17</ele>
        <time>2012-09-22T14:04:07Z</time>
      </trkpt>
      <trkpt lat="49.49658" lon="5.91024">
        <ele>371.69</ele>
        <time>2012-09-22T14:04:08Z</time>
      </trkpt>
      <trkpt lat="49.49656" lon="5.9102">
        <ele>371.21</ele>
        <time>2012-09-22T14:04:09Z</time>
      </trkpt>
      <trkpt lat="49.49653" lon="5.91018">
        <ele>371.69</ele>
        <time>2012-09-22T14:04:10Z</time>
      </trkpt>
      <trkpt lat="49.4965" lon="5.91016">
        <ele>371.21</ele>
        <time>2012-09-22T14:04:11Z</time>
      </trkpt>
      <trkpt lat="49.49646" lon="5.91015">
        <ele>370.73</ele>
        <time>2012-09-22T14:04:12Z</time>
      </trkpt>
      <trkpt lat="49.49642" lon="5.91014">
        <ele>371.69</ele>
        <time>2012-09-22T14:04:13Z</time>
      </trkpt>
      <trkpt lat="49.49638" lon="5.91014">
        <ele>371.21</ele>
        <time>2012-09-22T14:04:14Z</time>
      </trkpt>
      <trkpt lat="49.49634" lon="5.91013">
        <ele>371.69</ele>
        <time>2012-09-22T14:04:15Z</time>
      </trkpt>
      <trkpt lat="49.4963" lon="5.91011">
        <ele>371.69</ele>
        <time>2012-09-22T14:04:16Z</time>
      </trkpt>
      <trkpt lat="49.49621" lon="5.91008">
        <ele>369.28</ele>
        <time>2012-09-22T14:04:18Z</time>
      </trkpt>
      <trkpt lat="49.49616" lon="5.91005">
        <ele>367.84</ele>
        <time>2012-09-22T14:04:19Z</time>
      </trkpt>
      <trkpt lat="49.4961" lon="5.91002">
        <ele>367.84</ele>
        <time>2012-09-22T14:04:20Z</time>
      </trkpt>
      <trkpt lat="49.49594" lon="5.90995">
        <ele>367.84</ele>
        <time>2012-09-22T14:04:23Z</time>
      </trkpt>
      <trkpt lat="49.4959" lon="5.90991">
        <ele>367.36</ele>
        <time>2012-09-22T14:04:24Z</time>
      </trkpt>
      <trkpt lat="49.49586" lon="5.90986">
        <ele>366.88</ele>
        <time>2012-09-22T14:04:25Z</time>
      </trkpt>
      <trkpt lat="49.49582" lon="5.9098">
        <ele>366.88</ele>
        <time>2012-09-22T14:04:26Z</time>
      </trkpt>
      <trkpt lat="49.49578" lon="5.90975">
        <ele>366.4</ele>
        <time>2012-09-22T14:04:27Z</time>
      </trkpt>
      <trkpt lat="49.49573" lon="5.90969">
        <ele>366.88</ele>
        <time>2012-09-22T14:04:28Z</time>
      </trkpt>
      <trkpt lat="49.49567" lon="5.90963">
        <ele>366.88</ele>
        <time>2012-09-22T14:04:29Z</time>
      </trkpt>
      <trkpt lat="49.49536" lon="5.90937">
        <ele>367.36</ele>
        <time>2012-09-22T14:04:35Z</time>
      </trkpt>
      <trkpt lat="49.49532" lon="5.9093">
        <ele>366.88</ele>
        <time>2012-09-22T14:04:36Z</time>
      </trkpt>
      <trkpt lat="49.49519" lon="5.90903">
        <ele>367.84</ele>
        <time>2012-09-22T14:04:40Z</time>
      </trkpt>
      <trkpt lat="49.49515" lon="5.90878">
        <ele>368.32</ele>
        <time>2012-09-22T14:04:44Z</time>
      </trkpt>
      <trkpt lat="49.49522" lon="5.9084">
        <ele>368.8</ele>
        <time>2012-09-22T14:04:55Z</time>
      </trkpt>
      <trkpt lat="49.49538" lon="5.90818">
        <ele>369.76</ele>
        <time>2012-09-22T14:05:11Z</time>
      </trkpt>
      <trkpt lat="49.49564" lon="5.908">
        <ele>370.73</ele>
        <time>2012-09-22T14:05:37Z</time>
      </trkpt>
      <trkpt lat="49.49564" lon="5.908">
        <ele>372.17</ele>
        <time>2012-09-22T14:05:48Z</time>
      </trkpt>
      <trkpt lat="49.49564" lon="5.908">
        <ele>372.17</ele>
        <time>2012-09-22T14:05:53Z</time>
      </trkpt>
      <trkpt lat="49.49564" lon="5.908">
        <ele>371.69</ele>
        <time>2012-09-22T14:06:13Z</time>
      </trkpt>
      <trkpt lat="49.49564" lon="5.908">
        <ele>374.09</ele>
        <time>2012-09-22T14:06:15Z</time>
      </trkpt>
      <trkpt lat="49.49564" lon="5.908">
        <ele>372.65</ele>
        <time>2012-09-22T14:06:16Z</time>
      </trkpt>
      <trkpt lat="49.49564" lon="5.908">
        <ele>375.05</ele>
        <time>2012-09-22T14:06:37Z</time>
      </trkpt>
      <trkpt lat="49.49564" lon="5.908">
        <ele>374.57</ele>
        <time>2012-09-22T14:06:43Z</time>
      </trkpt>
      <trkpt lat="49.49564" lon="5.908">
        <ele>376.01</ele>
        <time>2012-09-22T14:06:47Z</time>
      </trkpt>
      <trkpt lat="49.49564" lon="5.908">
        <ele>375.53</ele>
        <time>2012-09-22T14:06:51Z</time>
      </trkpt>
      <trkpt lat="49.49762" lon="5.90335">
        <ele>375.05</ele>
        <time>2012-09-22T14:06:55Z</time>
      </trkpt>
      <trkpt lat="49.49758" lon="5.90326">
        <ele>375.05</ele>
        <time>2012-09-22T14:07:02Z</time>
      </trkpt>
      <trkpt lat="49.49759" lon="5.90283">
        <ele>376.97</ele>
        <time>2012-09-22T14:07:14Z</time>
      </trkpt>
      <trkpt lat="49.49759" lon="5.90262">
        <ele>376.01</ele>
        <time>2012-09-22T14:07:19Z</time>
      </trkpt>
      <trkpt lat="49.49758" lon="5.90232">
        <ele>376.97</ele>
        <time>2012-09-22T14:07:27Z</time>
      </trkpt>
      <trkpt lat="49.49759" lon="5.90192">
        <ele>376.49</ele>
        <time>2012-09-22T14:07:36Z</time>
      </trkpt>
      <trkpt lat="49.49757" lon="5.90184">
        <ele>376.49</ele>
        <time>2012-09-22T14:07:40Z</time>
      </trkpt>
      <trkpt lat="49.49752" lon="5.90138">
        <ele>376.49</ele>
        <time>2012-09-22T14:07:50Z</time>
      </trkpt>
      <trkpt lat="49.49747" lon="5.90071">
        <ele>376.49</ele>
        <time>2012-09-22T14:08:01Z</time>
      </trkpt>
      <trkpt lat="49.49743" lon="5.9003">
        <ele>376.01</ele>
        <time>2012-09-22T14:08:09Z</time>
      </trkpt>
      <trkpt lat="49.49723" lon="5.89998">
        <ele>376.49</ele>
        <time>2012-09-22T14:08:17Z</time>
      </trkpt>
      <trkpt lat="49.49718" lon="5.89973">
        <ele>376.49</ele>
        <time>2012-09-22T14:08:23Z</time>
      </trkpt>
      <trkpt lat="49.4971" lon="5.89958">
        <ele>376.97</ele>
        <time>2012-09-22T14:08:28Z</time>
      </trkpt>
      <trkpt lat="49.49705" lon="5.8993">
        <ele>376.01</ele>
        <time>2012-09-22T14:08:32Z</time>
      </trkpt>
      <trkpt lat="49.49671" lon="5.89847">
        <ele>376.01</ele>
        <time>2012-09-22T14:08:45Z</time>
      </trkpt>
      <trkpt lat="49.49669" lon="5.8984">
        <ele>376.49</ele>
        <time>2012-09-22T14:08:46Z</time>
      </trkpt>
      <trkpt lat="49.49666" lon="5.89834">
        <ele>376.01</ele>
        <time>2012-09-22T14:08:47Z</time>
      </trkpt>
      <trkpt lat="49.49664" lon="5.8983">
        <ele>376.49</ele>
        <time>2012-09-22T14:08:48Z</time>
      </trkpt>
      <trkpt lat="49.49661" lon="5.89828">
        <ele>375.53</ele>
        <time>2012-09-22T14:08:49Z</time>
      </trkpt>
      <trkpt lat="49.4966" lon="5.89826">
        <ele>376.49</ele>
        <time>2012-09-22T14:08:50Z</time>
      </trkpt>
      <trkpt lat="49.4966" lon="5.89822">
        <ele>375.53</ele>
        <time>2012-09-22T14:08:51Z</time>
      </trkpt>
      <trkpt lat="49.49661" lon="5.89817">
        <ele>377.45</ele>
        <time>2012-09-22T14:08:52Z</time>
      </trkpt>
      <trkpt lat="49.4965" lon="5.89765">
        <ele>376.01</ele>
        <time>2012-09-22T14:09:01Z</time>
      </trkpt>
      <trkpt lat="49.49648" lon="5.89758">
        <ele>375.05</ele>
        <time>2012-09-22T14:09:02Z</time>
      </trkpt>
      <trkpt lat="49.49641" lon="5.89725">
        <ele>375.53</ele>
        <time>2012-09-22T14:09:07Z</time>
      </trkpt>
      <trkpt lat="49.49638" lon="5.8972">
        <ele>377.45</ele>
        <time>2012-09-22T14:09:08Z</time>
      </trkpt>
      <trkpt lat="49.49622" lon="5.89658">
        <ele>376.97</ele>
        <time>2012-09-22T14:09:18Z</time>
      </trkpt>
      <trkpt lat="49.4962" lon="5.89652">
        <ele>376.49</ele>
        <time>2012-09-22T14:09:19Z</time>
      </trkpt>
      <trkpt lat="49.49615" lon="5.8964">
        <ele>376.01</ele>
        <time>2012-09-22T14:09:21Z</time>
      </trkpt>
      <trkpt lat="49.49617" lon="5.89572">
        <ele>376.01</ele>
        <time>2012-09-22T14:09:32Z</time>
      </trkpt>
      <trkpt lat="49.49621" lon="5.89532">
        <ele>375.53</ele>
        <time>2012-09-22T14:09:41Z</time>
      </trkpt>
      <trkpt lat="49.49625" lon="5.89488">
        <ele>376.01</ele>
        <time>2012-09-22T14:09:49Z</time>
      </trkpt>
      <trkpt lat="49.49627" lon="5.89481">
        <ele>375.05</ele>
        <time>2012-09-22T14:09:51Z</time>
      </trkpt>
      <trkpt lat="49.49629" lon="5.89426">
        <ele>376.49</ele>
        <time>2012-09-22T14:10:05Z</time>
      </trkpt>
      <trkpt lat="49.49629" lon="5.89421">
        <ele>376.01</ele>
        <time>2012-09-22T14:10:06Z</time>
      </trkpt>
      <trkpt lat="49.49632" lon="5.89393">
        <ele>376.01</ele>
        <time>2012-09-22T14:10:13Z</time>
      </trkpt>
      <trkpt lat="49.49631" lon="5.8939">
        <ele>376.01</ele>
        <time>2012-09-22T14:10:14Z</time>
      </trkpt>
      <trkpt lat="49.4963" lon="5.89387">
        <ele>376.49</ele>
        <time>2012-09-22T14:10:15Z</time>
      </trkpt>
      <trkpt lat="49.4963" lon="5.89385">
        <ele>376.01</ele>
        <time>2012-09-22T14:10:16Z</time>
      </trkpt>
      <trkpt lat="49.4963" lon="5.89382">
        <ele>375.05</ele>
        <time>2012-09-22T14:10:17Z</time>
      </trkpt>
      <trkpt lat="49.49631" lon="5.89378">
        <ele>375.53</ele>
        <time>2012-09-22T14:10:18Z</time>
      </trkpt>
      <trkpt lat="49.49633" lon="5.89374">
        <ele>376.01</ele>
        <time>2012-09-22T14:10:19Z</time>
      </trkpt>
      <trkpt lat="49.49635" lon="5.8937">
        <ele>375.53</ele>
        <time>2012-09-22T14:10:20Z</time>
      </trkpt>
      <trkpt lat="49.49635" lon="5.89366">
        <ele>376.01</ele>
        <time>2012-09-22T14:10:21Z</time>
      </trkpt>
      <trkpt lat="49.49635" lon="5.89362">
        <ele>376.49</ele>
        <time>2012-09-22T14:10:22Z</time>
      </trkpt>
      <trkpt lat="49.49637" lon="5.89347">
        <ele>376.01</ele>
        <time>2012-09-22T14:10:26Z</time>
      </trkpt>
      <trkpt lat="49.49638" lon="5.89345">
        <ele>376.01</ele>
        <time>2012-09-22T14:10:27Z</time>
      </trkpt>
      <trkpt lat="49.4964" lon="5.89342">
        <ele>375.53</ele>
        <time>2012-09-22T14:10:28Z</time>
      </trkpt>
      <trkpt lat="49.49641" lon="5.89338">
        <ele>376.49</ele>
        <time>2012-09-22T14:10:29Z</time>
      </trkpt>
      <trkpt lat="49.49641" lon="5.89334">
        <ele>375.53</ele>
        <time>2012-09-22T14:10:30Z</time>
      </trkpt>
      <trkpt lat="49.49641" lon="5.8933">
        <ele>376.01</ele>
        <time>2012-09-22T14:10:31Z</time>
      </trkpt>
      <trkpt lat="49.49641" lon="5.89325">
        <ele>376.01</ele>
        <time>2012-09-22T14:10:32Z</time>
      </trkpt>
      <trkpt lat="49.49641" lon="5.89321">
        <ele>376.01</ele>
        <time>2012-09-22T14:10:33Z</time>
      </trkpt>
      <trkpt lat="49.49641" lon="5.89317">
        <ele>376.01</ele>
        <time>2012-09-22T14:10:34Z</time>
      </trkpt>
      <trkpt lat="49.49641" lon="5.89314">
        <ele>376.01</ele>
        <time>2012-09-22T14:10:35Z</time>
      </trkpt>
      <trkpt lat="49.49644" lon="5.89287">
        <ele>375.53</ele>
        <time>2012-09-22T14:10:40Z</time>
      </trkpt>
      <trkpt lat="49.4965" lon="5.89207">
        <ele>375.05</ele>
        <time>2012-09-22T14:10:51Z</time>
      </trkpt>
      <trkpt lat="49.49651" lon="5.89134">
        <ele>374.09</ele>
        <time>2012-09-22T14:11:01Z</time>
      </trkpt>
      <trkpt lat="49.49654" lon="5.89092">
        <ele>373.61</ele>
        <time>2012-09-22T14:11:06Z</time>
      </trkpt>
      <trkpt lat="49.49655" lon="5.89085">
        <ele>373.61</ele>
        <time>2012-09-22T14:11:07Z</time>
      </trkpt>
      <trkpt lat="49.49655" lon="5.89078">
        <ele>373.61</ele>
        <time>2012-09-22T14:11:08Z</time>
      </trkpt>
      <trkpt lat="49.49657" lon="5.89064">
        <ele>373.61</ele>
        <time>2012-09-22T14:11:10Z</time>
      </trkpt>
      <trkpt lat="49.49658" lon="5.89043">
        <ele>373.13</ele>
        <time>2012-09-22T14:11:13Z</time>
      </trkpt>
      <trkpt lat="49.49659" lon="5.89035">
        <ele>374.09</ele>
        <time>2012-09-22T14:11:14Z</time>
      </trkpt>
      <trkpt lat="49.49664" lon="5.8901">
        <ele>373.61</ele>
        <time>2012-09-22T14:11:17Z</time>
      </trkpt>
      <trkpt lat="49.49692" lon="5.88906">
        <ele>372.65</ele>
        <time>2012-09-22T14:11:29Z</time>
      </trkpt>
      <trkpt lat="49.49697" lon="5.88893">
        <ele>373.13</ele>
        <time>2012-09-22T14:11:31Z</time>
      </trkpt>
      <trkpt lat="49.49699" lon="5.88887">
        <ele>372.65</ele>
        <time>2012-09-22T14:11:32Z</time>
      </trkpt>
      <trkpt lat="49.49705" lon="5.88873">
        <ele>372.17</ele>
        <time>2012-09-22T14:11:35Z</time>
      </trkpt>
      <trkpt lat="49.49708" lon="5.88868">
        <ele>371.69</ele>
        <time>2012-09-22T14:11:36Z</time>
      </trkpt>
      <trkpt lat="49.49719" lon="5.88844">
        <ele>372.17</ele>
        <time>2012-09-22T14:11:40Z</time>
      </trkpt>
      <trkpt lat="49.49721" lon="5.88839">
        <ele>372.17</ele>
        <time>2012-09-22T14:11:41Z</time>
      </trkpt>
      <trkpt lat="49.49724" lon="5.88833">
        <ele>371.69</ele>
        <time>2012-09-22T14:11:42Z</time>
      </trkpt>
      <trkpt lat="49.49725" lon="5.8883">
        <ele>372.17</ele>
        <time>2012-09-22T14:11:43Z</time>
      </trkpt>
      <trkpt lat="49.49726" lon="5.88828">
        <ele>371.21</ele>
        <time>2012-09-22T14:11:44Z</time>
      </trkpt>
      <trkpt lat="49.49729" lon="5.88827">
        <ele>371.21</ele>
        <time>2012-09-22T14:11:55Z</time>
      </trkpt>
      <trkpt lat="49.49731" lon="5.88824">
        <ele>371.69</ele>
        <time>2012-09-22T14:11:57Z</time>
      </trkpt>
      <trkpt lat="49.49733" lon="5.88821">
        <ele>371.21</ele>
        <time>2012-09-22T14:11:58Z</time>
      </trkpt>
      <trkpt lat="49.49735" lon="5.88818">
        <ele>371.21</ele>
        <time>2012-09-22T14:11:59Z</time>
      </trkpt>
      <trkpt lat="49.49737" lon="5.88814">
        <ele>371.69</ele>
        <time>2012-09-22T14:12:00Z</time>
      </trkpt>
      <trkpt lat="49.49738" lon="5.8881">
        <ele>371.69</ele>
        <time>2012-09-22T14:12:01Z</time>
      </trkpt>
      <trkpt lat="49.4974" lon="5.88805">
        <ele>370.73</ele>
        <time>2012-09-22T14:12:02Z</time>
      </trkpt>
      <trkpt lat="49.49742" lon="5.888">
        <ele>370.73</ele>
        <time>2012-09-22T14:12:03Z</time>
      </trkpt>
      <trkpt lat="49.49744" lon="5.88796">
        <ele>371.21</ele>
        <time>2012-09-22T14:12:04Z</time>
      </trkpt>
      <trkpt lat="49.49747" lon="5.88792">
        <ele>371.21</ele>
        <time>2012-09-22T14:12:05Z</time>
      </trkpt>
      <trkpt lat="49.4975" lon="5.88787">
        <ele>371.21</ele>
        <time>2012-09-22T14:12:06Z</time>
      </trkpt>
      <trkpt lat="49.49762" lon="5.88766">
        <ele>371.21</ele>
        <time>2012-09-22T14:12:10Z</time>
      </trkpt>
      <trkpt lat="49.49765" lon="5.88761">
        <ele>370.24</ele>
        <time>2012-09-22T14:12:11Z</time>
      </trkpt>
      <trkpt lat="49.49768" lon="5.88757">
        <ele>370.73</ele>
        <time>2012-09-22T14:12:12Z</time>
      </trkpt>
      <trkpt lat="49.4977" lon="5.88753">
        <ele>370.24</ele>
        <time>2012-09-22T14:12:13Z</time>
      </trkpt>
      <trkpt lat="49.49795" lon="5.88702">
        <ele>370.73</ele>
        <time>2012-09-22T14:12:23Z</time>
      </trkpt>
      <trkpt lat="49.49807" lon="5.8868">
        <ele>370.24</ele>
        <time>2012-09-22T14:12:27Z</time>
      </trkpt>
      <trkpt lat="49.49811" lon="5.88676">
        <ele>370.24</ele>
        <time>2012-09-22T14:12:28Z</time>
      </trkpt>
      <trkpt lat="49.49814" lon="5.88673">
        <ele>369.28</ele>
        <time>2012-09-22T14:12:29Z</time>
      </trkpt>
      <trkpt lat="49.49818" lon="5.88671">
        <ele>369.76</ele>
        <time>2012-09-22T14:12:30Z</time>
      </trkpt>
      <trkpt lat="49.49821" lon="5.88669">
        <ele>369.76</ele>
        <time>2012-09-22T14:12:31Z</time>
      </trkpt>
      <trkpt lat="49.49825" lon="5.88666">
        <ele>369.28</ele>
        <time>2012-09-22T14:12:32Z</time>
      </trkpt>
      <trkpt lat="49.49828" lon="5.88663">
        <ele>370.24</ele>
        <time>2012-09-22T14:12:33Z</time>
      </trkpt>
      <trkpt lat="49.49831" lon="5.88659">
        <ele>369.76</ele>
        <time>2012-09-22T14:12:34Z</time>
      </trkpt>
      <trkpt lat="49.49846" lon="5.88633">
        <ele>369.76</ele>
        <time>2012-09-22T14:12:40Z</time>
      </trkpt>
      <trkpt lat="49.49853" lon="5.88614">
        <ele>370.24</ele>
        <time>2012-09-22T14:12:43Z</time>
      </trkpt>
      <trkpt lat="49.49854" lon="5.88608">
        <ele>370.24</ele>
        <time>2012-09-22T14:12:44Z</time>
      </trkpt>
      <trkpt lat="49.49857" lon="5.88595">
        <ele>369.76</ele>
        <time>2012-09-22T14:12:46Z</time>
      </trkpt>
      <trkpt lat="49.49874" lon="5.8853">
        <ele>368.32</ele>
        <time>2012-09-22T14:12:55Z</time>
      </trkpt>
      <trkpt lat="49.49875" lon="5.88523">
        <ele>367.36</ele>
        <time>2012-09-22T14:12:56Z</time>
      </trkpt>
      <trkpt lat="49.49878" lon="5.88493">
        <ele>368.32</ele>
        <time>2012-09-22T14:13:00Z</time>
      </trkpt>
      <trkpt lat="49.49879" lon="5.88477">
        <ele>369.28</ele>
        <time>2012-09-22T14:13:02Z</time>
      </trkpt>
      <trkpt lat="49.49878" lon="5.88468">
        <ele>368.32</ele>
        <time>2012-09-22T14:13:03Z</time>
      </trkpt>
      <trkpt lat="49.49877" lon="5.8846">
        <ele>369.28</ele>
        <time>2012-09-22T14:13:04Z</time>
      </trkpt>
      <trkpt lat="49.49876" lon="5.88452">
        <ele>369.28</ele>
        <time>2012-09-22T14:13:05Z</time>
      </trkpt>
      <trkpt lat="49.49877" lon="5.88431">
        <ele>369.76</ele>
        <time>2012-09-22T14:13:10Z</time>
      </trkpt>
      <trkpt lat="49.49874" lon="5.88425">
        <ele>368.32</ele>
        <time>2012-09-22T14:13:12Z</time>
      </trkpt>
      <trkpt lat="49.49871" lon="5.88423">
        <ele>368.8</ele>
        <time>2012-09-22T14:13:13Z</time>
      </trkpt>
      <trkpt lat="49.49864" lon="5.88413">
        <ele>368.32</ele>
        <time>2012-09-22T14:13:23Z</time>
      </trkpt>
      <trkpt lat="49.49864" lon="5.88413">
        <ele>367.36</ele>
        <time>2012-09-22T14:14:29Z</time>
      </trkpt>
      <trkpt lat="49.49863" lon="5.88412">
        <ele>369.76</ele>
        <time>2012-09-22T14:14:49Z</time>
      </trkpt>
      <trkpt lat="49.49863" lon="5.88411">
        <ele>368.32</ele>
        <time>2012-09-22T14:15:22Z</time>
      </trkpt>
      <trkpt lat="49.49863" lon="5.88408">
        <ele>368.8</ele>
        <time>2012-09-22T14:15:24Z</time>
      </trkpt>
      <trkpt lat="49.49864" lon="5.88406">
        <ele>368.32</ele>
        <time>2012-09-22T14:15:38Z</time>
      </trkpt>
      <trkpt lat="49.49866" lon="5.88403">
        <ele>366.88</ele>
        <time>2012-09-22T14:15:54Z</time>
      </trkpt>
      <trkpt lat="49.49867" lon="5.884">
        <ele>367.84</ele>
        <time>2012-09-22T14:15:55Z</time>
      </trkpt>
      <trkpt lat="49.4987" lon="5.88393">
        <ele>367.36</ele>
        <time>2012-09-22T14:15:57Z</time>
      </trkpt>
      <trkpt lat="49.49871" lon="5.88389">
        <ele>368.32</ele>
        <time>2012-09-22T14:15:58Z</time>
      </trkpt>
      <trkpt lat="49.49872" lon="5.88386">
        <ele>368.8</ele>
        <time>2012-09-22T14:15:59Z</time>
      </trkpt>
      <trkpt lat="49.49872" lon="5.88382">
        <ele>368.32</ele>
        <time>2012-09-22T14:16:00Z</time>
      </trkpt>
      <trkpt lat="49.49872" lon="5.88378">
        <ele>368.32</ele>
        <time>2012-09-22T14:16:01Z</time>
      </trkpt>
      <trkpt lat="49.49872" lon="5.88374">
        <ele>368.8</ele>
        <time>2012-09-22T14:16:02Z</time>
      </trkpt>
      <trkpt lat="49.49872" lon="5.88369">
        <ele>368.8</ele>
        <time>2012-09-22T14:16:03Z</time>
      </trkpt>
      <trkpt lat="49.49871" lon="5.88365">
        <ele>369.28</ele>
        <time>2012-09-22T14:16:04Z</time>
      </trkpt>
      <trkpt lat="49.4987" lon="5.88361">
        <ele>369.28</ele>
        <time>2012-09-22T14:16:05Z</time>
      </trkpt>
      <trkpt lat="49.49865" lon="5.8834">
        <ele>370.24</ele>
        <time>2012-09-22T14:16:13Z</time>
      </trkpt>
      <trkpt lat="49.49865" lon="5.88334">
        <ele>369.76</ele>
        <time>2012-09-22T14:16:15Z</time>
      </trkpt>
      <trkpt lat="49.49866" lon="5.8833">
        <ele>369.28</ele>
        <time>2012-09-22T14:16:16Z</time>
      </trkpt>
      <trkpt lat="49.49866" lon="5.88327">
        <ele>370.24</ele>
        <time>2012-09-22T14:16:17Z</time>
      </trkpt>
      <trkpt lat="49.49865" lon="5.88324">
        <ele>370.73</ele>
        <time>2012-09-22T14:16:18Z</time>
      </trkpt>
      <trkpt lat="49.49864" lon="5.8832">
        <ele>370.24</ele>
        <time>2012-09-22T14:16:19Z</time>
      </trkpt>
      <trkpt lat="49.49863" lon="5.88317">
        <ele>369.28</ele>
        <time>2012-09-22T14:16:20Z</time>
      </trkpt>
      <trkpt lat="49.49863" lon="5.88314">
        <ele>369.76</ele>
        <time>2012-09-22T14:16:21Z</time>
      </trkpt>
      <trkpt lat="49.49863" lon="5.88311">
        <ele>370.24</ele>
        <time>2012-09-22T14:16:22Z</time>
      </trkpt>
      <trkpt lat="49.49863" lon="5.88308">
        <ele>369.28</ele>
        <time>2012-09-22T14:16:23Z</time>
      </trkpt>
      <trkpt lat="49.49863" lon="5.88306">
        <ele>369.76</ele>
        <time>2012-09-22T14:16:24Z</time>
      </trkpt>
      <trkpt lat="49.49862" lon="5.88302">
        <ele>370.24</ele>
        <time>2012-09-22T14:16:25Z</time>
      </trkpt>
      <trkpt lat="49.49861" lon="5.88299">
        <ele>370.73</ele>
        <time>2012-09-22T14:16:26Z</time>
      </trkpt>
      <trkpt lat="49.49861" lon="5.88295">
        <ele>370.73</ele>
        <time>2012-09-22T14:16:27Z</time>
      </trkpt>
      <trkpt lat="49.4986" lon="5.88291">
        <ele>369.76</ele>
        <time>2012-09-22T14:16:28Z</time>
      </trkpt>
      <trkpt lat="49.4986" lon="5.88287">
        <ele>370.24</ele>
        <time>2012-09-22T14:16:29Z</time>
      </trkpt>
      <trkpt lat="49.4986" lon="5.88282">
        <ele>371.21</ele>
        <time>2012-09-22T14:16:30Z</time>
      </trkpt>
      <trkpt lat="49.49861" lon="5.88278">
        <ele>370.73</ele>
        <time>2012-09-22T14:16:31Z</time>
      </trkpt>
      <trkpt lat="49.49861" lon="5.88274">
        <ele>370.73</ele>
        <time>2012-09-22T14:16:32Z</time>
      </trkpt>
      <trkpt lat="49.4986" lon="5.8827">
        <ele>371.69</ele>
        <time>2012-09-22T14:16:33Z</time>
      </trkpt>
      <trkpt lat="49.4986" lon="5.88266">
        <ele>370.24</ele>
        <time>2012-09-22T14:16:34Z</time>
      </trkpt>
      <trkpt lat="49.49859" lon="5.88263">
        <ele>370.73</ele>
        <time>2012-09-22T14:16:35Z</time>
      </trkpt>
      <trkpt lat="49.49859" lon="5.88252">
        <ele>370.24</ele>
        <time>2012-09-22T14:16:38Z</time>
      </trkpt>
      <trkpt lat="49.49859" lon="5.88249">
        <ele>370.73</ele>
        <time>2012-09-22T14:16:39Z</time>
      </trkpt>
      <trkpt lat="49.49858" lon="5.88247">
        <ele>370.24</ele>
        <time>2012-09-22T14:16:40Z</time>
      </trkpt>
      <trkpt lat="49.49858" lon="5.88244">
        <ele>370.73</ele>
        <time>2012-09-22T14:16:41Z</time>
      </trkpt>
      <trkpt lat="49.49857" lon="5.88241">
        <ele>370.73</ele>
        <time>2012-09-22T14:16:42Z</time>
      </trkpt>
      <trkpt lat="49.49858" lon="5.88237">
        <ele>370.73</ele>
        <time>2012-09-22T14:16:43Z</time>
      </trkpt>
      <trkpt lat="49.49858" lon="5.88233">
        <ele>370.73</ele>
        <time>2012-09-22T14:16:44Z</time>
      </trkpt>
      <trkpt lat="49.49858" lon="5.88229">
        <ele>371.69</ele>
        <time>2012-09-22T14:16:45Z</time>
      </trkpt>
      <trkpt lat="49.4986" lon="5.88181">
        <ele>371.21</ele>
        <time>2012-09-22T14:16:57Z</time>
      </trkpt>
      <trkpt lat="49.49859" lon="5.88176">
        <ele>372.17</ele>
        <time>2012-09-22T14:16:58Z</time>
      </trkpt>
      <trkpt lat="49.49859" lon="5.88169">
        <ele>371.21</ele>
        <time>2012-09-22T14:16:59Z</time>
      </trkpt>
      <trkpt lat="49.49853" lon="5.88123">
        <ele>372.17</ele>
        <time>2012-09-22T14:17:10Z</time>
      </trkpt>
      <trkpt lat="49.4985" lon="5.88078">
        <ele>373.13</ele>
        <time>2012-09-22T14:17:21Z</time>
      </trkpt>
      <trkpt lat="49.49845" lon="5.88054">
        <ele>372.65</ele>
        <time>2012-09-22T14:17:28Z</time>
      </trkpt>
      <trkpt lat="49.49836" lon="5.88013">
        <ele>373.61</ele>
        <time>2012-09-22T14:17:38Z</time>
      </trkpt>
      <trkpt lat="49.49836" lon="5.88004">
        <ele>374.09</ele>
        <time>2012-09-22T14:17:40Z</time>
      </trkpt>
      <trkpt lat="49.49835" lon="5.88002">
        <ele>373.61</ele>
        <time>2012-09-22T14:17:41Z</time>
      </trkpt>
      <trkpt lat="49.49835" lon="5.88">
        <ele>374.09</ele>
        <time>2012-09-22T14:17:42Z</time>
      </trkpt>
      <trkpt lat="49.49836" lon="5.87995">
        <ele>374.57</ele>
        <time>2012-09-22T14:17:43Z</time>
      </trkpt>
      <trkpt lat="49.49836" lon="5.8799">
        <ele>374.57</ele>
        <time>2012-09-22T14:17:44Z</time>
      </trkpt>
      <trkpt lat="49.49836" lon="5.87942">
        <ele>375.53</ele>
        <time>2012-09-22T14:17:55Z</time>
      </trkpt>
      <trkpt lat="49.49829" lon="5.87929">
        <ele>376.49</ele>
        <time>2012-09-22T14:18:00Z</time>
      </trkpt>
      <trkpt lat="49.49829" lon="5.87925">
        <ele>376.49</ele>
        <time>2012-09-22T14:18:01Z</time>
      </trkpt>
      <trkpt lat="49.49828" lon="5.87921">
        <ele>375.53</ele>
        <time>2012-09-22T14:18:02Z</time>
      </trkpt>
      <trkpt lat="49.49805" lon="5.87876">
        <ele>376.01</ele>
        <time>2012-09-22T14:18:14Z</time>
      </trkpt>
      <trkpt lat="49.49791" lon="5.87862">
        <ele>374.09</ele>
        <time>2012-09-22T14:18:17Z</time>
      </trkpt>
      <trkpt lat="49.49787" lon="5.87855">
        <ele>372.65</ele>
        <time>2012-09-22T14:18:18Z</time>
      </trkpt>
      <trkpt lat="49.49784" lon="5.87847">
        <ele>372.65</ele>
        <time>2012-09-22T14:18:19Z</time>
      </trkpt>
      <trkpt lat="49.4978" lon="5.87839">
        <ele>372.65</ele>
        <time>2012-09-22T14:18:20Z</time>
      </trkpt>
      <trkpt lat="49.49778" lon="5.8783">
        <ele>372.17</ele>
        <time>2012-09-22T14:18:21Z</time>
      </trkpt>
      <trkpt lat="49.49775" lon="5.87822">
        <ele>370.73</ele>
        <time>2012-09-22T14:18:22Z</time>
      </trkpt>
      <trkpt lat="49.49772" lon="5.87814">
        <ele>371.21</ele>
        <time>2012-09-22T14:18:23Z</time>
      </trkpt>
      <trkpt lat="49.49769" lon="5.87806">
        <ele>371.69</ele>
        <time>2012-09-22T14:18:24Z</time>
      </trkpt>
      <trkpt lat="49.49739" lon="5.87738">
        <ele>368.8</ele>
        <time>2012-09-22T14:18:35Z</time>
      </trkpt>
      <trkpt lat="49.49728" lon="5.87722">
        <ele>369.28</ele>
        <time>2012-09-22T14:18:38Z</time>
      </trkpt>
      <trkpt lat="49.49725" lon="5.87715">
        <ele>369.28</ele>
        <time>2012-09-22T14:18:39Z</time>
      </trkpt>
      <trkpt lat="49.49723" lon="5.87708">
        <ele>369.76</ele>
        <time>2012-09-22T14:18:40Z</time>
      </trkpt>
      <trkpt lat="49.4972" lon="5.87693">
        <ele>369.28</ele>
        <time>2012-09-22T14:18:42Z</time>
      </trkpt>
      <trkpt lat="49.49719" lon="5.87687">
        <ele>369.76</ele>
        <time>2012-09-22T14:18:43Z</time>
      </trkpt>
      <trkpt lat="49.49717" lon="5.8768">
        <ele>368.8</ele>
        <time>2012-09-22T14:18:44Z</time>
      </trkpt>
      <trkpt lat="49.49705" lon="5.87635">
        <ele>368.32</ele>
        <time>2012-09-22T14:18:50Z</time>
      </trkpt>
      <trkpt lat="49.49703" lon="5.87628">
        <ele>368.32</ele>
        <time>2012-09-22T14:18:51Z</time>
      </trkpt>
      <trkpt lat="49.49697" lon="5.87608">
        <ele>367.36</ele>
        <time>2012-09-22T14:18:54Z</time>
      </trkpt>
      <trkpt lat="49.49697" lon="5.87601">
        <ele>367.36</ele>
        <time>2012-09-22T14:18:55Z</time>
      </trkpt>
      <trkpt lat="49.49697" lon="5.87593">
        <ele>365.92</ele>
        <time>2012-09-22T14:18:56Z</time>
      </trkpt>
      <trkpt lat="49.49699" lon="5.87584">
        <ele>365.44</ele>
        <time>2012-09-22T14:18:57Z</time>
      </trkpt>
      <trkpt lat="49.49701" lon="5.87575">
        <ele>364.96</ele>
        <time>2012-09-22T14:18:58Z</time>
      </trkpt>
      <trkpt lat="49.49704" lon="5.87569">
        <ele>364</ele>
        <time>2012-09-22T14:18:59Z</time>
      </trkpt>
      <trkpt lat="49.49708" lon="5.87563">
        <ele>363.52</ele>
        <time>2012-09-22T14:19:00Z</time>
      </trkpt>
      <trkpt lat="49.49712" lon="5.87558">
        <ele>365.92</ele>
        <time>2012-09-22T14:19:01Z</time>
      </trkpt>
      <trkpt lat="49.49716" lon="5.87552">
        <ele>365.44</ele>
        <time>2012-09-22T14:19:02Z</time>
      </trkpt>
      <trkpt lat="49.49721" lon="5.87546">
        <ele>364.48</ele>
        <time>2012-09-22T14:19:03Z</time>
      </trkpt>
      <trkpt lat="49.49725" lon="5.87539">
        <ele>364.48</ele>
        <time>2012-09-22T14:19:04Z</time>
      </trkpt>
      <trkpt lat="49.49729" lon="5.8753">
        <ele>365.44</ele>
        <time>2012-09-22T14:19:05Z</time>
      </trkpt>
      <trkpt lat="49.49732" lon="5.87522">
        <ele>365.92</ele>
        <time>2012-09-22T14:19:06Z</time>
      </trkpt>
      <trkpt lat="49.49734" lon="5.87514">
        <ele>365.92</ele>
        <time>2012-09-22T14:19:07Z</time>
      </trkpt>
      <trkpt lat="49.49736" lon="5.87506">
        <ele>365.44</ele>
        <time>2012-09-22T14:19:08Z</time>
      </trkpt>
      <trkpt lat="49.49737" lon="5.87497">
        <ele>365.44</ele>
        <time>2012-09-22T14:19:09Z</time>
      </trkpt>
      <trkpt lat="49.49743" lon="5.87456">
        <ele>365.44</ele>
        <time>2012-09-22T14:19:14Z</time>
      </trkpt>
      <trkpt lat="49.49743" lon="5.87438">
        <ele>365.44</ele>
        <time>2012-09-22T14:19:16Z</time>
      </trkpt>
      <trkpt lat="49.49742" lon="5.87429">
        <ele>365.92</ele>
        <time>2012-09-22T14:19:17Z</time>
      </trkpt>
      <trkpt lat="49.49742" lon="5.87411">
        <ele>366.4</ele>
        <time>2012-09-22T14:19:19Z</time>
      </trkpt>
      <trkpt lat="49.49741" lon="5.87402">
        <ele>364.48</ele>
        <time>2012-09-22T14:19:20Z</time>
      </trkpt>
      <trkpt lat="49.49739" lon="5.87386">
        <ele>364.48</ele>
        <time>2012-09-22T14:19:22Z</time>
      </trkpt>
      <trkpt lat="49.49737" lon="5.87379">
        <ele>365.44</ele>
        <time>2012-09-22T14:19:23Z</time>
      </trkpt>
      <trkpt lat="49.49736" lon="5.87373">
        <ele>364.96</ele>
        <time>2012-09-22T14:19:24Z</time>
      </trkpt>
      <trkpt lat="49.49734" lon="5.87369">
        <ele>364.48</ele>
        <time>2012-09-22T14:19:25Z</time>
      </trkpt>
      <trkpt lat="49.49731" lon="5.87366">
        <ele>364.96</ele>
        <time>2012-09-22T14:19:26Z</time>
      </trkpt>
      <trkpt lat="49.49728" lon="5.87363">
        <ele>364.96</ele>
        <time>2012-09-22T14:19:27Z</time>
      </trkpt>
      <trkpt lat="49.49726" lon="5.87361">
        <ele>364.48</ele>
        <time>2012-09-22T14:19:28Z</time>
      </trkpt>
      <trkpt lat="49.49725" lon="5.87358">
        <ele>364.48</ele>
        <time>2012-09-22T14:19:29Z</time>
      </trkpt>
      <trkpt lat="49.49722" lon="5.87357">
        <ele>364.96</ele>
        <time>2012-09-22T14:19:31Z</time>
      </trkpt>
      <trkpt lat="49.4972" lon="5.87357">
        <ele>364</ele>
        <time>2012-09-22T14:19:32Z</time>
      </trkpt>
      <trkpt lat="49.49711" lon="5.87356">
        <ele>361.11</ele>
        <time>2012-09-22T14:19:38Z</time>
      </trkpt>
      <trkpt lat="49.49707" lon="5.87353">
        <ele>359.19</ele>
        <time>2012-09-22T14:19:40Z</time>
      </trkpt>
      <trkpt lat="49.49716" lon="5.87286">
        <ele>361.11</ele>
        <time>2012-09-22T14:19:51Z</time>
      </trkpt>
      <trkpt lat="49.49733" lon="5.87207">
        <ele>360.63</ele>
        <time>2012-09-22T14:20:03Z</time>
      </trkpt>
      <trkpt lat="49.49743" lon="5.87174">
        <ele>360.15</ele>
        <time>2012-09-22T14:20:10Z</time>
      </trkpt>
      <trkpt lat="49.49743" lon="5.8717">
        <ele>360.63</ele>
        <time>2012-09-22T14:20:11Z</time>
      </trkpt>
      <trkpt lat="49.49743" lon="5.87166">
        <ele>360.15</ele>
        <time>2012-09-22T14:20:12Z</time>
      </trkpt>
      <trkpt lat="49.49744" lon="5.87156">
        <ele>360.15</ele>
        <time>2012-09-22T14:20:14Z</time>
      </trkpt>
      <trkpt lat="49.49748" lon="5.87143">
        <ele>361.11</ele>
        <time>2012-09-22T14:20:16Z</time>
      </trkpt>
      <trkpt lat="49.4975" lon="5.87137">
        <ele>359.67</ele>
        <time>2012-09-22T14:20:17Z</time>
      </trkpt>
      <trkpt lat="49.49762" lon="5.87112">
        <ele>359.67</ele>
        <time>2012-09-22T14:20:22Z</time>
      </trkpt>
      <trkpt lat="49.49766" lon="5.87109">
        <ele>360.15</ele>
        <time>2012-09-22T14:20:23Z</time>
      </trkpt>
      <trkpt lat="49.49769" lon="5.87107">
        <ele>359.67</ele>
        <time>2012-09-22T14:20:24Z</time>
      </trkpt>
      <trkpt lat="49.49773" lon="5.87106">
        <ele>360.15</ele>
        <time>2012-09-22T14:20:25Z</time>
      </trkpt>
      <trkpt lat="49.49776" lon="5.87108">
        <ele>360.63</ele>
        <time>2012-09-22T14:20:26Z</time>
      </trkpt>
      <trkpt lat="49.4978" lon="5.8711">
        <ele>359.19</ele>
        <time>2012-09-22T14:20:27Z</time>
      </trkpt>
      <trkpt lat="49.49791" lon="5.87117">
        <ele>360.63</ele>
        <time>2012-09-22T14:20:30Z</time>
      </trkpt>
      <trkpt lat="49.49795" lon="5.87118">
        <ele>360.63</ele>
        <time>2012-09-22T14:20:31Z</time>
      </trkpt>
      <trkpt lat="49.49799" lon="5.87118">
        <ele>360.15</ele>
        <time>2012-09-22T14:20:32Z</time>
      </trkpt>
      <trkpt lat="49.49809" lon="5.87115">
        <ele>361.11</ele>
        <time>2012-09-22T14:20:37Z</time>
      </trkpt>
      <trkpt lat="49.49809" lon="5.87114">
        <ele>361.11</ele>
        <time>2012-09-22T14:20:38Z</time>
      </trkpt>
      <trkpt lat="49.49809" lon="5.87111">
        <ele>361.59</ele>
        <time>2012-09-22T14:20:39Z</time>
      </trkpt>
      <trkpt lat="49.4981" lon="5.87108">
        <ele>360.63</ele>
        <time>2012-09-22T14:20:40Z</time>
      </trkpt>
      <trkpt lat="49.4981" lon="5.87105">
        <ele>361.11</ele>
        <time>2012-09-22T14:20:41Z</time>
      </trkpt>
      <trkpt lat="49.49811" lon="5.87099">
        <ele>361.59</ele>
        <time>2012-09-22T14:20:43Z</time>
      </trkpt>
      <trkpt lat="49.49814" lon="5.87095">
        <ele>362.07</ele>
        <time>2012-09-22T14:20:44Z</time>
      </trkpt>
      <trkpt lat="49.49829" lon="5.8707">
        <ele>361.59</ele>
        <time>2012-09-22T14:20:50Z</time>
      </trkpt>
      <trkpt lat="49.49831" lon="5.87064">
        <ele>361.59</ele>
        <time>2012-09-22T14:20:51Z</time>
      </trkpt>
      <trkpt lat="49.49846" lon="5.8703">
        <ele>363.04</ele>
        <time>2012-09-22T14:20:57Z</time>
      </trkpt>
      <trkpt lat="49.49848" lon="5.87024">
        <ele>363.04</ele>
        <time>2012-09-22T14:20:58Z</time>
      </trkpt>
      <trkpt lat="49.49851" lon="5.87018">
        <ele>362.55</ele>
        <time>2012-09-22T14:20:59Z</time>
      </trkpt>
      <trkpt lat="49.49854" lon="5.87012">
        <ele>363.52</ele>
        <time>2012-09-22T14:21:00Z</time>
      </trkpt>
      <trkpt lat="49.49856" lon="5.87005">
        <ele>362.07</ele>
        <time>2012-09-22T14:21:01Z</time>
      </trkpt>
      <trkpt lat="49.49858" lon="5.86999">
        <ele>363.52</ele>
        <time>2012-09-22T14:21:02Z</time>
      </trkpt>
      <trkpt lat="49.49881" lon="5.86947">
        <ele>362.55</ele>
        <time>2012-09-22T14:21:10Z</time>
      </trkpt>
      <trkpt lat="49.49885" lon="5.8694">
        <ele>363.04</ele>
        <time>2012-09-22T14:21:11Z</time>
      </trkpt>
      <trkpt lat="49.49888" lon="5.86933">
        <ele>362.55</ele>
        <time>2012-09-22T14:21:12Z</time>
      </trkpt>
      <trkpt lat="49.49911" lon="5.86877">
        <ele>361.59</ele>
        <time>2012-09-22T14:21:20Z</time>
      </trkpt>
      <trkpt lat="49.49925" lon="5.86852">
        <ele>362.07</ele>
        <time>2012-09-22T14:21:24Z</time>
      </trkpt>
      <trkpt lat="49.49929" lon="5.86847">
        <ele>361.59</ele>
        <time>2012-09-22T14:21:25Z</time>
      </trkpt>
      <trkpt lat="49.49933" lon="5.86841">
        <ele>361.11</ele>
        <time>2012-09-22T14:21:26Z</time>
      </trkpt>
      <trkpt lat="49.49936" lon="5.86835">
        <ele>361.11</ele>
        <time>2012-09-22T14:21:27Z</time>
      </trkpt>
      <trkpt lat="49.49939" lon="5.86829">
        <ele>360.63</ele>
        <time>2012-09-22T14:21:28Z</time>
      </trkpt>
      <trkpt lat="49.49945" lon="5.86815">
        <ele>360.63</ele>
        <time>2012-09-22T14:21:30Z</time>
      </trkpt>
      <trkpt lat="49.49947" lon="5.86807">
        <ele>361.11</ele>
        <time>2012-09-22T14:21:31Z</time>
      </trkpt>
      <trkpt lat="49.49949" lon="5.868">
        <ele>360.63</ele>
        <time>2012-09-22T14:21:32Z</time>
      </trkpt>
      <trkpt lat="49.49952" lon="5.86793">
        <ele>360.63</ele>
        <time>2012-09-22T14:21:33Z</time>
      </trkpt>
      <trkpt lat="49.49955" lon="5.86787">
        <ele>361.11</ele>
        <time>2012-09-22T14:21:34Z</time>
      </trkpt>
      <trkpt lat="49.49959" lon="5.86781">
        <ele>360.63</ele>
        <time>2012-09-22T14:21:35Z</time>
      </trkpt>
      <trkpt lat="49.49962" lon="5.86775">
        <ele>360.63</ele>
        <time>2012-09-22T14:21:36Z</time>
      </trkpt>
      <trkpt lat="49.49964" lon="5.86768">
        <ele>360.63</ele>
        <time>2012-09-22T14:21:37Z</time>
      </trkpt>
      <trkpt lat="49.49967" lon="5.86761">
        <ele>360.15</ele>
        <time>2012-09-22T14:21:38Z</time>
      </trkpt>
      <trkpt lat="49.49989" lon="5.86715">
        <ele>363.04</ele>
        <time>2012-09-22T14:21:49Z</time>
      </trkpt>
      <trkpt lat="49.49995" lon="5.86702">
        <ele>364</ele>
        <time>2012-09-22T14:21:53Z</time>
      </trkpt>
      <trkpt lat="49.49995" lon="5.86698">
        <ele>364.48</ele>
        <time>2012-09-22T14:21:54Z</time>
      </trkpt>
      <trkpt lat="49.49995" lon="5.86695">
        <ele>364</ele>
        <time>2012-09-22T14:21:55Z</time>
      </trkpt>
      <trkpt lat="49.49996" lon="5.86692">
        <ele>364.48</ele>
        <time>2012-09-22T14:21:56Z</time>
      </trkpt>
      <trkpt lat="49.49998" lon="5.86686">
        <ele>364.96</ele>
        <time>2012-09-22T14:21:58Z</time>
      </trkpt>
      <trkpt lat="49.50006" lon="5.86678">
        <ele>365.92</ele>
        <time>2012-09-22T14:22:03Z</time>
      </trkpt>
      <trkpt lat="49.50034" lon="5.86653">
        <ele>367.36</ele>
        <time>2012-09-22T14:22:12Z</time>
      </trkpt>
      <trkpt lat="49.5006" lon="5.86613">
        <ele>368.32</ele>
        <time>2012-09-22T14:22:25Z</time>
      </trkpt>
      <trkpt lat="49.50072" lon="5.8659">
        <ele>368.32</ele>
        <time>2012-09-22T14:22:31Z</time>
      </trkpt>
      <trkpt lat="49.50114" lon="5.86509">
        <ele>369.28</ele>
        <time>2012-09-22T14:22:43Z</time>
      </trkpt>
      <trkpt lat="49.50126" lon="5.86489">
        <ele>368.8</ele>
        <time>2012-09-22T14:22:46Z</time>
      </trkpt>
      <trkpt lat="49.50178" lon="5.86417">
        <ele>368.32</ele>
        <time>2012-09-22T14:22:58Z</time>
      </trkpt>
      <trkpt lat="49.50181" lon="5.8641">
        <ele>368.8</ele>
        <time>2012-09-22T14:22:59Z</time>
      </trkpt>
      <trkpt lat="49.50195" lon="5.86376">
        <ele>369.76</ele>
        <time>2012-09-22T14:23:04Z</time>
      </trkpt>
      <trkpt lat="49.50197" lon="5.8637">
        <ele>368.8</ele>
        <time>2012-09-22T14:23:05Z</time>
      </trkpt>
      <trkpt lat="49.50201" lon="5.86365">
        <ele>368.8</ele>
        <time>2012-09-22T14:23:06Z</time>
      </trkpt>
      <trkpt lat="49.50205" lon="5.86361">
        <ele>368.8</ele>
        <time>2012-09-22T14:23:07Z</time>
      </trkpt>
      <trkpt lat="49.50209" lon="5.86358">
        <ele>367.36</ele>
        <time>2012-09-22T14:23:08Z</time>
      </trkpt>
      <trkpt lat="49.50214" lon="5.86355">
        <ele>367.84</ele>
        <time>2012-09-22T14:23:09Z</time>
      </trkpt>
      <trkpt lat="49.50219" lon="5.86353">
        <ele>368.32</ele>
        <time>2012-09-22T14:23:10Z</time>
      </trkpt>
      <trkpt lat="49.50225" lon="5.86351">
        <ele>368.8</ele>
        <time>2012-09-22T14:23:11Z</time>
      </trkpt>
      <trkpt lat="49.50231" lon="5.8635">
        <ele>368.32</ele>
        <time>2012-09-22T14:23:12Z</time>
      </trkpt>
      <trkpt lat="49.50268" lon="5.86334">
        <ele>366.4</ele>
        <time>2012-09-22T14:23:19Z</time>
      </trkpt>
      <trkpt lat="49.5034" lon="5.86269">
        <ele>365.44</ele>
        <time>2012-09-22T14:23:33Z</time>
      </trkpt>
      <trkpt lat="49.50392" lon="5.86177">
        <ele>364</ele>
        <time>2012-09-22T14:23:46Z</time>
      </trkpt>
      <trkpt lat="49.50454" lon="5.86088">
        <ele>364</ele>
        <time>2012-09-22T14:24:00Z</time>
      </trkpt>
      <trkpt lat="49.5049" lon="5.86056">
        <ele>364.48</ele>
        <time>2012-09-22T14:24:07Z</time>
      </trkpt>
      <trkpt lat="49.50496" lon="5.86054">
        <ele>364.48</ele>
        <time>2012-09-22T14:24:08Z</time>
      </trkpt>
      <trkpt lat="49.50502" lon="5.86051">
        <ele>364.48</ele>
        <time>2012-09-22T14:24:09Z</time>
      </trkpt>
      <trkpt lat="49.50586" lon="5.86026">
        <ele>365.44</ele>
        <time>2012-09-22T14:24:24Z</time>
      </trkpt>
      <trkpt lat="49.50619" lon="5.86034">
        <ele>365.92</ele>
        <time>2012-09-22T14:24:32Z</time>
      </trkpt>
      <trkpt lat="49.50624" lon="5.8604">
        <ele>367.36</ele>
        <time>2012-09-22T14:24:34Z</time>
      </trkpt>
      <trkpt lat="49.5065" lon="5.86058">
        <ele>370.73</ele>
        <time>2012-09-22T14:24:45Z</time>
      </trkpt>
      <trkpt lat="49.50653" lon="5.86061">
        <ele>370.73</ele>
        <time>2012-09-22T14:24:46Z</time>
      </trkpt>
      <trkpt lat="49.50674" lon="5.86088">
        <ele>373.61</ele>
        <time>2012-09-22T14:24:58Z</time>
      </trkpt>
      <trkpt lat="49.50684" lon="5.86105">
        <ele>375.53</ele>
        <time>2012-09-22T14:25:05Z</time>
      </trkpt>
      <trkpt lat="49.50693" lon="5.86115">
        <ele>377.45</ele>
        <time>2012-09-22T14:25:11Z</time>
      </trkpt>
      <trkpt lat="49.50713" lon="5.86149">
        <ele>379.86</ele>
        <time>2012-09-22T14:25:25Z</time>
      </trkpt>
      <trkpt lat="49.50715" lon="5.86152">
        <ele>379.86</ele>
        <time>2012-09-22T14:25:26Z</time>
      </trkpt>
      <trkpt lat="49.50719" lon="5.86167">
        <ele>382.26</ele>
        <time>2012-09-22T14:25:31Z</time>
      </trkpt>
      <trkpt lat="49.50722" lon="5.86179">
        <ele>383.22</ele>
        <time>2012-09-22T14:25:38Z</time>
      </trkpt>
      <trkpt lat="49.50727" lon="5.86195">
        <ele>385.15</ele>
        <time>2012-09-22T14:25:46Z</time>
      </trkpt>
      <trkpt lat="49.50729" lon="5.86198">
        <ele>385.63</ele>
        <time>2012-09-22T14:25:48Z</time>
      </trkpt>
      <trkpt lat="49.50736" lon="5.86206">
        <ele>388.03</ele>
        <time>2012-09-22T14:25:57Z</time>
      </trkpt>
      <trkpt lat="49.50741" lon="5.86211">
        <ele>388.51</ele>
        <time>2012-09-22T14:26:01Z</time>
      </trkpt>
      <trkpt lat="49.50743" lon="5.86212">
        <ele>388.99</ele>
        <time>2012-09-22T14:26:03Z</time>
      </trkpt>
      <trkpt lat="49.50757" lon="5.8622">
        <ele>391.39</ele>
        <time>2012-09-22T14:26:14Z</time>
      </trkpt>
      <trkpt lat="49.50787" lon="5.86226">
        <ele>392.36</ele>
        <time>2012-09-22T14:26:27Z</time>
      </trkpt>
      <trkpt lat="49.50813" lon="5.86213">
        <ele>391.39</ele>
        <time>2012-09-22T14:26:37Z</time>
      </trkpt>
      <trkpt lat="49.50843" lon="5.86169">
        <ele>393.8</ele>
        <time>2012-09-22T14:26:51Z</time>
      </trkpt>
      <trkpt lat="49.50854" lon="5.86149">
        <ele>396.2</ele>
        <time>2012-09-22T14:27:02Z</time>
      </trkpt>
      <trkpt lat="49.5086" lon="5.86143">
        <ele>398.6</ele>
        <time>2012-09-22T14:27:08Z</time>
      </trkpt>
      <trkpt lat="49.50863" lon="5.86133">
        <ele>399.57</ele>
        <time>2012-09-22T14:27:13Z</time>
      </trkpt>
      <trkpt lat="49.50867" lon="5.86126">
        <ele>401.01</ele>
        <time>2012-09-22T14:27:17Z</time>
      </trkpt>
      <trkpt lat="49.50875" lon="5.8611">
        <ele>403.89</ele>
        <time>2012-09-22T14:27:27Z</time>
      </trkpt>
      <trkpt lat="49.5088" lon="5.86101">
        <ele>403.89</ele>
        <time>2012-09-22T14:27:33Z</time>
      </trkpt>
      <trkpt lat="49.50882" lon="5.86096">
        <ele>405.81</ele>
        <time>2012-09-22T14:27:37Z</time>
      </trkpt>
      <trkpt lat="49.50888" lon="5.8608">
        <ele>407.26</ele>
        <time>2012-09-22T14:27:48Z</time>
      </trkpt>
      <trkpt lat="49.50891" lon="5.86069">
        <ele>409.18</ele>
        <time>2012-09-22T14:27:54Z</time>
      </trkpt>
      <trkpt lat="49.50893" lon="5.86058">
        <ele>409.66</ele>
        <time>2012-09-22T14:28:00Z</time>
      </trkpt>
      <trkpt lat="49.50891" lon="5.86053">
        <ele>409.66</ele>
        <time>2012-09-22T14:28:03Z</time>
      </trkpt>
      <trkpt lat="49.50889" lon="5.86036">
        <ele>408.7</ele>
        <time>2012-09-22T14:28:09Z</time>
      </trkpt>
      <trkpt lat="49.50885" lon="5.86022">
        <ele>408.22</ele>
        <time>2012-09-22T14:28:14Z</time>
      </trkpt>
      <trkpt lat="49.50883" lon="5.86003">
        <ele>410.14</ele>
        <time>2012-09-22T14:28:19Z</time>
      </trkpt>
      <trkpt lat="49.50872" lon="5.8594">
        <ele>409.18</ele>
        <time>2012-09-22T14:28:30Z</time>
      </trkpt>
      <trkpt lat="49.50868" lon="5.85921">
        <ele>408.22</ele>
        <time>2012-09-22T14:28:33Z</time>
      </trkpt>
      <trkpt lat="49.50868" lon="5.85906">
        <ele>408.7</ele>
        <time>2012-09-22T14:28:35Z</time>
      </trkpt>
      <trkpt lat="49.50901" lon="5.85804">
        <ele>408.7</ele>
        <time>2012-09-22T14:28:45Z</time>
      </trkpt>
      <trkpt lat="49.50928" lon="5.85725">
        <ele>409.66</ele>
        <time>2012-09-22T14:28:54Z</time>
      </trkpt>
      <trkpt lat="49.50941" lon="5.85691">
        <ele>409.18</ele>
        <time>2012-09-22T14:28:59Z</time>
      </trkpt>
      <trkpt lat="49.50956" lon="5.85646">
        <ele>411.58</ele>
        <time>2012-09-22T14:29:09Z</time>
      </trkpt>
      <trkpt lat="49.50962" lon="5.85617">
        <ele>411.58</ele>
        <time>2012-09-22T14:29:15Z</time>
      </trkpt>
      <trkpt lat="49.50988" lon="5.85549">
        <ele>412.06</ele>
        <time>2012-09-22T14:29:26Z</time>
      </trkpt>
      <trkpt lat="49.50999" lon="5.85522">
        <ele>411.1</ele>
        <time>2012-09-22T14:29:30Z</time>
      </trkpt>
      <trkpt lat="49.51005" lon="5.8551">
        <ele>411.1</ele>
        <time>2012-09-22T14:29:32Z</time>
      </trkpt>
      <trkpt lat="49.51033" lon="5.85474">
        <ele>413.02</ele>
        <time>2012-09-22T14:29:41Z</time>
      </trkpt>
      <trkpt lat="49.51045" lon="5.85466">
        <ele>411.1</ele>
        <time>2012-09-22T14:29:44Z</time>
      </trkpt>
      <trkpt lat="49.51049" lon="5.85464">
        <ele>410.62</ele>
        <time>2012-09-22T14:29:45Z</time>
      </trkpt>
      <trkpt lat="49.51059" lon="5.85456">
        <ele>410.62</ele>
        <time>2012-09-22T14:29:47Z</time>
      </trkpt>
      <trkpt lat="49.51074" lon="5.85445">
        <ele>410.14</ele>
        <time>2012-09-22T14:29:50Z</time>
      </trkpt>
      <trkpt lat="49.51114" lon="5.85438">
        <ele>407.26</ele>
        <time>2012-09-22T14:29:59Z</time>
      </trkpt>
      <trkpt lat="49.51124" lon="5.85441">
        <ele>406.29</ele>
        <time>2012-09-22T14:30:01Z</time>
      </trkpt>
      <trkpt lat="49.51143" lon="5.85436">
        <ele>406.29</ele>
        <time>2012-09-22T14:30:05Z</time>
      </trkpt>
      <trkpt lat="49.51187" lon="5.8541">
        <ele>409.18</ele>
        <time>2012-09-22T14:30:16Z</time>
      </trkpt>
      <trkpt lat="49.51215" lon="5.85395">
        <ele>408.7</ele>
        <time>2012-09-22T14:30:24Z</time>
      </trkpt>
      <trkpt lat="49.51245" lon="5.85402">
        <ele>407.26</ele>
        <time>2012-09-22T14:30:30Z</time>
      </trkpt>
      <trkpt lat="49.51302" lon="5.85444">
        <ele>406.77</ele>
        <time>2012-09-22T14:30:43Z</time>
      </trkpt>
      <trkpt lat="49.51327" lon="5.85467">
        <ele>406.29</ele>
        <time>2012-09-22T14:30:48Z</time>
      </trkpt>
      <trkpt lat="49.51349" lon="5.85497">
        <ele>406.29</ele>
        <time>2012-09-22T14:30:54Z</time>
      </trkpt>
      <trkpt lat="49.51366" lon="5.85581">
        <ele>409.66</ele>
        <time>2012-09-22T14:31:06Z</time>
      </trkpt>
      <trkpt lat="49.51374" lon="5.85629">
        <ele>410.62</ele>
        <time>2012-09-22T14:31:15Z</time>
      </trkpt>
      <trkpt lat="49.51377" lon="5.85645">
        <ele>411.1</ele>
        <time>2012-09-22T14:31:18Z</time>
      </trkpt>
      <trkpt lat="49.51387" lon="5.85642">
        <ele>410.14</ele>
        <time>2012-09-22T14:31:25Z</time>
      </trkpt>
      <trkpt lat="49.51394" lon="5.85617">
        <ele>409.18</ele>
        <time>2012-09-22T14:31:29Z</time>
      </trkpt>
      <trkpt lat="49.51405" lon="5.85582">
        <ele>408.22</ele>
        <time>2012-09-22T14:31:33Z</time>
      </trkpt>
      <trkpt lat="49.5143" lon="5.85496">
        <ele>404.85</ele>
        <time>2012-09-22T14:31:42Z</time>
      </trkpt>
      <trkpt lat="49.51449" lon="5.85427">
        <ele>403.41</ele>
        <time>2012-09-22T14:31:48Z</time>
      </trkpt>
      <trkpt lat="49.51459" lon="5.85403">
        <ele>404.37</ele>
        <time>2012-09-22T14:31:51Z</time>
      </trkpt>
      <trkpt lat="49.5147" lon="5.85383">
        <ele>404.37</ele>
        <time>2012-09-22T14:31:55Z</time>
      </trkpt>
      <trkpt lat="49.51478" lon="5.85372">
        <ele>405.81</ele>
        <time>2012-09-22T14:31:58Z</time>
      </trkpt>
      <trkpt lat="49.51498" lon="5.85365">
        <ele>407.26</ele>
        <time>2012-09-22T14:32:06Z</time>
      </trkpt>
      <trkpt lat="49.51508" lon="5.85368">
        <ele>407.74</ele>
        <time>2012-09-22T14:32:10Z</time>
      </trkpt>
      <trkpt lat="49.51516" lon="5.8538">
        <ele>408.7</ele>
        <time>2012-09-22T14:32:14Z</time>
      </trkpt>
      <trkpt lat="49.51533" lon="5.8541">
        <ele>408.7</ele>
        <time>2012-09-22T14:32:20Z</time>
      </trkpt>
      <trkpt lat="49.51541" lon="5.85426">
        <ele>408.7</ele>
        <time>2012-09-22T14:32:24Z</time>
      </trkpt>
      <trkpt lat="49.51547" lon="5.85444">
        <ele>408.22</ele>
        <time>2012-09-22T14:32:27Z</time>
      </trkpt>
      <trkpt lat="49.51559" lon="5.85471">
        <ele>408.7</ele>
        <time>2012-09-22T14:32:31Z</time>
      </trkpt>
      <trkpt lat="49.51565" lon="5.85485">
        <ele>408.7</ele>
        <time>2012-09-22T14:32:33Z</time>
      </trkpt>
      <trkpt lat="49.51579" lon="5.85511">
        <ele>408.22</ele>
        <time>2012-09-22T14:32:38Z</time>
      </trkpt>
      <trkpt lat="49.51585" lon="5.85522">
        <ele>406.77</ele>
        <time>2012-09-22T14:32:40Z</time>
      </trkpt>
      <trkpt lat="49.5159" lon="5.85533">
        <ele>406.77</ele>
        <time>2012-09-22T14:32:42Z</time>
      </trkpt>
      <trkpt lat="49.51613" lon="5.85577">
        <ele>405.33</ele>
        <time>2012-09-22T14:32:49Z</time>
      </trkpt>
      <trkpt lat="49.51621" lon="5.85596">
        <ele>404.85</ele>
        <time>2012-09-22T14:32:52Z</time>
      </trkpt>
      <trkpt lat="49.51651" lon="5.85648">
        <ele>403.41</ele>
        <time>2012-09-22T14:33:01Z</time>
      </trkpt>
      <trkpt lat="49.51674" lon="5.85677">
        <ele>404.37</ele>
        <time>2012-09-22T14:33:07Z</time>
      </trkpt>
      <trkpt lat="49.51682" lon="5.85683">
        <ele>402.93</ele>
        <time>2012-09-22T14:33:09Z</time>
      </trkpt>
      <trkpt lat="49.51716" lon="5.8569">
        <ele>406.77</ele>
        <time>2012-09-22T14:33:18Z</time>
      </trkpt>
      <trkpt lat="49.51742" lon="5.85703">
        <ele>407.74</ele>
        <time>2012-09-22T14:33:25Z</time>
      </trkpt>
      <trkpt lat="49.51769" lon="5.85723">
        <ele>406.29</ele>
        <time>2012-09-22T14:33:32Z</time>
      </trkpt>
      <trkpt lat="49.51811" lon="5.85796">
        <ele>406.29</ele>
        <time>2012-09-22T14:33:44Z</time>
      </trkpt>
      <trkpt lat="49.5183" lon="5.85832">
        <ele>405.81</ele>
        <time>2012-09-22T14:33:50Z</time>
      </trkpt>
      <trkpt lat="49.5184" lon="5.85851">
        <ele>406.29</ele>
        <time>2012-09-22T14:33:53Z</time>
      </trkpt>
      <trkpt lat="49.51871" lon="5.85905">
        <ele>407.74</ele>
        <time>2012-09-22T14:34:03Z</time>
      </trkpt>
      <trkpt lat="49.51875" lon="5.85916">
        <ele>406.77</ele>
        <time>2012-09-22T14:34:05Z</time>
      </trkpt>
      <trkpt lat="49.51896" lon="5.85956">
        <ele>410.14</ele>
        <time>2012-09-22T14:34:16Z</time>
      </trkpt>
      <trkpt lat="49.51918" lon="5.85994">
        <ele>409.66</ele>
        <time>2012-09-22T14:34:26Z</time>
      </trkpt>
      <trkpt lat="49.51923" lon="5.86005">
        <ele>409.66</ele>
        <time>2012-09-22T14:34:28Z</time>
      </trkpt>
      <trkpt lat="49.51942" lon="5.86069">
        <ele>411.58</ele>
        <time>2012-09-22T14:34:40Z</time>
      </trkpt>
      <trkpt lat="49.51957" lon="5.8613">
        <ele>413.5</ele>
        <time>2012-09-22T14:34:52Z</time>
      </trkpt>
      <trkpt lat="49.51961" lon="5.86141">
        <ele>414.47</ele>
        <time>2012-09-22T14:34:54Z</time>
      </trkpt>
      <trkpt lat="49.51984" lon="5.86199">
        <ele>414.47</ele>
        <time>2012-09-22T14:35:05Z</time>
      </trkpt>
      <trkpt lat="49.52015" lon="5.86262">
        <ele>415.43</ele>
        <time>2012-09-22T14:35:17Z</time>
      </trkpt>
      <trkpt lat="49.52046" lon="5.86332">
        <ele>416.87</ele>
        <time>2012-09-22T14:35:30Z</time>
      </trkpt>
      <trkpt lat="49.52058" lon="5.86365">
        <ele>416.39</ele>
        <time>2012-09-22T14:35:36Z</time>
      </trkpt>
      <trkpt lat="49.52059" lon="5.86395">
        <ele>417.35</ele>
        <time>2012-09-22T14:35:41Z</time>
      </trkpt>
      <trkpt lat="49.52057" lon="5.86408">
        <ele>417.83</ele>
        <time>2012-09-22T14:35:43Z</time>
      </trkpt>
      <trkpt lat="49.52056" lon="5.8642">
        <ele>417.83</ele>
        <time>2012-09-22T14:35:45Z</time>
      </trkpt>
      <trkpt lat="49.52056" lon="5.86451">
        <ele>418.79</ele>
        <time>2012-09-22T14:35:51Z</time>
      </trkpt>
      <trkpt lat="49.52064" lon="5.86471">
        <ele>419.27</ele>
        <time>2012-09-22T14:35:58Z</time>
      </trkpt>
      <trkpt lat="49.52093" lon="5.86533">
        <ele>421.68</ele>
        <time>2012-09-22T14:36:11Z</time>
      </trkpt>
      <trkpt lat="49.52117" lon="5.86567">
        <ele>420.23</ele>
        <time>2012-09-22T14:36:18Z</time>
      </trkpt>
      <trkpt lat="49.52128" lon="5.86578">
        <ele>421.19</ele>
        <time>2012-09-22T14:36:21Z</time>
      </trkpt>
      <trkpt lat="49.52139" lon="5.86591">
        <ele>421.68</ele>
        <time>2012-09-22T14:36:24Z</time>
      </trkpt>
      <trkpt lat="49.52153" lon="5.86612">
        <ele>422.16</ele>
        <time>2012-09-22T14:36:28Z</time>
      </trkpt>
      <trkpt lat="49.52182" lon="5.86662">
        <ele>423.12</ele>
        <time>2012-09-22T14:36:38Z</time>
      </trkpt>
      <trkpt lat="49.52215" lon="5.86721">
        <ele>424.08</ele>
        <time>2012-09-22T14:36:50Z</time>
      </trkpt>
      <trkpt lat="49.52221" lon="5.8673">
        <ele>423.6</ele>
        <time>2012-09-22T14:36:52Z</time>
      </trkpt>
      <trkpt lat="49.52255" lon="5.8676">
        <ele>424.08</ele>
        <time>2012-09-22T14:37:02Z</time>
      </trkpt>
      <trkpt lat="49.52262" lon="5.8676">
        <ele>423.12</ele>
        <time>2012-09-22T14:37:04Z</time>
      </trkpt>
      <trkpt lat="49.52269" lon="5.86756">
        <ele>423.12</ele>
        <time>2012-09-22T14:37:06Z</time>
      </trkpt>
      <trkpt lat="49.52305" lon="5.86736">
        <ele>423.6</ele>
        <time>2012-09-22T14:37:15Z</time>
      </trkpt>
      <trkpt lat="49.52314" lon="5.86726">
        <ele>422.64</ele>
        <time>2012-09-22T14:37:17Z</time>
      </trkpt>
      <trkpt lat="49.5235" lon="5.86673">
        <ele>421.68</ele>
        <time>2012-09-22T14:37:23Z</time>
      </trkpt>
      <trkpt lat="49.52365" lon="5.86657">
        <ele>421.68</ele>
        <time>2012-09-22T14:37:26Z</time>
      </trkpt>
      <trkpt lat="49.52386" lon="5.86645">
        <ele>422.16</ele>
        <time>2012-09-22T14:37:30Z</time>
      </trkpt>
      <trkpt lat="49.52399" lon="5.86638">
        <ele>422.64</ele>
        <time>2012-09-22T14:37:32Z</time>
      </trkpt>
      <trkpt lat="49.52407" lon="5.8661">
        <ele>423.12</ele>
        <time>2012-09-22T14:37:37Z</time>
      </trkpt>
      <trkpt lat="49.52401" lon="5.86525">
        <ele>424.08</ele>
        <time>2012-09-22T14:37:49Z</time>
      </trkpt>
      <trkpt lat="49.52397" lon="5.86487">
        <ele>423.6</ele>
        <time>2012-09-22T14:37:54Z</time>
      </trkpt>
      <trkpt lat="49.52391" lon="5.86391">
        <ele>423.12</ele>
        <time>2012-09-22T14:38:06Z</time>
      </trkpt>
      <trkpt lat="49.52389" lon="5.86358">
        <ele>423.6</ele>
        <time>2012-09-22T14:38:10Z</time>
      </trkpt>
      <trkpt lat="49.52384" lon="5.86324">
        <ele>422.64</ele>
        <time>2012-09-22T14:38:14Z</time>
      </trkpt>
      <trkpt lat="49.52391" lon="5.86279">
        <ele>422.64</ele>
        <time>2012-09-22T14:38:19Z</time>
      </trkpt>
      <trkpt lat="49.5242" lon="5.86209">
        <ele>422.16</ele>
        <time>2012-09-22T14:38:30Z</time>
      </trkpt>
      <trkpt lat="49.52447" lon="5.86148">
        <ele>418.31</ele>
        <time>2012-09-22T14:38:37Z</time>
      </trkpt>
      <trkpt lat="49.52467" lon="5.86108">
        <ele>417.35</ele>
        <time>2012-09-22T14:38:41Z</time>
      </trkpt>
      <trkpt lat="49.52535" lon="5.86007">
        <ele>416.87</ele>
        <time>2012-09-22T14:38:54Z</time>
      </trkpt>
      <trkpt lat="49.52553" lon="5.85984">
        <ele>419.75</ele>
        <time>2012-09-22T14:38:59Z</time>
      </trkpt>
      <trkpt lat="49.5256" lon="5.85975">
        <ele>419.75</ele>
        <time>2012-09-22T14:39:01Z</time>
      </trkpt>
      <trkpt lat="49.52575" lon="5.85955">
        <ele>420.23</ele>
        <time>2012-09-22T14:39:05Z</time>
      </trkpt>
      <trkpt lat="49.52608" lon="5.85897">
        <ele>420.23</ele>
        <time>2012-09-22T14:39:18Z</time>
      </trkpt>
      <trkpt lat="49.5263" lon="5.85902">
        <ele>421.19</ele>
        <time>2012-09-22T14:39:27Z</time>
      </trkpt>
      <trkpt lat="49.52672" lon="5.85932">
        <ele>421.19</ele>
        <time>2012-09-22T14:39:40Z</time>
      </trkpt>
      <trkpt lat="49.52727" lon="5.85967">
        <ele>421.19</ele>
        <time>2012-09-22T14:39:54Z</time>
      </trkpt>
      <trkpt lat="49.52736" lon="5.85972">
        <ele>419.75</ele>
        <time>2012-09-22T14:39:56Z</time>
      </trkpt>
      <trkpt lat="49.52764" lon="5.85989">
        <ele>416.39</ele>
        <time>2012-09-22T14:40:01Z</time>
      </trkpt>
      <trkpt lat="49.52793" lon="5.86006">
        <ele>413.98</ele>
        <time>2012-09-22T14:40:06Z</time>
      </trkpt>
      <trkpt lat="49.52803" lon="5.86012">
        <ele>413.98</ele>
        <time>2012-09-22T14:40:08Z</time>
      </trkpt>
      <trkpt lat="49.52821" lon="5.85995">
        <ele>413.98</ele>
        <time>2012-09-22T14:40:15Z</time>
      </trkpt>
      <trkpt lat="49.52825" lon="5.85979">
        <ele>413.02</ele>
        <time>2012-09-22T14:40:18Z</time>
      </trkpt>
      <trkpt lat="49.52831" lon="5.85919">
        <ele>416.39</ele>
        <time>2012-09-22T14:40:28Z</time>
      </trkpt>
      <trkpt lat="49.52839" lon="5.85861">
        <ele>419.27</ele>
        <time>2012-09-22T14:40:38Z</time>
      </trkpt>
      <trkpt lat="49.52845" lon="5.85857">
        <ele>418.31</ele>
        <time>2012-09-22T14:40:42Z</time>
      </trkpt>
      <trkpt lat="49.52856" lon="5.85864">
        <ele>416.39</ele>
        <time>2012-09-22T14:40:46Z</time>
      </trkpt>
      <trkpt lat="49.52863" lon="5.85878">
        <ele>414.47</ele>
        <time>2012-09-22T14:40:49Z</time>
      </trkpt>
      <trkpt lat="49.52878" lon="5.85896">
        <ele>413.5</ele>
        <time>2012-09-22T14:40:53Z</time>
      </trkpt>
      <trkpt lat="49.52899" lon="5.85905">
        <ele>412.54</ele>
        <time>2012-09-22T14:40:58Z</time>
      </trkpt>
      <trkpt lat="49.5292" lon="5.85914">
        <ele>410.62</ele>
        <time>2012-09-22T14:41:03Z</time>
      </trkpt>
      <trkpt lat="49.52953" lon="5.85913">
        <ele>406.77</ele>
        <time>2012-09-22T14:41:11Z</time>
      </trkpt>
      <trkpt lat="49.52979" lon="5.85911">
        <ele>406.77</ele>
        <time>2012-09-22T14:41:19Z</time>
      </trkpt>
      <trkpt lat="49.52987" lon="5.85922">
        <ele>406.77</ele>
        <time>2012-09-22T14:41:23Z</time>
      </trkpt>
      <trkpt lat="49.5299" lon="5.85994">
        <ele>402.93</ele>
        <time>2012-09-22T14:41:30Z</time>
      </trkpt>
      <trkpt lat="49.53002" lon="5.86091">
        <ele>401.01</ele>
        <time>2012-09-22T14:41:38Z</time>
      </trkpt>
      <trkpt lat="49.52999" lon="5.86144">
        <ele>401.49</ele>
        <time>2012-09-22T14:41:44Z</time>
      </trkpt>
      <trkpt lat="49.52991" lon="5.86196">
        <ele>399.08</ele>
        <time>2012-09-22T14:41:49Z</time>
      </trkpt>
      <trkpt lat="49.52984" lon="5.86218">
        <ele>400.53</ele>
        <time>2012-09-22T14:41:51Z</time>
      </trkpt>
      <trkpt lat="49.52962" lon="5.86277">
        <ele>401.01</ele>
        <time>2012-09-22T14:41:58Z</time>
      </trkpt>
      <trkpt lat="49.52954" lon="5.86315">
        <ele>402.45</ele>
        <time>2012-09-22T14:42:02Z</time>
      </trkpt>
      <trkpt lat="49.52953" lon="5.86331">
        <ele>401.97</ele>
        <time>2012-09-22T14:42:04Z</time>
      </trkpt>
      <trkpt lat="49.52955" lon="5.86351">
        <ele>403.89</ele>
        <time>2012-09-22T14:42:07Z</time>
      </trkpt>
      <trkpt lat="49.52958" lon="5.86366">
        <ele>405.81</ele>
        <time>2012-09-22T14:42:11Z</time>
      </trkpt>
      <trkpt lat="49.52959" lon="5.86373">
        <ele>406.77</ele>
        <time>2012-09-22T14:42:13Z</time>
      </trkpt>
      <trkpt lat="49.52964" lon="5.86406">
        <ele>409.66</ele>
        <time>2012-09-22T14:42:25Z</time>
      </trkpt>
      <trkpt lat="49.52963" lon="5.8644">
        <ele>412.06</ele>
        <time>2012-09-22T14:42:38Z</time>
      </trkpt>
      <trkpt lat="49.52958" lon="5.86488">
        <ele>411.58</ele>
        <time>2012-09-22T14:42:49Z</time>
      </trkpt>
      <trkpt lat="49.52955" lon="5.86532">
        <ele>410.14</ele>
        <time>2012-09-22T14:42:57Z</time>
      </trkpt>
      <trkpt lat="49.52952" lon="5.86594">
        <ele>413.98</ele>
        <time>2012-09-22T14:43:10Z</time>
      </trkpt>
      <trkpt lat="49.52952" lon="5.86604">
        <ele>414.47</ele>
        <time>2012-09-22T14:43:12Z</time>
      </trkpt>
      <trkpt lat="49.52947" lon="5.86637">
        <ele>414.95</ele>
        <time>2012-09-22T14:43:23Z</time>
      </trkpt>
      <trkpt lat="49.52938" lon="5.8669">
        <ele>417.83</ele>
        <time>2012-09-22T14:43:38Z</time>
      </trkpt>
      <trkpt lat="49.5294" lon="5.86759">
        <ele>419.27</ele>
        <time>2012-09-22T14:43:49Z</time>
      </trkpt>
      <trkpt lat="49.52943" lon="5.86858">
        <ele>419.27</ele>
        <time>2012-09-22T14:44:03Z</time>
      </trkpt>
      <trkpt lat="49.52948" lon="5.86946">
        <ele>420.71</ele>
        <time>2012-09-22T14:44:18Z</time>
      </trkpt>
      <trkpt lat="49.52954" lon="5.86979">
        <ele>422.16</ele>
        <time>2012-09-22T14:44:25Z</time>
      </trkpt>
      <trkpt lat="49.52968" lon="5.87034">
        <ele>421.19</ele>
        <time>2012-09-22T14:44:36Z</time>
      </trkpt>
      <trkpt lat="49.52989" lon="5.871">
        <ele>423.6</ele>
        <time>2012-09-22T14:44:50Z</time>
      </trkpt>
      <trkpt lat="49.53006" lon="5.87153">
        <ele>424.56</ele>
        <time>2012-09-22T14:45:01Z</time>
      </trkpt>
      <trkpt lat="49.53019" lon="5.87211">
        <ele>424.56</ele>
        <time>2012-09-22T14:45:11Z</time>
      </trkpt>
      <trkpt lat="49.53015" lon="5.87276">
        <ele>424.08</ele>
        <time>2012-09-22T14:45:21Z</time>
      </trkpt>
      <trkpt lat="49.53017" lon="5.87296">
        <ele>423.12</ele>
        <time>2012-09-22T14:45:24Z</time>
      </trkpt>
      <trkpt lat="49.53021" lon="5.87336">
        <ele>422.64</ele>
        <time>2012-09-22T14:45:29Z</time>
      </trkpt>
      <trkpt lat="49.53028" lon="5.87375">
        <ele>421.68</ele>
        <time>2012-09-22T14:45:34Z</time>
      </trkpt>
      <trkpt lat="49.53039" lon="5.87415">
        <ele>420.71</ele>
        <time>2012-09-22T14:45:39Z</time>
      </trkpt>
      <trkpt lat="49.53041" lon="5.87435">
        <ele>418.79</ele>
        <time>2012-09-22T14:45:42Z</time>
      </trkpt>
      <trkpt lat="49.53036" lon="5.87494">
        <ele>416.87</ele>
        <time>2012-09-22T14:45:51Z</time>
      </trkpt>
      <trkpt lat="49.53032" lon="5.87499">
        <ele>416.87</ele>
        <time>2012-09-22T14:45:52Z</time>
      </trkpt>
      <trkpt lat="49.52949" lon="5.8758">
        <ele>415.91</ele>
        <time>2012-09-22T14:46:06Z</time>
      </trkpt>
      <trkpt lat="49.52926" lon="5.87602">
        <ele>414.47</ele>
        <time>2012-09-22T14:46:10Z</time>
      </trkpt>
      <trkpt lat="49.52903" lon="5.87615">
        <ele>416.87</ele>
        <time>2012-09-22T14:46:14Z</time>
      </trkpt>
      <trkpt lat="49.52897" lon="5.87617">
        <ele>416.87</ele>
        <time>2012-09-22T14:46:15Z</time>
      </trkpt>
      <trkpt lat="49.5286" lon="5.87624">
        <ele>414.95</ele>
        <time>2012-09-22T14:46:22Z</time>
      </trkpt>
      <trkpt lat="49.52843" lon="5.87642">
        <ele>415.43</ele>
        <time>2012-09-22T14:46:26Z</time>
      </trkpt>
      <trkpt lat="49.52834" lon="5.87677">
        <ele>414.95</ele>
        <time>2012-09-22T14:46:30Z</time>
      </trkpt>
      <trkpt lat="49.52807" lon="5.87815">
        <ele>415.43</ele>
        <time>2012-09-22T14:46:44Z</time>
      </trkpt>
      <trkpt lat="49.52795" lon="5.87865">
        <ele>413.5</ele>
        <time>2012-09-22T14:46:49Z</time>
      </trkpt>
      <trkpt lat="49.52775" lon="5.87923">
        <ele>414.47</ele>
        <time>2012-09-22T14:46:56Z</time>
      </trkpt>
      <trkpt lat="49.52762" lon="5.87945">
        <ele>413.98</ele>
        <time>2012-09-22T14:47:00Z</time>
      </trkpt>
      <trkpt lat="49.52751" lon="5.8796">
        <ele>414.95</ele>
        <time>2012-09-22T14:47:04Z</time>
      </trkpt>
      <trkpt lat="49.52737" lon="5.87966">
        <ele>413.98</ele>
        <time>2012-09-22T14:47:08Z</time>
      </trkpt>
      <trkpt lat="49.52727" lon="5.87985">
        <ele>413.98</ele>
        <time>2012-09-22T14:47:14Z</time>
      </trkpt>
      <trkpt lat="49.5269" lon="5.8801">
        <ele>413.02</ele>
        <time>2012-09-22T14:47:24Z</time>
      </trkpt>
      <trkpt lat="49.52684" lon="5.88047">
        <ele>413.98</ele>
        <time>2012-09-22T14:47:31Z</time>
      </trkpt>
      <trkpt lat="49.52687" lon="5.88064">
        <ele>414.95</ele>
        <time>2012-09-22T14:47:34Z</time>
      </trkpt>
      <trkpt lat="49.52696" lon="5.88087">
        <ele>414.47</ele>
        <time>2012-09-22T14:47:38Z</time>
      </trkpt>
      <trkpt lat="49.52708" lon="5.88108">
        <ele>415.91</ele>
        <time>2012-09-22T14:47:43Z</time>
      </trkpt>
      <trkpt lat="49.52713" lon="5.88117">
        <ele>416.39</ele>
        <time>2012-09-22T14:47:46Z</time>
      </trkpt>
      <trkpt lat="49.52718" lon="5.8813">
        <ele>417.35</ele>
        <time>2012-09-22T14:47:51Z</time>
      </trkpt>
      <trkpt lat="49.52737" lon="5.8814">
        <ele>417.83</ele>
        <time>2012-09-22T14:48:01Z</time>
      </trkpt>
      <trkpt lat="49.52743" lon="5.88139">
        <ele>417.83</ele>
        <time>2012-09-22T14:48:05Z</time>
      </trkpt>
      <trkpt lat="49.5277" lon="5.88154">
        <ele>415.91</ele>
        <time>2012-09-22T14:48:16Z</time>
      </trkpt>
      <trkpt lat="49.5279" lon="5.8816">
        <ele>413.98</ele>
        <time>2012-09-22T14:48:24Z</time>
      </trkpt>
      <trkpt lat="49.52795" lon="5.88157">
        <ele>413.5</ele>
        <time>2012-09-22T14:48:26Z</time>
      </trkpt>
      <trkpt lat="49.52818" lon="5.8816">
        <ele>410.14</ele>
        <time>2012-09-22T14:48:34Z</time>
      </trkpt>
      <trkpt lat="49.52821" lon="5.88163">
        <ele>410.14</ele>
        <time>2012-09-22T14:48:35Z</time>
      </trkpt>
      <trkpt lat="49.52828" lon="5.88169">
        <ele>409.66</ele>
        <time>2012-09-22T14:48:37Z</time>
      </trkpt>
      <trkpt lat="49.52843" lon="5.88177">
        <ele>406.29</ele>
        <time>2012-09-22T14:48:40Z</time>
      </trkpt>
      <trkpt lat="49.52849" lon="5.8818">
        <ele>407.74</ele>
        <time>2012-09-22T14:48:41Z</time>
      </trkpt>
      <trkpt lat="49.52855" lon="5.88183">
        <ele>406.77</ele>
        <time>2012-09-22T14:48:42Z</time>
      </trkpt>
      <trkpt lat="49.52866" lon="5.88191">
        <ele>405.81</ele>
        <time>2012-09-22T14:48:44Z</time>
      </trkpt>
      <trkpt lat="49.52886" lon="5.88207">
        <ele>401.01</ele>
        <time>2012-09-22T14:48:49Z</time>
      </trkpt>
      <trkpt lat="49.52898" lon="5.88212">
        <ele>398.12</ele>
        <time>2012-09-22T14:48:53Z</time>
      </trkpt>
      <trkpt lat="49.52908" lon="5.88222">
        <ele>395.24</ele>
        <time>2012-09-22T14:48:56Z</time>
      </trkpt>
      <trkpt lat="49.52922" lon="5.88221">
        <ele>392.36</ele>
        <time>2012-09-22T14:49:00Z</time>
      </trkpt>
      <trkpt lat="49.52937" lon="5.88228">
        <ele>388.51</ele>
        <time>2012-09-22T14:49:04Z</time>
      </trkpt>
      <trkpt lat="49.52946" lon="5.88237">
        <ele>384.18</ele>
        <time>2012-09-22T14:49:07Z</time>
      </trkpt>
      <trkpt lat="49.52948" lon="5.88241">
        <ele>384.18</ele>
        <time>2012-09-22T14:49:08Z</time>
      </trkpt>
      <trkpt lat="49.52956" lon="5.8825">
        <ele>381.3</ele>
        <time>2012-09-22T14:49:11Z</time>
      </trkpt>
      <trkpt lat="49.52958" lon="5.88253">
        <ele>381.3</ele>
        <time>2012-09-22T14:49:12Z</time>
      </trkpt>
      <trkpt lat="49.52964" lon="5.88263">
        <ele>377.94</ele>
        <time>2012-09-22T14:49:15Z</time>
      </trkpt>
      <trkpt lat="49.52966" lon="5.88266">
        <ele>377.94</ele>
        <time>2012-09-22T14:49:16Z</time>
      </trkpt>
      <trkpt lat="49.52968" lon="5.88268">
        <ele>378.42</ele>
        <time>2012-09-22T14:49:17Z</time>
      </trkpt>
      <trkpt lat="49.52972" lon="5.88277">
        <ele>376.49</ele>
        <time>2012-09-22T14:49:20Z</time>
      </trkpt>
      <trkpt lat="49.52978" lon="5.88288">
        <ele>375.05</ele>
        <time>2012-09-22T14:49:21Z</time>
      </trkpt>
      <trkpt lat="49.52985" lon="5.88297">
        <ele>371.21</ele>
        <time>2012-09-22T14:49:25Z</time>
      </trkpt>
      <trkpt lat="49.53" lon="5.88318">
        <ele>366.4</ele>
        <time>2012-09-22T14:49:28Z</time>
      </trkpt>
      <trkpt lat="49.53007" lon="5.88325">
        <ele>363.04</ele>
        <time>2012-09-22T14:49:31Z</time>
      </trkpt>
      <trkpt lat="49.5301" lon="5.88327">
        <ele>363.52</ele>
        <time>2012-09-22T14:49:32Z</time>
      </trkpt>
      <trkpt lat="49.53032" lon="5.88346">
        <ele>359.67</ele>
        <time>2012-09-22T14:49:38Z</time>
      </trkpt>
      <trkpt lat="49.53045" lon="5.88357">
        <ele>356.79</ele>
        <time>2012-09-22T14:49:43Z</time>
      </trkpt>
      <trkpt lat="49.53066" lon="5.88369">
        <ele>355.83</ele>
        <time>2012-09-22T14:49:47Z</time>
      </trkpt>
      <trkpt lat="49.53075" lon="5.88373">
        <ele>355.34</ele>
        <time>2012-09-22T14:49:49Z</time>
      </trkpt>
      <trkpt lat="49.53082" lon="5.88379">
        <ele>354.86</ele>
        <time>2012-09-22T14:49:51Z</time>
      </trkpt>
      <trkpt lat="49.53087" lon="5.88389">
        <ele>355.34</ele>
        <time>2012-09-22T14:49:55Z</time>
      </trkpt>
      <trkpt lat="49.53091" lon="5.88409">
        <ele>355.34</ele>
        <time>2012-09-22T14:49:59Z</time>
      </trkpt>
      <trkpt lat="49.53106" lon="5.88445">
        <ele>352.94</ele>
        <time>2012-09-22T14:50:05Z</time>
      </trkpt>
      <trkpt lat="49.53132" lon="5.88526">
        <ele>348.62</ele>
        <time>2012-09-22T14:50:14Z</time>
      </trkpt>
      <trkpt lat="49.53162" lon="5.88616">
        <ele>345.73</ele>
        <time>2012-09-22T14:50:21Z</time>
      </trkpt>
      <trkpt lat="49.53167" lon="5.8863">
        <ele>345.25</ele>
        <time>2012-09-22T14:50:22Z</time>
      </trkpt>
      <trkpt lat="49.53191" lon="5.88694">
        <ele>342.37</ele>
        <time>2012-09-22T14:50:27Z</time>
      </trkpt>
      <trkpt lat="49.53218" lon="5.88772">
        <ele>339</ele>
        <time>2012-09-22T14:50:34Z</time>
      </trkpt>
      <trkpt lat="49.53222" lon="5.88782">
        <ele>338.52</ele>
        <time>2012-09-22T14:50:35Z</time>
      </trkpt>
      <trkpt lat="49.53247" lon="5.88842">
        <ele>335.64</ele>
        <time>2012-09-22T14:50:43Z</time>
      </trkpt>
      <trkpt lat="49.5325" lon="5.88848">
        <ele>335.16</ele>
        <time>2012-09-22T14:50:44Z</time>
      </trkpt>
      <trkpt lat="49.53253" lon="5.88854">
        <ele>335.64</ele>
        <time>2012-09-22T14:50:45Z</time>
      </trkpt>
      <trkpt lat="49.53261" lon="5.88876">
        <ele>334.2</ele>
        <time>2012-09-22T14:50:48Z</time>
      </trkpt>
      <trkpt lat="49.53265" lon="5.88892">
        <ele>331.79</ele>
        <time>2012-09-22T14:50:53Z</time>
      </trkpt>
      <trkpt lat="49.53267" lon="5.88899">
        <ele>331.31</ele>
        <time>2012-09-22T14:50:55Z</time>
      </trkpt>
      <trkpt lat="49.5327" lon="5.88904">
        <ele>329.87</ele>
        <time>2012-09-22T14:50:57Z</time>
      </trkpt>
      <trkpt lat="49.53271" lon="5.88902">
        <ele>328.43</ele>
        <time>2012-09-22T14:50:59Z</time>
      </trkpt>
      <trkpt lat="49.53263" lon="5.88886">
        <ele>329.87</ele>
        <time>2012-09-22T14:51:04Z</time>
      </trkpt>
      <trkpt lat="49.5325" lon="5.88848">
        <ele>330.35</ele>
        <time>2012-09-22T14:51:10Z</time>
      </trkpt>
      <trkpt lat="49.53247" lon="5.88834">
        <ele>330.83</ele>
        <time>2012-09-22T14:51:12Z</time>
      </trkpt>
      <trkpt lat="49.53243" lon="5.88822">
        <ele>331.79</ele>
        <time>2012-09-22T14:51:14Z</time>
      </trkpt>
      <trkpt lat="49.53234" lon="5.88778">
        <ele>332.27</ele>
        <time>2012-09-22T14:51:20Z</time>
      </trkpt>
      <trkpt lat="49.53229" lon="5.88754">
        <ele>330.83</ele>
        <time>2012-09-22T14:51:23Z</time>
      </trkpt>
      <trkpt lat="49.53219" lon="5.88688">
        <ele>330.35</ele>
        <time>2012-09-22T14:51:33Z</time>
      </trkpt>
      <trkpt lat="49.53219" lon="5.88679">
        <ele>330.35</ele>
        <time>2012-09-22T14:51:37Z</time>
      </trkpt>
      <trkpt lat="49.53219" lon="5.88682">
        <ele>327.47</ele>
        <time>2012-09-22T14:51:42Z</time>
      </trkpt>
      <trkpt lat="49.53227" lon="5.88703">
        <ele>326.99</ele>
        <time>2012-09-22T14:51:46Z</time>
      </trkpt>
      <trkpt lat="49.53231" lon="5.88706">
        <ele>325.54</ele>
        <time>2012-09-22T14:51:48Z</time>
      </trkpt>
      <trkpt lat="49.53234" lon="5.88707">
        <ele>324.1</ele>
        <time>2012-09-22T14:51:50Z</time>
      </trkpt>
      <trkpt lat="49.53244" lon="5.88712">
        <ele>322.18</ele>
        <time>2012-09-22T14:51:54Z</time>
      </trkpt>
      <trkpt lat="49.53257" lon="5.8873">
        <ele>322.18</ele>
        <time>2012-09-22T14:51:59Z</time>
      </trkpt>
      <trkpt lat="49.53264" lon="5.88747">
        <ele>320.26</ele>
        <time>2012-09-22T14:52:02Z</time>
      </trkpt>
      <trkpt lat="49.5329" lon="5.88832">
        <ele>318.81</ele>
        <time>2012-09-22T14:52:11Z</time>
      </trkpt>
      <trkpt lat="49.53316" lon="5.88847">
        <ele>315.45</ele>
        <time>2012-09-22T14:52:16Z</time>
      </trkpt>
      <trkpt lat="49.53329" lon="5.8885">
        <ele>314.49</ele>
        <time>2012-09-22T14:52:18Z</time>
      </trkpt>
      <trkpt lat="49.53346" lon="5.88853">
        <ele>312.57</ele>
        <time>2012-09-22T14:52:22Z</time>
      </trkpt>
      <trkpt lat="49.53364" lon="5.88886">
        <ele>312.57</ele>
        <time>2012-09-22T14:52:28Z</time>
      </trkpt>
      <trkpt lat="49.5337" lon="5.88913">
        <ele>312.09</ele>
        <time>2012-09-22T14:52:32Z</time>
      </trkpt>
      <trkpt lat="49.53374" lon="5.88948">
        <ele>312.09</ele>
        <time>2012-09-22T14:52:37Z</time>
      </trkpt>
      <trkpt lat="49.53377" lon="5.88962">
        <ele>311.6</ele>
        <time>2012-09-22T14:52:39Z</time>
      </trkpt>
      <trkpt lat="49.53379" lon="5.88998">
        <ele>311.6</ele>
        <time>2012-09-22T14:52:44Z</time>
      </trkpt>
      <trkpt lat="49.53385" lon="5.89004">
        <ele>312.09</ele>
        <time>2012-09-22T14:52:49Z</time>
      </trkpt>
      <trkpt lat="49.53398" lon="5.88985">
        <ele>311.6</ele>
        <time>2012-09-22T14:52:55Z</time>
      </trkpt>
      <trkpt lat="49.53408" lon="5.88975">
        <ele>310.64</ele>
        <time>2012-09-22T14:52:58Z</time>
      </trkpt>
      <trkpt lat="49.53428" lon="5.88954">
        <ele>312.57</ele>
        <time>2012-09-22T14:53:03Z</time>
      </trkpt>
      <trkpt lat="49.53449" lon="5.88933">
        <ele>312.57</ele>
        <time>2012-09-22T14:53:09Z</time>
      </trkpt>
      <trkpt lat="49.53454" lon="5.88942">
        <ele>312.09</ele>
        <time>2012-09-22T14:53:13Z</time>
      </trkpt>
      <trkpt lat="49.53464" lon="5.88972">
        <ele>311.12</ele>
        <time>2012-09-22T14:53:18Z</time>
      </trkpt>
      <trkpt lat="49.53471" lon="5.88981">
        <ele>310.16</ele>
        <time>2012-09-22T14:53:21Z</time>
      </trkpt>
      <trkpt lat="49.53477" lon="5.89003">
        <ele>310.16</ele>
        <time>2012-09-22T14:53:32Z</time>
      </trkpt>
      <trkpt lat="49.53496" lon="5.89062">
        <ele>309.2</ele>
        <time>2012-09-22T14:53:40Z</time>
      </trkpt>
      <trkpt lat="49.53512" lon="5.89105">
        <ele>308.24</ele>
        <time>2012-09-22T14:53:47Z</time>
      </trkpt>
      <trkpt lat="49.53531" lon="5.89108">
        <ele>308.24</ele>
        <time>2012-09-22T14:53:55Z</time>
      </trkpt>
      <trkpt lat="49.53548" lon="5.89121">
        <ele>308.24</ele>
        <time>2012-09-22T14:54:02Z</time>
      </trkpt>
      <trkpt lat="49.53549" lon="5.89124">
        <ele>307.76</ele>
        <time>2012-09-22T14:54:09Z</time>
      </trkpt>
      <trkpt lat="49.5354" lon="5.89127">
        <ele>307.76</ele>
        <time>2012-09-22T14:54:16Z</time>
      </trkpt>
      <trkpt lat="49.53541" lon="5.89138">
        <ele>307.76</ele>
        <time>2012-09-22T14:54:19Z</time>
      </trkpt>
      <trkpt lat="49.53562" lon="5.89138">
        <ele>306.8</ele>
        <time>2012-09-22T14:54:27Z</time>
      </trkpt>
      <trkpt lat="49.53565" lon="5.89154">
        <ele>307.76</ele>
        <time>2012-09-22T14:54:30Z</time>
      </trkpt>
      <trkpt lat="49.53567" lon="5.89167">
        <ele>307.76</ele>
        <time>2012-09-22T14:54:32Z</time>
      </trkpt>
      <trkpt lat="49.53568" lon="5.89191">
        <ele>307.76</ele>
        <time>2012-09-22T14:54:36Z</time>
      </trkpt>
      <trkpt lat="49.53567" lon="5.89199">
        <ele>306.8</ele>
        <time>2012-09-22T14:54:38Z</time>
      </trkpt>
      <trkpt lat="49.53572" lon="5.89216">
        <ele>305.36</ele>
        <time>2012-09-22T14:54:48Z</time>
      </trkpt>
      <trkpt lat="49.53575" lon="5.89218">
        <ele>305.84</ele>
        <time>2012-09-22T14:55:02Z</time>
      </trkpt>
      <trkpt lat="49.53575" lon="5.89218">
        <ele>306.32</ele>
        <time>2012-09-22T14:55:43Z</time>
      </trkpt>
      <trkpt lat="49.53575" lon="5.89218">
        <ele>306.8</ele>
        <time>2012-09-22T14:55:45Z</time>
      </trkpt>
      <trkpt lat="49.53575" lon="5.89218">
        <ele>303.91</ele>
        <time>2012-09-22T14:55:54Z</time>
      </trkpt>
      <trkpt lat="49.53575" lon="5.89218">
        <ele>305.84</ele>
        <time>2012-09-23T05:59:32Z</time>
      </trkpt>
      <trkpt lat="49.53575" lon="5.89218">
        <ele>177.02</ele>
        <time>2012-09-23T05:59:34Z</time>
      </trkpt>
      <trkpt lat="49.53575" lon="5.89218">
        <ele>177.98</ele>
        <time>2012-09-23T05:59:48Z</time>
      </trkpt>
      <trkpt lat="49.53575" lon="5.89218">
        <ele>175.1</ele>
        <time>2012-09-23T05:59:49Z</time>
      </trkpt>
      <trkpt lat="49.53575" lon="5.89218">
        <ele>177.5</ele>
        <time>2012-09-23T05:59:50Z</time>
      </trkpt>
      <trkpt lat="49.53575" lon="5.89218">
        <ele>182.79</ele>
        <time>2012-09-23T05:59:52Z</time>
      </trkpt>
      <trkpt lat="49.53575" lon="5.89218">
        <ele>177.98</ele>
        <time>2012-09-23T05:59:53Z</time>
      </trkpt>
      <trkpt lat="49.53575" lon="5.89218">
        <ele>176.06</ele>
        <time>2012-09-23T05:59:54Z</time>
      </trkpt>
      <trkpt lat="49.53575" lon="5.89218">
        <ele>173.17</ele>
        <time>2012-09-23T05:59:56Z</time>
      </trkpt>
      <trkpt lat="49.53575" lon="5.89218">
        <ele>177.02</ele>
        <time>2012-09-23T05:59:57Z</time>
      </trkpt>
      <trkpt lat="49.53575" lon="5.89218">
        <ele>173.66</ele>
        <time>2012-09-23T06:00:02Z</time>
      </trkpt>
      <trkpt lat="49.53575" lon="5.89218">
        <ele>176.54</ele>
        <time>2012-09-23T06:00:03Z</time>
      </trkpt>
      <trkpt lat="49.53575" lon="5.89218">
        <ele>174.14</ele>
        <time>2012-09-23T06:00:04Z</time>
      </trkpt>
      <trkpt lat="49.53575" lon="5.89218">
        <ele>178.46</ele>
        <time>2012-09-23T06:00:05Z</time>
      </trkpt>
      <trkpt lat="49.53575" lon="5.89218">
        <ele>168.37</ele>
        <time>2012-09-23T06:00:07Z</time>
      </trkpt>
      <trkpt lat="49.53575" lon="5.89218">
        <ele>182.79</ele>
        <time>2012-09-23T06:00:10Z</time>
      </trkpt>
      <trkpt lat="49.53575" lon="5.89218">
        <ele>173.17</ele>
        <time>2012-09-23T06:00:11Z</time>
      </trkpt>
      <trkpt lat="49.53575" lon="5.89218">
        <ele>178.94</ele>
        <time>2012-09-23T06:00:12Z</time>
      </trkpt>
      <trkpt lat="49.53575" lon="5.89218">
        <ele>182.79</ele>
        <time>2012-09-23T06:00:13Z</time>
      </trkpt>
      <trkpt lat="49.53575" lon="5.89218">
        <ele>177.5</ele>
        <time>2012-09-23T06:00:14Z</time>
      </trkpt>
    </trkseg>
  </trk>
</gpx>